[[{"header":{"parameterUnit":"m.s-1","parameterCategory":1,"la1":31.0,"la2":29.5877,"lo1":-88.7671,"lo2":-86.6584,"dy":0.0162,"dx":0.0185,"nx":115,"ny":88,"refTime":"2023-03-27T18:00:00:Z","depth":0,"parameterNumber":2,"parameterNumberName":"U-component_of_WINDS"},"data":[0.0,0.0,0.0,0.0,0.0,0.0,0.0,0.0,0.0,0.0,0.0,0.0,0.0,0.0,0.0,0.0,0.0,0.0,0.0,0.0,0.0,0.0,0.0,0.0,0.0,0.0,0.0,0.0,0.0,0.0,0.0,0.0,0.0,0.0,0.0,0.0,0.0,0.0,0.0,0.0,0.0,0.0,0.0,0.0,0.0,0.0,0.0,0.0,0.0,0.0,0.0,0.0,0.0,0.0,0.0,0.0,0.0,0.0,0.0,0.0,0.0,0.0,0.0,0.0,0.0,0.0,0.0,0.0,0.0,0.0,0.0,0.0,0.0,0.0,0.0,0.0,0.0,0.0,0.0,0.0,0.0,0.0,0.0,0.0,0.0,0.0,0.0,0.0,0.0,0.0,0.0,0.0,0.0,0.0,0.0,0.0,0.0,0.0,0.0,0.0,0.0,0.0,0.0,0.0,0.0,0.0,0.0,0.0,0.0,0.0,0.0,0.0,0.0,0.0,0.0,0.0,0.0,0.0,0.0,0.0,0.0,0.0,0.0,0.0,0.0,0.0,0.0,0.0,0.0,0.0,0.0,0.0,0.0,0.0,0.0,0.0,0.0,0.0,0.0,0.0,0.0,0.0,0.0,0.0,0.0,0.0,0.0,0.0,0.0,0.0,0.0,0.0,0.0,0.0,0.0,0.0,0.0,0.0,0.0,0.0,0.0,0.0,0.0,0.0,0.0,0.0,0.0,0.0,0.0,0.0,0.0,0.0,0.0,0.0,0.0,0.0,0.0,0.0,0.0,0.0,0.0,0.0,0.0,0.0,0.0,0.0,0.0,0.0,0.0,0.0,0.0,0.0,0.0,0.0,0.0,0.0,0.0,0.0,0.0,0.0,0.0,0.0,0.0,0.0,0.0,0.0,0.0,0.0,0.0,0.0,0.0,0.0,0.0,0.0,0.0,0.0,0.0,0.0,0.0,0.0,0.0,0.0,0.0,0.0,0.0,0.0,0.0,0.0,0.0,0.0,0.0,0.0,0.0,0.0,0.0,0.0,0.0,0.0,0.0,0.0,0.0,0.0,0.0,0.0,0.0,0.0,0.0,0.0,0.0,0.0,0.0,0.0,0.0,0.0,0.0,0.0,0.0,0.0,0.0,0.0,0.0,0.0,0.0,0.0,0.0,0.0,0.0,0.0,0.0,0.0,0.0,0.0,0.0,0.0,0.0,0.0,0.0,0.0,0.0,0.0,0.0,0.0,0.0,0.0,0.0,0.0,0.0,0.0,0.0,0.0,0.0,0.0,0.0,0.0,0.0,0.0,0.0,0.0,0.0,0.0,0.0,0.0,0.0,0.0,0.0,0.0,0.0,0.0,0.0,0.0,0.0,0.0,0.0,0.0,0.0,0.0,0.0,0.0,0.0,0.0,0.0,0.0,0.0,0.0,0.0,0.0,0.0,0.0,0.0,0.0,0.0,0.0,0.0,0.0,0.0,0.0,0.0,0.0,0.0,0.0,0.0,0.0,0.0,0.0,0.0,0.0,0.0,0.0,0.0,0.0,0.0,0.0,0.0,0.0,0.0,0.0,0.0,0.0,0.0,0.0,0.0,0.0,0.0,0.0,0.0,0.0,0.0,0.0,0.0,0.0,0.0,0.0,0.0,0.0,0.0,0.0,0.0,0.0,0.0,0.0,0.0,0.0,0.0,0.0,0.0,0.0,0.0,0.0,0.0,0.0,0.0,0.0,0.0,0.0,0.0,0.0,0.0,0.0,0.0,0.0,0.0,0.0,0.0,0.0,0.0,0.0,0.0,0.0,0.0,0.0,0.0,0.0,0.0,0.0,0.0,0.0,0.0,0.0,0.0,0.0,0.0,0.0,0.0,0.0,0.0,0.0,0.0,0.0,0.0,0.0,0.0,0.0,0.0,0.0,0.0,0.0,0.0,0.0,0.0,0.0,0.0,0.0,0.0,0.0,0.0,0.0,0.0,0.0,0.0,0.0,0.0,0.0,0.0,0.0,0.0,0.0,0.0,0.0,0.0,0.0,0.0,0.0,0.0,0.0,0.0,0.0,0.0,0.0,0.0,0.0,0.0,0.0,0.0,0.0,0.0,0.0,0.0,0.0,0.0,0.0,0.0,0.0,0.0,0.0,0.0,0.0,0.0,0.0,0.0,0.0,0.0,0.0,0.0,0.0,0.0,0.0,0.0,0.0,0.0,0.0,0.0,0.0,0.0,0.0,0.0,0.0,0.0,0.0,0.0,0.0,0.0,0.0,0.0,0.0,0.0,0.0,0.0,0.0,0.0,0.0,0.0,0.0,0.0,0.0,0.0,0.0,0.0,0.0,0.0,0.0,0.0,0.0,0.0,0.0,0.0,0.0,0.0,0.0,0.0,0.0,0.0,0.0,0.0,0.0,0.0,0.0,0.0,0.0,0.0,0.0,0.0,0.0,0.0,0.0,0.0,0.0,0.0,0.0,0.0,0.0,0.0,0.0,0.0,0.0,0.0,0.0,0.0,0.0,0.0,0.0,0.0,0.0,0.0,0.0,0.0,0.0,0.0,0.0,0.0,0.0,0.0,0.0,0.0,0.0,0.0,0.0,0.0,0.0,0.0,0.0,0.0,0.0,0.0,0.0,0.0,0.0,0.0,0.0,0.0,0.0,0.0,0.0,0.0,0.0,0.0,0.0,0.0,0.0,0.0,0.0,0.0,0.0,0.0,0.0,0.0,0.0,0.0,0.0,0.0,0.0,0.0,0.0,0.0,0.0,0.0,0.0,0.0,0.0,0.0,0.0,0.0,0.0,0.0,0.0,0.0,0.0,0.0,0.0,0.0,0.0,0.0,0.0,0.0,0.0,0.0,0.0,0.0,0.0,0.0,0.0,0.0,0.0,0.0,0.0,0.0,0.0,0.0,0.0,0.0,0.0,0.0,0.0,0.0,0.0,0.0,0.0,0.0,0.0,0.0,0.0,0.0,0.0,0.0,0.0,0.0,0.0,0.0,0.0,0.0,0.0,0.0,0.0,0.0,0.0,0.0,0.0,0.0,0.0,0.0,0.0,0.0,0.0,0.0,0.0,0.0,0.0,0.0,0.0,0.0,0.0,0.0,0.0,0.0,0.0,0.0,0.0,0.0,0.0,0.0,0.0,0.0,0.0,0.0,0.0,0.0,0.0,0.0,0.0,0.0,0.0,0.0,0.0,0.0,0.0,0.0,0.0,0.0,0.0,0.0,0.0,0.0,0.0,0.0,0.0,0.0,0.0,0.0,0.0,0.0,0.0,0.0,0.0,0.0,0.0,0.0,0.0,0.0,0.0,0.0,0.0,0.0,0.0,0.0,0.0,0.0,0.0,0.0,0.0,0.0,0.0,0.0,0.0,0.0,0.0,0.0,0.0,0.0,0.0,0.0,0.0,0.0,0.0,0.0,0.0,0.0,0.0,0.0,0.0,0.0,0.0,0.0,0.0,0.0,0.0,0.0,0.0,0.0,0.0,0.0,0.0,0.0,0.0,0.0,0.0,0.0,0.0,0.0,0.0,0.0,0.0,0.0,0.0,0.0,0.0,0.0,0.0,0.0,0.0,0.0,0.0,0.0,0.0,0.0,0.0,0.0,0.0,0.0,0.0,0.0,0.0,0.0,0.0,0.0,0.0,0.0,0.0,0.0,0.0,0.0,0.0,0.0,0.0,0.0,0.0,0.0,0.0,0.0,0.0,0.0,0.0,0.0,0.0,0.0,0.0,0.0,0.0,0.0,0.0,0.0,0.0,0.0,0.0,0.0,0.0,0.0,0.0,0.0,0.0,0.0,0.0,0.0,0.0,0.0,0.0,0.0,0.0,0.0,0.0,0.0,0.0,0.0,0.0,0.0,0.0,0.0,0.0,0.0,0.0,0.0,0.0,0.0,0.0,0.0,0.0,0.0,0.0,0.0,0.0,0.0,0.0,0.0,0.0,0.0,0.0,0.0,0.0,0.0,0.0,0.0,0.0,0.0,0.0,0.0,0.0,0.0,0.0,0.0,0.0,0.0,0.0,0.0,0.0,0.0,0.0,0.0,0.0,0.0,0.0,0.0,0.0,0.0,0.0,0.0,0.0,0.0,0.0,0.0,0.0,0.0,0.0,0.0,0.0,0.0,0.0,0.0,0.0,0.0,0.0,0.0,0.0,0.0,0.0,0.0,0.0,0.0,0.0,0.0,0.0,0.0,0.0,0.0,0.0,0.0,0.0,0.0,0.0,0.0,0.0,0.0,0.0,0.0,0.0,0.0,0.0,0.0,0.0,-5.5844,0.0,0.0,0.0,0.0,0.0,0.0,0.0,0.0,0.0,0.0,0.0,0.0,0.0,0.0,0.0,0.0,0.0,0.0,0.0,0.0,0.0,0.0,0.0,0.0,0.0,0.0,0.0,0.0,0.0,0.0,0.0,0.0,0.0,0.0,0.0,0.0,0.0,0.0,0.0,0.0,0.0,0.0,0.0,0.0,0.0,0.0,0.0,0.0,0.0,0.0,0.0,0.0,0.0,0.0,0.0,0.0,0.0,0.0,0.0,0.0,0.0,0.0,0.0,0.0,0.0,0.0,0.0,0.0,0.0,0.0,0.0,0.0,0.0,0.0,0.0,0.0,0.0,0.0,0.0,0.0,0.0,0.0,0.0,0.0,0.0,0.0,0.0,0.0,0.0,0.0,0.0,0.0,0.0,0.0,0.0,0.0,0.0,0.0,0.0,0.0,0.0,0.0,0.0,0.0,0.0,0.0,0.0,0.0,0.0,0.0,-5.5782,-5.5982,-5.6021,-5.6134,-5.63,0.0,0.0,0.0,0.0,0.0,0.0,0.0,0.0,0.0,0.0,0.0,0.0,0.0,0.0,0.0,0.0,0.0,0.0,0.0,0.0,0.0,0.0,0.0,0.0,0.0,0.0,0.0,0.0,0.0,0.0,0.0,0.0,0.0,0.0,0.0,0.0,0.0,0.0,0.0,0.0,0.0,0.0,0.0,0.0,0.0,0.0,0.0,0.0,0.0,0.0,0.0,0.0,0.0,0.0,0.0,0.0,0.0,0.0,0.0,0.0,0.0,0.0,0.0,0.0,0.0,0.0,0.0,0.0,0.0,0.0,0.0,0.0,0.0,0.0,0.0,0.0,0.0,0.0,0.0,0.0,0.0,0.0,0.0,0.0,0.0,0.0,0.0,0.0,0.0,0.0,0.0,0.0,0.0,0.0,0.0,0.0,0.0,0.0,0.0,0.0,0.0,0.0,0.0,0.0,0.0,0.0,0.0,0.0,0.0,0.0,0.0,0.0,-5.6346,-5.6492,-5.6733,0.0,0.0,0.0,0.0,0.0,0.0,0.0,0.0,0.0,0.0,0.0,0.0,0.0,0.0,0.0,0.0,0.0,0.0,0.0,0.0,0.0,0.0,0.0,0.0,0.0,0.0,0.0,0.0,0.0,0.0,0.0,0.0,0.0,0.0,0.0,0.0,0.0,0.0,0.0,0.0,0.0,0.0,0.0,0.0,0.0,0.0,0.0,0.0,0.0,0.0,0.0,0.0,0.0,0.0,0.0,0.0,0.0,0.0,0.0,0.0,0.0,0.0,0.0,0.0,0.0,0.0,0.0,0.0,0.0,0.0,0.0,0.0,0.0,0.0,0.0,0.0,0.0,0.0,0.0,0.0,0.0,0.0,0.0,0.0,0.0,0.0,0.0,0.0,0.0,0.0,0.0,0.0,0.0,0.0,0.0,0.0,0.0,0.0,0.0,0.0,0.0,0.0,0.0,0.0,0.0,0.0,0.0,0.0,0.0,0.0,-5.6328,-5.6373,-5.6724,0.0,-5.7156,0.0,0.0,0.0,0.0,0.0,0.0,0.0,0.0,0.0,0.0,0.0,0.0,0.0,0.0,0.0,0.0,0.0,0.0,0.0,0.0,0.0,0.0,0.0,0.0,0.0,0.0,0.0,0.0,0.0,0.0,0.0,0.0,0.0,0.0,0.0,0.0,0.0,0.0,0.0,0.0,0.0,0.0,0.0,0.0,0.0,0.0,0.0,0.0,0.0,0.0,0.0,0.0,0.0,0.0,0.0,0.0,0.0,0.0,0.0,0.0,0.0,0.0,0.0,0.0,0.0,0.0,0.0,0.0,0.0,0.0,0.0,0.0,0.0,0.0,0.0,0.0,0.0,0.0,0.0,0.0,0.0,0.0,0.0,0.0,0.0,0.0,0.0,0.0,0.0,0.0,0.0,0.0,0.0,0.0,0.0,0.0,0.0,0.0,0.0,0.0,0.0,0.0,0.0,0.0,0.0,0.0,0.0,0.0,0.0,0.0,-5.5901,-5.6145,-5.655,-5.6818,0.0,0.0,0.0,0.0,0.0,0.0,0.0,0.0,0.0,0.0,0.0,0.0,0.0,0.0,0.0,0.0,0.0,0.0,0.0,0.0,0.0,0.0,0.0,0.0,0.0,0.0,0.0,0.0,0.0,0.0,0.0,0.0,0.0,0.0,0.0,0.0,0.0,0.0,0.0,0.0,0.0,0.0,0.0,0.0,0.0,0.0,0.0,0.0,0.0,0.0,0.0,0.0,0.0,0.0,0.0,0.0,0.0,0.0,0.0,0.0,0.0,0.0,0.0,0.0,0.0,0.0,0.0,0.0,0.0,0.0,0.0,0.0,0.0,0.0,0.0,0.0,0.0,0.0,0.0,0.0,0.0,0.0,0.0,0.0,0.0,0.0,0.0,0.0,0.0,0.0,0.0,0.0,0.0,0.0,0.0,0.0,0.0,0.0,0.0,0.0,0.0,0.0,0.0,0.0,0.0,0.0,0.0,0.0,0.0,0.0,-5.5748,-5.5689,-5.591,-5.6447,-5.6808,-5.6938,0.0,0.0,0.0,0.0,0.0,0.0,0.0,0.0,0.0,0.0,0.0,0.0,0.0,0.0,0.0,0.0,0.0,0.0,0.0,0.0,0.0,0.0,0.0,0.0,0.0,0.0,0.0,0.0,0.0,0.0,0.0,0.0,0.0,0.0,0.0,0.0,0.0,0.0,0.0,0.0,0.0,0.0,0.0,0.0,0.0,0.0,0.0,0.0,0.0,0.0,0.0,0.0,0.0,0.0,0.0,0.0,0.0,0.0,0.0,0.0,0.0,0.0,0.0,0.0,0.0,0.0,0.0,0.0,0.0,0.0,0.0,0.0,0.0,0.0,0.0,0.0,0.0,0.0,0.0,0.0,0.0,0.0,0.0,0.0,0.0,0.0,0.0,0.0,0.0,0.0,0.0,0.0,0.0,0.0,0.0,0.0,0.0,0.0,0.0,0.0,0.0,0.0,0.0,0.0,0.0,0.0,0.0,0.0,-5.5312,-5.5728,-5.5843,-5.5654,-5.658,-5.714,0.0,0.0,0.0,0.0,0.0,0.0,0.0,0.0,0.0,0.0,0.0,0.0,0.0,0.0,0.0,0.0,0.0,0.0,0.0,0.0,0.0,0.0,0.0,0.0,0.0,0.0,0.0,0.0,0.0,0.0,0.0,0.0,0.0,0.0,0.0,0.0,0.0,0.0,0.0,0.0,0.0,0.0,0.0,0.0,0.0,0.0,0.0,0.0,0.0,0.0,0.0,0.0,0.0,0.0,0.0,0.0,0.0,0.0,0.0,0.0,0.0,0.0,0.0,0.0,0.0,0.0,0.0,0.0,0.0,0.0,0.0,0.0,0.0,0.0,0.0,0.0,0.0,0.0,0.0,0.0,0.0,0.0,0.0,0.0,0.0,0.0,0.0,0.0,0.0,0.0,0.0,0.0,0.0,0.0,0.0,0.0,0.0,0.0,0.0,0.0,0.0,0.0,0.0,0.0,0.0,0.0,0.0,0.0,0.0,-5.5618,-5.5692,-5.5548,-5.5281,-5.6605,-5.7433,0.0,0.0,0.0,0.0,0.0,0.0,0.0,0.0,0.0,0.0,0.0,0.0,0.0,0.0,0.0,0.0,0.0,0.0,0.0,0.0,0.0,0.0,0.0,0.0,0.0,0.0,0.0,0.0,0.0,0.0,0.0,0.0,0.0,0.0,0.0,0.0,0.0,0.0,0.0,0.0,0.0,0.0,0.0,0.0,0.0,0.0,0.0,0.0,0.0,0.0,0.0,0.0,0.0,0.0,0.0,0.0,0.0,0.0,0.0,0.0,0.0,0.0,0.0,0.0,0.0,0.0,0.0,0.0,0.0,0.0,0.0,0.0,0.0,0.0,0.0,0.0,0.0,0.0,0.0,0.0,0.0,0.0,0.0,0.0,0.0,0.0,0.0,0.0,0.0,0.0,0.0,0.0,0.0,0.0,0.0,0.0,0.0,0.0,0.0,0.0,0.0,0.0,0.0,0.0,0.0,0.0,0.0,0.0,0.0,-5.574,0.0,-5.5106,-5.4686,-5.6067,-5.7021,0.0,0.0,0.0,0.0,0.0,0.0,0.0,0.0,0.0,0.0,0.0,0.0,0.0,0.0,0.0,0.0,0.0,0.0,0.0,0.0,0.0,0.0,0.0,0.0,0.0,0.0,0.0,0.0,0.0,0.0,0.0,0.0,0.0,0.0,0.0,0.0,0.0,0.0,0.0,0.0,0.0,0.0,0.0,0.0,0.0,0.0,0.0,0.0,0.0,0.0,0.0,0.0,0.0,0.0,0.0,0.0,0.0,0.0,0.0,0.0,0.0,0.0,0.0,0.0,0.0,0.0,0.0,0.0,0.0,0.0,0.0,0.0,0.0,0.0,0.0,0.0,0.0,0.0,0.0,0.0,0.0,0.0,0.0,0.0,0.0,0.0,0.0,0.0,0.0,0.0,0.0,0.0,0.0,0.0,0.0,0.0,0.0,0.0,0.0,0.0,0.0,0.0,0.0,0.0,0.0,0.0,0.0,0.0,-5.6421,-5.5658,-5.5122,-5.4625,-5.3905,-5.5062,-5.5956,0.0,0.0,0.0,0.0,0.0,0.0,0.0,0.0,0.0,0.0,0.0,0.0,0.0,0.0,0.0,0.0,0.0,0.0,0.0,0.0,0.0,0.0,0.0,0.0,0.0,0.0,0.0,0.0,0.0,0.0,0.0,0.0,0.0,0.0,0.0,0.0,0.0,0.0,0.0,0.0,0.0,0.0,0.0,0.0,0.0,0.0,0.0,0.0,0.0,0.0,0.0,0.0,0.0,0.0,0.0,0.0,0.0,0.0,0.0,0.0,0.0,0.0,0.0,0.0,0.0,0.0,0.0,0.0,0.0,0.0,0.0,0.0,0.0,0.0,0.0,0.0,0.0,0.0,0.0,0.0,0.0,0.0,0.0,0.0,0.0,0.0,0.0,0.0,0.0,0.0,0.0,0.0,0.0,0.0,0.0,0.0,0.0,0.0,0.0,0.0,0.0,0.0,0.0,0.0,0.0,0.0,0.0,0.0,0.0,-5.6639,-5.6121,-5.5823,-5.5828,-5.6687,-5.7042,0.0,0.0,0.0,0.0,0.0,0.0,0.0,0.0,0.0,0.0,0.0,0.0,0.0,0.0,0.0,0.0,0.0,0.0,0.0,0.0,0.0,0.0,0.0,0.0,0.0,0.0,0.0,0.0,0.0,0.0,0.0,0.0,0.0,0.0,0.0,0.0,0.0,0.0,0.0,0.0,0.0,0.0,0.0,0.0,0.0,0.0,0.0,0.0,0.0,0.0,0.0,0.0,0.0,0.0,0.0,0.0,0.0,0.0,0.0,0.0,0.0,0.0,0.0,0.0,0.0,0.0,0.0,0.0,0.0,0.0,0.0,0.0,0.0,0.0,0.0,0.0,0.0,0.0,0.0,0.0,0.0,0.0,0.0,0.0,0.0,0.0,0.0,0.0,0.0,0.0,0.0,0.0,0.0,0.0,0.0,0.0,0.0,0.0,0.0,0.0,0.0,0.0,0.0,0.0,0.0,0.0,0.0,0.0,0.0,-5.818,-5.7327,-5.6797,-5.6705,-5.6911,-5.7003,-5.6906,0.0,0.0,0.0,0.0,0.0,0.0,0.0,0.0,0.0,0.0,0.0,0.0,0.0,0.0,0.0,0.0,0.0,0.0,0.0,0.0,0.0,0.0,0.0,0.0,0.0,0.0,0.0,0.0,0.0,0.0,0.0,0.0,0.0,0.0,0.0,0.0,0.0,0.0,0.0,0.0,0.0,0.0,0.0,0.0,0.0,0.0,0.0,0.0,0.0,0.0,0.0,0.0,0.0,0.0,0.0,0.0,0.0,0.0,0.0,0.0,0.0,0.0,0.0,0.0,0.0,0.0,0.0,0.0,0.0,0.0,0.0,0.0,0.0,0.0,0.0,0.0,0.0,0.0,0.0,0.0,0.0,0.0,0.0,0.0,0.0,0.0,0.0,0.0,0.0,0.0,0.0,0.0,0.0,0.0,0.0,0.0,0.0,0.0,0.0,0.0,0.0,0.0,0.0,0.0,0.0,0.0,0.0,0.0,-5.9944,-5.8646,-5.7622,-5.6874,-5.6177,-5.6062,0.0,0.0,0.0,0.0,0.0,0.0,0.0,0.0,0.0,0.0,0.0,0.0,0.0,0.0,0.0,0.0,0.0,0.0,0.0,0.0,0.0,0.0,0.0,0.0,0.0,0.0,0.0,0.0,0.0,0.0,0.0,0.0,0.0,0.0,0.0,0.0,0.0,0.0,0.0,0.0,0.0,0.0,0.0,0.0,0.0,0.0,0.0,0.0,0.0,0.0,0.0,0.0,0.0,0.0,0.0,0.0,0.0,0.0,0.0,0.0,0.0,0.0,0.0,0.0,0.0,0.0,0.0,0.0,0.0,0.0,0.0,0.0,0.0,0.0,0.0,0.0,0.0,0.0,0.0,0.0,0.0,0.0,0.0,0.0,0.0,0.0,0.0,0.0,0.0,0.0,0.0,0.0,0.0,0.0,0.0,0.0,0.0,0.0,0.0,0.0,0.0,0.0,0.0,0.0,0.0,0.0,0.0,0.0,0.0,-5.8422,-5.9249,-5.9364,-5.8634,-5.7864,-5.6963,0.0,0.0,0.0,0.0,0.0,0.0,0.0,0.0,0.0,0.0,0.0,0.0,0.0,0.0,0.0,0.0,0.0,0.0,0.0,0.0,0.0,0.0,0.0,0.0,0.0,0.0,0.0,0.0,0.0,0.0,0.0,0.0,0.0,0.0,0.0,0.0,0.0,0.0,0.0,0.0,0.0,0.0,0.0,0.0,0.0,0.0,0.0,0.0,0.0,0.0,0.0,0.0,0.0,0.0,0.0,0.0,0.0,0.0,0.0,0.0,0.0,0.0,0.0,0.0,0.0,0.0,0.0,0.0,0.0,0.0,0.0,0.0,0.0,0.0,0.0,0.0,0.0,0.0,0.0,0.0,0.0,0.0,0.0,0.0,0.0,0.0,0.0,0.0,0.0,0.0,0.0,0.0,0.0,0.0,0.0,0.0,0.0,0.0,0.0,0.0,0.0,0.0,0.0,0.0,0.0,0.0,0.0,0.0,-5.86,-5.9418,-6.0075,-6.0396,-6.0342,-5.8896,-5.747,0.0,0.0,0.0,0.0,0.0,0.0,0.0,0.0,0.0,0.0,0.0,0.0,0.0,0.0,0.0,0.0,0.0,0.0,0.0,0.0,0.0,0.0,0.0,0.0,0.0,0.0,0.0,0.0,0.0,0.0,0.0,0.0,0.0,0.0,0.0,0.0,0.0,0.0,0.0,0.0,0.0,0.0,0.0,0.0,0.0,0.0,0.0,0.0,0.0,0.0,0.0,0.0,0.0,0.0,0.0,0.0,0.0,0.0,0.0,0.0,0.0,0.0,0.0,0.0,0.0,0.0,0.0,0.0,0.0,0.0,0.0,0.0,0.0,0.0,0.0,0.0,0.0,0.0,0.0,0.0,0.0,0.0,0.0,0.0,0.0,0.0,0.0,0.0,0.0,0.0,0.0,0.0,0.0,0.0,0.0,0.0,0.0,0.0,0.0,0.0,0.0,0.0,0.0,0.0,0.0,0.0,0.0,0.0,-5.9013,-6.1482,-6.0994,-6.0996,-6.1581,-5.9534,-5.7901,0.0,0.0,0.0,0.0,0.0,0.0,0.0,0.0,0.0,0.0,0.0,0.0,0.0,0.0,0.0,0.0,0.0,0.0,0.0,0.0,0.0,0.0,0.0,0.0,0.0,0.0,0.0,0.0,0.0,0.0,0.0,0.0,0.0,0.0,0.0,0.0,0.0,0.0,0.0,0.0,0.0,0.0,0.0,0.0,0.0,0.0,0.0,0.0,0.0,0.0,0.0,0.0,0.0,0.0,0.0,0.0,0.0,0.0,0.0,0.0,0.0,0.0,0.0,0.0,0.0,0.0,0.0,0.0,0.0,0.0,0.0,0.0,0.0,0.0,0.0,0.0,0.0,0.0,0.0,0.0,0.0,0.0,0.0,0.0,0.0,0.0,0.0,0.0,0.0,0.0,0.0,0.0,0.0,0.0,0.0,0.0,0.0,0.0,0.0,0.0,0.0,0.0,0.0,0.0,0.0,0.0,0.0,0.0,-6.0013,-6.0675,-6.1878,-6.1993,-6.0905,-6.036,-5.9065,0.0,0.0,0.0,0.0,0.0,0.0,0.0,0.0,0.0,0.0,0.0,0.0,0.0,0.0,0.0,0.0,0.0,0.0,0.0,0.0,0.0,0.0,0.0,0.0,0.0,0.0,0.0,0.0,0.0,0.0,0.0,0.0,0.0,0.0,0.0,0.0,0.0,0.0,0.0,0.0,0.0,0.0,0.0,0.0,0.0,0.0,0.0,0.0,-5.5432,0.0,0.0,0.0,0.0,0.0,0.0,0.0,0.0,0.0,0.0,0.0,0.0,0.0,0.0,0.0,0.0,0.0,0.0,0.0,0.0,0.0,0.0,0.0,0.0,0.0,0.0,0.0,0.0,0.0,0.0,0.0,0.0,0.0,0.0,0.0,0.0,0.0,0.0,0.0,0.0,0.0,0.0,0.0,0.0,0.0,0.0,0.0,0.0,0.0,0.0,0.0,0.0,0.0,0.0,0.0,0.0,0.0,0.0,0.0,-6.0188,-6.1072,-6.2387,-6.2482,-6.1243,-6.1168,-5.9816,0.0,0.0,0.0,0.0,0.0,0.0,0.0,0.0,0.0,0.0,0.0,0.0,0.0,0.0,0.0,0.0,0.0,0.0,0.0,0.0,0.0,0.0,0.0,0.0,0.0,0.0,0.0,0.0,0.0,0.0,0.0,0.0,0.0,0.0,0.0,0.0,0.0,0.0,0.0,0.0,0.0,0.0,0.0,0.0,0.0,0.0,0.0,0.0,0.0,0.0,0.0,0.0,0.0,0.0,0.0,0.0,0.0,0.0,0.0,0.0,0.0,0.0,0.0,0.0,0.0,0.0,0.0,0.0,0.0,0.0,0.0,0.0,0.0,0.0,0.0,0.0,0.0,0.0,0.0,0.0,0.0,0.0,0.0,0.0,0.0,0.0,0.0,0.0,0.0,0.0,0.0,0.0,0.0,0.0,0.0,0.0,0.0,0.0,0.0,0.0,0.0,0.0,0.0,0.0,0.0,0.0,0.0,-5.8932,-6.0303,-6.175,-6.2763,-6.2801,-6.1825,-6.1787,-6.0248,-5.7037,0.0,0.0,0.0,0.0,0.0,0.0,0.0,0.0,0.0,0.0,0.0,0.0,0.0,0.0,0.0,0.0,0.0,0.0,0.0,0.0,0.0,0.0,0.0,0.0,0.0,0.0,0.0,0.0,0.0,0.0,0.0,0.0,0.0,0.0,0.0,0.0,0.0,0.0,-5.6177,-5.6302,0.0,0.0,0.0,0.0,0.0,0.0,0.0,0.0,-5.841,0.0,0.0,0.0,0.0,0.0,0.0,0.0,0.0,0.0,0.0,0.0,0.0,0.0,0.0,0.0,0.0,0.0,0.0,0.0,0.0,0.0,0.0,0.0,0.0,0.0,0.0,0.0,0.0,0.0,0.0,0.0,0.0,0.0,0.0,0.0,0.0,0.0,0.0,0.0,0.0,0.0,0.0,0.0,0.0,0.0,0.0,0.0,0.0,0.0,0.0,0.0,0.0,0.0,0.0,0.0,0.0,-5.7847,-6.0132,-6.1446,-6.1806,-6.3289,-6.3364,-6.1881,-6.1787,-6.0248,-5.7056,0.0,0.0,0.0,0.0,0.0,0.0,0.0,0.0,0.0,0.0,0.0,0.0,0.0,0.0,0.0,0.0,0.0,0.0,0.0,0.0,0.0,0.0,0.0,0.0,0.0,0.0,0.0,0.0,0.0,0.0,0.0,0.0,0.0,0.0,0.0,0.0,0.0,0.0,0.0,-5.7714,-5.812,0.0,0.0,0.0,0.0,0.0,0.0,0.0,0.0,-6.0151,0.0,0.0,0.0,0.0,0.0,0.0,0.0,0.0,0.0,0.0,0.0,0.0,0.0,0.0,0.0,0.0,0.0,0.0,0.0,0.0,0.0,0.0,0.0,0.0,0.0,0.0,0.0,0.0,0.0,0.0,0.0,0.0,0.0,0.0,0.0,0.0,0.0,0.0,0.0,0.0,0.0,0.0,0.0,0.0,0.0,0.0,0.0,0.0,0.0,0.0,0.0,0.0,0.0,0.0,0.0,-5.8578,-6.0659,-6.1992,-6.2482,-6.3665,-6.3516,-6.1881,-6.1787,-6.0285,0.0,0.0,0.0,0.0,0.0,0.0,0.0,0.0,0.0,0.0,0.0,0.0,0.0,0.0,0.0,0.0,0.0,0.0,0.0,0.0,0.0,0.0,0.0,0.0,0.0,0.0,0.0,0.0,0.0,0.0,0.0,0.0,0.0,0.0,0.0,0.0,0.0,0.0,0.0,0.0,-5.8043,-5.8584,-5.8584,0.0,0.0,0.0,0.0,0.0,0.0,-6.0847,-6.0673,0.0,0.0,0.0,0.0,0.0,0.0,0.0,0.0,0.0,0.0,0.0,0.0,0.0,0.0,0.0,0.0,0.0,0.0,0.0,0.0,0.0,0.0,0.0,0.0,0.0,0.0,0.0,0.0,0.0,0.0,0.0,0.0,0.0,0.0,0.0,0.0,0.0,0.0,0.0,0.0,0.0,0.0,0.0,0.0,0.0,0.0,0.0,0.0,0.0,0.0,0.0,0.0,0.0,0.0,0.0,-5.9215,-6.1092,-6.2388,-6.3101,-6.389,-6.3496,-6.1862,-6.1787,-6.0304,0.0,0.0,0.0,0.0,0.0,0.0,0.0,0.0,0.0,0.0,0.0,0.0,0.0,0.0,0.0,0.0,0.0,0.0,0.0,0.0,0.0,0.0,0.0,0.0,0.0,0.0,0.0,0.0,0.0,0.0,0.0,0.0,0.0,0.0,0.0,0.0,0.0,0.0,0.0,0.0,0.0,-5.8913,-5.9087,-5.9861,0.0,0.0,0.0,0.0,-6.1292,-6.1369,0.0,0.0,0.0,0.0,0.0,0.0,0.0,0.0,0.0,0.0,0.0,0.0,0.0,0.0,0.0,0.0,0.0,0.0,0.0,0.0,0.0,0.0,0.0,0.0,0.0,0.0,0.0,0.0,0.0,0.0,0.0,0.0,0.0,0.0,0.0,0.0,0.0,0.0,0.0,0.0,0.0,0.0,0.0,0.0,0.0,0.0,0.0,0.0,0.0,0.0,0.0,0.0,0.0,0.0,0.0,0.0,-5.9347,-6.1693,-6.2989,-6.3139,-6.3871,-6.3496,-6.1844,-6.1787,-6.0285,0.0,0.0,0.0,0.0,0.0,0.0,0.0,0.0,0.0,0.0,0.0,0.0,0.0,0.0,0.0,0.0,0.0,0.0,0.0,0.0,0.0,0.0,0.0,0.0,0.0,0.0,0.0,0.0,0.0,0.0,0.0,0.0,0.0,0.0,0.0,0.0,0.0,0.0,0.0,0.0,0.0,-5.9996,-6.0712,-6.1563,-6.2066,0.0,0.0,-6.2994,-6.2375,-6.224,0.0,0.0,0.0,0.0,0.0,0.0,0.0,0.0,0.0,0.0,0.0,0.0,0.0,0.0,0.0,0.0,0.0,0.0,0.0,0.0,0.0,0.0,0.0,0.0,0.0,0.0,0.0,0.0,0.0,0.0,0.0,0.0,0.0,0.0,0.0,0.0,0.0,0.0,0.0,0.0,0.0,0.0,0.0,0.0,0.0,0.0,0.0,0.0,0.0,0.0,0.0,0.0,0.0,0.0,0.0,-5.8897,-6.0698,-6.2294,-6.3327,-6.3759,-6.4135,-6.3496,-6.1844,-6.1787,-6.0322,0.0,0.0,0.0,0.0,0.0,0.0,0.0,0.0,0.0,0.0,0.0,0.0,0.0,0.0,0.0,0.0,0.0,0.0,0.0,0.0,0.0,0.0,0.0,0.0,0.0,0.0,0.0,0.0,0.0,0.0,0.0,0.0,0.0,0.0,0.0,0.0,0.0,0.0,0.0,0.0,0.0,0.0,-6.1601,-6.2162,0.0,0.0,0.0,-6.3565,-6.3187,0.0,0.0,0.0,0.0,0.0,0.0,0.0,0.0,0.0,0.0,0.0,0.0,0.0,0.0,0.0,0.0,0.0,0.0,0.0,0.0,0.0,0.0,0.0,0.0,0.0,0.0,0.0,0.0,0.0,0.0,0.0,0.0,0.0,0.0,0.0,0.0,0.0,0.0,0.0,0.0,0.0,0.0,0.0,0.0,0.0,0.0,0.0,0.0,0.0,0.0,0.0,0.0,0.0,0.0,0.0,0.0,0.0,-6.175,-6.2857,-6.3702,-6.4265,-6.4284,-6.3628,-6.2201,-6.1938,0.0,0.0,0.0,0.0,0.0,0.0,0.0,0.0,0.0,0.0,0.0,0.0,0.0,0.0,0.0,0.0,0.0,0.0,0.0,0.0,0.0,0.0,0.0,0.0,0.0,0.0,0.0,-5.6997,0.0,0.0,0.0,0.0,0.0,0.0,0.0,0.0,0.0,0.0,0.0,0.0,0.0,0.0,-5.9764,-6.2085,-6.2588,-6.3033,0.0,0.0,-6.4184,-6.3758,-6.3149,-6.2336,0.0,0.0,0.0,0.0,0.0,0.0,0.0,0.0,0.0,0.0,0.0,0.0,0.0,0.0,0.0,0.0,0.0,0.0,0.0,0.0,0.0,0.0,0.0,0.0,0.0,0.0,0.0,0.0,0.0,0.0,0.0,0.0,0.0,0.0,0.0,0.0,0.0,0.0,0.0,0.0,0.0,0.0,0.0,0.0,0.0,0.0,0.0,0.0,0.0,0.0,0.0,0.0,0.0,0.0,0.0,-6.1768,-6.3383,-6.4247,-6.4303,-6.4284,-6.3912,-6.3125,-6.2353,-6.0864,0.0,0.0,0.0,0.0,0.0,0.0,0.0,0.0,0.0,0.0,0.0,0.0,0.0,0.0,0.0,0.0,0.0,0.0,0.0,0.0,0.0,0.0,0.0,0.0,0.0,0.0,0.0,0.0,0.0,0.0,0.0,0.0,0.0,0.0,0.0,0.0,0.0,0.0,0.0,0.0,0.0,-6.0441,-6.2162,-6.3091,-6.3932,0.0,0.0,-6.5489,-6.3932,-6.3661,-6.3042,-6.1389,0.0,0.0,0.0,0.0,0.0,0.0,0.0,0.0,0.0,0.0,0.0,0.0,0.0,0.0,0.0,0.0,0.0,0.0,0.0,0.0,0.0,0.0,0.0,0.0,0.0,0.0,0.0,0.0,0.0,0.0,0.0,0.0,0.0,0.0,0.0,0.0,0.0,0.0,0.0,0.0,0.0,0.0,0.0,0.0,0.0,0.0,0.0,0.0,0.0,0.0,0.0,0.0,0.0,-6.0379,-6.2576,-6.4209,-6.5035,-6.5054,-6.5542,-6.5246,-6.3972,-6.3163,-6.1674,0.0,0.0,0.0,0.0,0.0,0.0,0.0,0.0,0.0,0.0,0.0,0.0,0.0,0.0,0.0,0.0,0.0,0.0,0.0,0.0,0.0,0.0,0.0,0.0,0.0,0.0,0.0,0.0,-6.0157,-6.0217,-5.9533,0.0,0.0,0.0,0.0,0.0,0.0,0.0,0.0,0.0,0.0,-6.1273,-6.2955,-6.3942,0.0,0.0,-6.6011,-6.5799,-6.4687,-6.4513,-6.3922,-6.2182,-6.0925,0.0,0.0,0.0,0.0,0.0,0.0,0.0,0.0,0.0,0.0,0.0,0.0,0.0,0.0,0.0,0.0,0.0,0.0,0.0,0.0,0.0,0.0,0.0,0.0,0.0,0.0,0.0,0.0,0.0,0.0,0.0,0.0,0.0,0.0,0.0,0.0,0.0,0.0,0.0,0.0,0.0,0.0,0.0,0.0,0.0,0.0,0.0,0.0,0.0,0.0,0.0,0.0,-6.0417,-6.3421,-6.4566,-6.5373,-6.588,-6.6503,-6.6321,-6.5254,-6.4464,-6.2972,0.0,0.0,0.0,0.0,0.0,0.0,0.0,0.0,0.0,0.0,0.0,0.0,0.0,0.0,0.0,0.0,0.0,0.0,0.0,0.0,0.0,0.0,0.0,0.0,0.0,0.0,0.0,0.0,-6.0672,-6.0268,-5.8346,0.0,0.0,0.0,0.0,0.0,0.0,0.0,0.0,0.0,0.0,-6.2027,-6.3507,-6.4435,-6.5296,-6.6069,-6.5992,-6.5547,-6.4725,-6.4406,-6.3729,-6.224,0.0,0.0,0.0,0.0,0.0,0.0,0.0,0.0,0.0,0.0,0.0,0.0,0.0,0.0,0.0,0.0,0.0,0.0,0.0,0.0,0.0,0.0,0.0,0.0,0.0,0.0,0.0,0.0,0.0,0.0,-5.2921,0.0,0.0,0.0,0.0,0.0,0.0,0.0,0.0,0.0,0.0,0.0,0.0,0.0,0.0,0.0,0.0,0.0,0.0,0.0,0.0,0.0,0.0,-6.0191,-6.419,-6.4379,-6.5168,-6.6708,-6.6886,-6.6969,-6.7011,-6.6389,-6.4922,-6.2482,0.0,0.0,0.0,0.0,0.0,0.0,0.0,0.0,0.0,0.0,0.0,0.0,0.0,0.0,0.0,0.0,0.0,0.0,0.0,0.0,0.0,0.0,0.0,0.0,0.0,0.0,-6.0828,-6.1061,-6.0064,0.0,0.0,0.0,0.0,0.0,0.0,0.0,0.0,0.0,0.0,-6.1331,-6.2704,-6.3584,-6.4454,-6.5276,-6.6069,-6.5508,-6.4725,-6.3913,-6.3071,-6.2162,0.0,0.0,0.0,0.0,0.0,0.0,0.0,0.0,0.0,0.0,0.0,0.0,0.0,0.0,0.0,0.0,0.0,0.0,0.0,0.0,0.0,0.0,0.0,0.0,0.0,0.0,0.0,-5.3297,-5.3492,0.0,0.0,0.0,0.0,0.0,0.0,0.0,0.0,0.0,0.0,0.0,-6.0296,-5.9793,0.0,0.0,0.0,0.0,0.0,0.0,0.0,0.0,0.0,0.0,0.0,0.0,-6.1524,-6.4941,-6.5675,-6.6522,-6.7714,-6.8263,-6.8405,-6.8092,-6.7353,-6.5637,-6.2872,0.0,0.0,0.0,0.0,0.0,0.0,0.0,0.0,0.0,0.0,0.0,0.0,0.0,0.0,0.0,0.0,0.0,0.0,0.0,0.0,0.0,0.0,0.0,0.0,0.0,-5.9668,0.0,0.0,0.0,0.0,0.0,0.0,0.0,0.0,0.0,0.0,0.0,-6.0692,-6.0692,-6.2685,-6.4019,-6.3758,-6.4454,-6.5102,0.0,0.0,0.0,0.0,0.0,0.0,0.0,0.0,0.0,0.0,0.0,0.0,0.0,0.0,-5.9417,-5.8484,-5.8289,-5.8286,-5.8258,0.0,0.0,0.0,0.0,0.0,0.0,0.0,0.0,0.0,0.0,0.0,0.0,0.0,0.0,0.0,0.0,-5.5,0.0,0.0,0.0,0.0,0.0,0.0,0.0,0.0,-6.1248,-6.2096,-6.2177,-6.1933,-6.186,0.0,-6.083,-6.0604,0.0,0.0,0.0,0.0,0.0,0.0,0.0,0.0,-6.2651,-6.5805,-6.6522,-6.743,-6.8564,-6.9234,-6.9414,-6.9058,-6.8105,-6.6826,-6.5245,-6.3896,-6.2458,0.0,0.0,0.0,0.0,0.0,0.0,0.0,0.0,0.0,0.0,0.0,0.0,0.0,0.0,0.0,0.0,0.0,0.0,0.0,0.0,0.0,0.0,0.0,-6.0093,0.0,0.0,0.0,0.0,0.0,0.0,0.0,0.0,0.0,-5.8275,-6.0151,-6.1563,-6.1563,-6.3536,-6.4783,-6.4222,0.0,0.0,0.0,0.0,0.0,0.0,0.0,-6.37,-6.37,-6.37,-6.3507,-6.2955,-6.195,-6.1379,-6.1853,0.0,0.0,-6.032,-6.0126,-6.0115,-6.011,-6.0065,-6.0042,-6.0042,-6.0,-5.9988,0.0,0.0,0.0,0.0,0.0,0.0,0.0,0.0,-5.699,-5.7256,0.0,-5.8272,0.0,0.0,0.0,0.0,0.0,-5.9901,0.0,0.0,-6.3898,-6.5459,-6.5505,-6.6218,-6.6708,-6.6765,-6.6558,-6.6558,-6.6349,-6.1825,0.0,0.0,0.0,0.0,0.0,0.0,-6.3497,-6.6652,-6.6886,-6.7757,-6.934,-6.9737,-6.991,-6.9872,-6.8689,-6.8441,-6.9236,-6.5647,-6.3498,-6.3357,-6.1887,0.0,0.0,0.0,0.0,0.0,0.0,0.0,0.0,0.0,0.0,0.0,0.0,0.0,0.0,0.0,0.0,0.0,0.0,0.0,0.0,-6.0634,0.0,0.0,0.0,0.0,0.0,0.0,0.0,0.0,0.0,0.0,-5.9977,-6.1408,-6.2453,-6.2491,0.0,0.0,0.0,0.0,-6.6147,-6.6127,-6.547,-6.4948,-6.5015,-6.4271,-6.3719,-6.3758,0.0,0.0,-6.3739,-6.3739,-6.3681,-6.3719,-6.369,-6.3699,-6.3557,-6.3362,-6.3342,-6.3351,-6.3274,-6.3447,-6.3447,-6.3128,-6.3205,-5.6415,0.0,0.0,0.0,0.0,-5.7354,-5.7874,-5.8172,-5.7797,-5.7709,-5.7765,-5.7133,0.0,0.0,0.0,0.0,0.0,0.0,-6.4411,-6.4131,-6.567,-6.6085,-6.5523,-6.5749,-6.5861,-6.5861,-6.5261,-6.5317,-6.5786,-6.4434,-6.3665,-6.3552,0.0,0.0,0.0,0.0,-6.4704,-6.6775,-6.7534,-6.8503,-6.9737,-6.991,-7.0093,-7.0334,-7.0099,-6.9572,-6.8742,-6.8206,-6.656,-6.3692,-6.3106,0.0,0.0,0.0,0.0,0.0,0.0,0.0,0.0,0.0,0.0,0.0,0.0,0.0,0.0,0.0,0.0,0.0,0.0,0.0,-6.0634,-6.0963,-6.0673,0.0,0.0,0.0,0.0,0.0,0.0,0.0,0.0,0.0,-6.1601,-6.2646,-6.3555,0.0,0.0,-6.5644,-6.5073,-6.518,-6.5334,-6.5354,-6.4609,0.0,0.0,-6.428,-6.3913,-6.4532,-6.5102,-6.5296,-6.4725,-6.4629,-6.4648,-6.4619,-6.4629,-6.4793,-6.5246,-6.4374,-6.3636,-6.3508,-6.3516,-6.3516,-6.3516,-6.3516,-6.3535,-5.8527,-5.78,-5.8424,-5.8499,-5.8244,-5.893,-5.9194,-5.9129,-5.9615,-5.9555,-5.9087,-5.9411,-5.9491,-5.9365,-5.9438,0.0,0.0,0.0,-6.6055,-6.6049,-6.6894,-6.7157,-6.6988,-6.6969,-6.6969,-6.695,-6.6481,-6.6481,-6.6988,-6.6988,-6.6556,-6.5767,0.0,0.0,-6.4646,-6.5458,-6.6441,-6.7519,-6.8467,-6.9285,-6.9966,-7.0128,-7.0331,-7.0605,-7.0772,-7.039,-6.9476,-6.9392,-6.805,-6.5222,-6.4481,-6.3003,0.0,0.0,0.0,0.0,0.0,0.0,0.0,0.0,0.0,0.0,0.0,-5.431,-5.5683,0.0,0.0,0.0,-6.0383,-6.163,-6.2085,-6.1834,0.0,0.0,0.0,0.0,0.0,0.0,0.0,-6.0325,-6.1408,-6.2453,-6.3323,-6.3884,-6.4416,-6.4928,-6.5682,-6.6031,-6.5547,0.0,-6.547,-6.547,-6.5025,-6.488,-6.5392,-6.5044,-6.487,-6.5373,-6.5857,-6.6031,-6.5586,-6.547,-6.547,-6.547,-6.547,-6.5624,-6.6108,-6.5304,-6.4626,-6.4576,-6.4584,-6.4565,-6.4565,-6.4584,-6.4565,-6.0103,-6.0128,-5.9288,-5.9048,-5.9261,-5.997,-5.9983,-5.9708,-6.1929,-6.2157,-6.1073,-6.3671,-6.4593,-6.4217,-6.5094,0.0,-6.549,-6.5687,-6.6256,-6.7027,-6.7758,-6.849,-6.9181,-6.9163,-6.9181,-6.9163,-6.9181,-6.9163,-6.9069,-6.905,-6.8696,-6.7908,-6.7213,-6.69,-6.6927,-6.7776,-6.833,-6.8527,-6.9437,-7.0022,-7.0125,-7.0397,-7.062,-7.0801,-7.0871,-7.0939,-7.096,-6.9644,-6.8478,-6.7531,-6.6019,-6.4,-6.1505,0.0,0.0,0.0,0.0,0.0,0.0,0.0,0.0,0.0,0.0,0.0,0.0,0.0,0.0,0.0,-6.2762,0.0,-6.37,-6.2975,0.0,0.0,0.0,-5.988,-5.9087,-6.0364,-6.1311,-6.1292,0.0,0.0,-6.4899,-6.5054,-6.5083,-6.5093,-6.574,-6.6205,-6.6205,-6.6166,-6.6205,-6.6147,-6.6166,-6.6166,-6.6108,-6.6069,-6.605,-6.6108,-6.6205,-6.6185,-6.6147,-6.6147,-6.6185,-6.6147,-6.6185,-6.6185,-6.6185,-6.6127,-6.6185,-6.6108,-6.6127,-6.6147,-6.6059,-6.604,-6.602,-6.0984,-6.1006,-6.1045,-6.1047,-6.0991,-6.1284,-6.173,-6.2248,-6.2449,-6.2763,-6.315,-6.3474,-6.3733,-6.3985,-6.5474,-6.6207,-6.6371,-6.7607,-6.8347,-6.8618,-6.8825,-6.9013,-6.9181,-6.9181,-6.9181,-6.9181,-6.9181,-6.8881,-6.8302,-6.8283,-6.787,-6.714,-6.7495,-6.7445,-6.6966,-6.7936,-6.8489,-6.8565,-6.9639,-7.0338,-7.0528,-7.065,-7.0801,-7.0952,-7.0965,-7.1043,-7.1135,-7.0823,-6.993,-6.8543,-6.7471,-6.576,-6.3216,-6.1814,0.0,0.0,0.0,0.0,0.0,0.0,0.0,0.0,0.0,-5.7183,-5.9977,0.0,-6.1447,0.0,-6.3468,-6.37,-6.37,-6.3526,0.0,0.0,-6.2926,-6.2714,-6.252,-6.2849,-6.3081,-6.3071,-6.4048,-6.4773,-6.4967,-6.5528,-6.5915,-6.5915,-6.6069,-6.6205,-6.6205,-6.6205,-6.6205,-6.6205,-6.6205,-6.6205,-6.6205,-6.6205,-6.6205,-6.6205,-6.6205,-6.6205,-6.6205,-6.6205,-6.6205,-6.6205,-6.6205,-6.6205,-6.6205,-6.6205,-6.6205,-6.6205,-6.6205,-6.6205,-6.6205,-6.6205,-6.6205,-6.1426,-6.1662,-6.2191,-6.2475,-6.2549,-6.2595,-6.293,-6.3529,-6.4077,-6.445,-6.4749,-6.5401,-6.5858,-6.6175,-6.7183,-6.766,-6.7841,-6.8682,-6.9116,-6.9181,-6.9181,-6.9181,-6.9181,-6.9181,-6.9181,-6.9181,-6.8846,-6.8452,-6.8002,-6.7626,-6.7232,-6.6821,-6.767,-6.7943,-6.7651,-6.8544,-6.9134,-6.9373,-7.014,-7.0609,-7.0791,-7.0857,-7.0939,-7.1043,-7.0683,-7.0551,-7.0622,-7.0316,-6.9557,-6.8283,-6.7752,-6.6688,-6.4909,-6.3555,-6.2278,0.0,0.0,0.0,0.0,0.0,0.0,0.0,0.0,0.0,0.0,0.0,-6.371,-6.5779,-6.5973,-6.5973,-6.5953,-6.5624,-6.5373,-6.5373,-6.5044,-6.4812,-6.4812,-6.5141,-6.5392,-6.5392,-6.6147,-6.6688,-6.6708,-6.7075,-6.7365,-6.7365,-6.7365,-6.7075,-6.6359,-6.6205,-6.6205,-6.6205,-6.6205,-6.6205,-6.6205,-6.6205,-6.6205,-6.6205,-6.6205,-6.6205,-6.6205,-6.6205,-6.6205,-6.6205,-6.6205,-6.6205,-6.6205,-6.6205,-6.6205,-6.6205,-6.6205,-6.6205,-6.6205,-6.6205,-6.6205,-6.1708,-6.2259,-6.2985,-6.3629,-6.4189,-6.4111,-6.4174,-6.4398,-6.6065,-6.6544,-6.6253,-6.8036,-6.89,-6.9027,-6.9138,-6.9181,-6.9181,-6.9181,-6.9181,-6.9181,-6.9181,-6.9181,-6.9181,-6.9181,-6.9144,-6.9013,-6.834,-6.7889,-6.7664,-6.6969,-6.6596,-6.6541,-6.7432,-6.8046,-6.8395,-6.9209,-6.9852,-7.0353,-7.0654,-7.0843,-7.0912,-7.0979,-7.1043,-7.1067,-7.0317,-6.9907,-6.9899,-6.919,-6.8448,-6.7713,-6.7675,-6.7268,-6.6398,-6.5702,-6.4541,0.0,-6.2027,0.0,0.0,0.0,0.0,0.0,0.0,0.0,0.0,-6.398,-6.6398,-6.8622,-6.8796,-6.8796,-6.8796,-6.8119,-6.7655,-6.7655,-6.6998,-6.6533,-6.6572,-6.721,-6.7675,-6.7675,-6.8352,-6.8796,-6.87,-6.8796,-6.8777,-6.868,-6.8642,-6.8158,-6.692,-6.665,-6.6669,-6.6533,-6.6533,-6.6746,-6.6708,-6.6611,-6.663,-6.6592,-6.6495,-6.6379,-6.6417,-6.6282,-6.6205,-6.6205,-6.6205,-6.6205,-6.6205,-6.6205,-6.6205,-6.6205,-6.6205,-6.6205,-6.6205,-6.6205,-6.6205,-6.2349,-6.3148,-6.3641,-6.4776,-6.6339,-6.6531,-6.6488,-6.6376,-6.7059,-6.7729,-6.8379,-6.8769,-6.9031,-6.916,-6.9181,-6.9181,-6.9181,-6.9181,-6.9181,-6.9181,-6.9181,-6.9181,-6.9181,-6.9181,-6.8862,-6.8246,-6.8077,-6.7288,-6.5974,-6.5824,-6.5433,-6.4893,-6.5721,-6.6653,-6.7599,0.0,0.0,0.0,-7.0796,-7.0912,-7.0979,-7.1043,-7.1118,-7.1151,-7.0359,0.0,-6.9935,-6.9211,-6.8738,-6.8564,-6.8545,0.0,0.0,0.0,0.0,0.0,0.0,0.0,0.0,0.0,0.0,0.0,-6.4619,-6.4793,-6.4367,-6.6611,-6.8294,-6.8758,-6.8796,-6.8796,-6.8796,-6.8661,-6.8564,-6.8545,-6.841,-6.8313,-6.8313,-6.8468,-6.8545,-6.8564,-6.8719,-6.8816,-6.8874,-6.8796,-6.8835,-6.8893,-6.8796,-6.8661,-6.839,-6.8255,-6.8294,-6.8313,-6.8158,-6.8255,-6.8313,-6.8255,-6.8139,-6.8236,-6.7675,-6.7307,-6.721,-6.6688,-6.6243,-6.6263,-6.6205,-6.6243,-6.6224,-6.6205,-6.6243,-6.6205,-6.6205,-6.6205,-6.6205,-6.6205,-6.6205,-6.3164,0.0,-6.4956,-6.6087,0.0,-6.7765,-6.8003,-6.7956,-6.8111,-6.8491,-6.8986,-6.9072,-6.9138,-6.9181,-6.9181,-6.9181,-6.9181,-6.9181,-6.9181,-6.9181,-6.9181,-6.9181,-6.9181,-6.8787,-6.8396,-6.7983,-6.7176,-6.6349,-6.5505,-6.5132,-6.4779,-6.4424,-6.5407,-6.6446,-6.7514,-6.9058,-7.0168,-7.0843,-7.0912,-7.0985,-7.1106,-7.1142,-7.119,-7.1228,0.0,0.0,0.0,0.0,0.0,0.0,0.0,0.0,0.0,0.0,0.0,-6.694,-6.6456,-6.5857,-6.5025,-6.5354,-6.5586,-6.5605,-6.6766,-6.7307,-6.6901,-6.8429,-6.957,-6.9996,-7.0034,-7.0034,-7.0034,-7.0034,-7.0034,-7.0054,-7.0034,-7.0034,-7.0034,-7.0034,-7.0034,-7.0034,-7.0034,-7.0034,-7.0015,-7.0015,-7.0034,-7.0034,-7.0034,-6.9996,-6.9938,-6.9319,-6.8796,-6.8796,-6.8796,-6.8796,-6.8796,-6.8796,-6.8816,-6.8719,-6.8448,-6.8177,-6.8158,-6.7791,-6.7481,-6.7481,-6.7501,-6.7384,-6.692,-6.6843,-6.6708,-6.6321,-6.6205,-6.6205,-6.6205,-6.6205,-6.6205,-6.4042,-6.4676,-6.6297,-6.7234,-6.7663,-6.8483,-6.89,-6.9009,0.0,0.0,0.0,-6.916,-6.9181,-6.9181,-6.9181,-6.9181,-6.9181,-6.9181,-6.9181,-6.9181,-6.9031,-6.8975,-6.8937,-6.8171,-6.7701,-6.7495,-6.6182,-6.545,-6.5281,-6.4686,-6.4444,-6.4577,-6.5425,-6.6491,-6.7717,-6.9743,-7.0843,-7.0939,-7.0992,-7.1062,-7.1201,-7.1193,-7.1247,-7.1291,-7.044,-7.0006,-7.0006,-6.9222,-6.8796,-6.8816,-6.957,-7.0006,-7.0006,-7.0131,-6.9879,-6.9067,-6.8332,-6.7578,-6.6746,-6.6804,-6.694,-6.7094,-6.8429,-6.9241,-6.9241,-6.9841,-7.0518,-7.1233,-7.1291,-7.1291,-7.1291,-7.1291,-7.1291,-7.1291,-7.1291,-7.1272,-7.1272,-7.1291,-7.1214,-7.1291,-7.1214,-7.1272,-7.1214,-7.1214,-7.1291,-7.1272,-7.1156,-7.1291,-7.1137,-7.015,-6.9396,-6.9415,-6.9473,-6.9338,-6.928,-6.9338,-6.9241,-6.9377,-6.9183,-6.9009,-6.9009,-6.8893,-6.8796,-6.8642,-6.8777,-6.8468,-6.7907,-6.7733,-6.7423,-6.6611,-6.6417,-6.6379,-6.6243,-6.6205,-6.6205,-6.5127,-6.6704,-6.7091,-6.7836,-6.8769,-6.8926,-6.905,-6.916,-6.9157,-6.9157,-6.916,-6.9181,-6.9181,-6.9181,-6.9181,-6.9181,-6.9181,-6.9181,-6.9181,0.0,-6.8509,-6.8171,-6.8114,-6.7366,-6.6575,-6.588,-6.5719,-6.5289,-6.463,-6.4577,-6.4652,-6.4836,-6.5003,-6.6062,-6.794,-6.9836,-7.0885,-7.1068,-7.1081,-7.113,-7.1201,-7.1258,-7.128,-7.1253,-7.046,-7.0006,-7.0006,-6.9241,-6.8796,-6.8816,-6.957,-7.0006,-7.0026,-7.0703,-7.0731,-6.9918,-6.9725,-6.928,-6.8526,-6.9067,-6.9783,-7.0518,-7.0808,-7.0943,-7.0943,-7.104,-7.1156,-7.1291,-7.1291,-7.1291,-7.1291,-7.1291,-7.1291,-7.1291,-7.1291,-7.1291,-7.1291,-7.1291,-7.1291,-7.1291,-7.1291,-7.1291,-7.1291,-7.1291,-7.1291,-7.1291,-7.1291,-7.1291,-7.1253,-7.1117,-7.0943,-7.0943,-7.0943,-7.0943,-7.075,-7.0905,-7.0808,-7.0943,-7.0247,-6.9841,-6.9841,-6.9377,-6.9028,-6.8854,-6.897,-6.8824,-6.8603,-6.8622,-6.8139,-6.7365,-6.7094,-6.6959,-6.634,-6.6205,-6.6205,-6.6431,-6.7346,-6.798,-6.8514,-6.9005,-6.9072,-6.9138,-6.9181,-6.9181,-6.9181,-6.9181,-6.9181,-6.9181,-6.9181,-6.9181,-6.9181,-6.9163,-6.8771,-6.8546,-6.8509,-6.772,-6.7344,-6.729,-6.6562,-6.602,-6.5587,-6.5254,-6.4916,-6.4615,-6.4689,-6.4834,-6.5082,-6.6118,-6.7198,-6.8211,-6.9997,-7.0979,-7.1093,-7.1106,-7.1154,-7.1247,-7.13,-7.1291,-7.1291,-7.0885,-7.0692,-7.0692,-7.0363,-7.017,-7.017,-7.0498,-7.0692,-7.0711,-7.1079,-7.1117,-7.0731,-7.0692,-7.0556,-7.017,-7.0498,-7.0885,-7.1272,-7.1291,-7.1291,-7.1291,-7.1291,-7.1291,-7.1291,-7.1291,-7.1291,-7.1291,-7.1291,-7.1291,-7.1291,-7.1291,-7.1291,-7.1291,-7.1291,-7.1291,-7.1291,-7.1291,-7.1291,-7.1291,-7.1291,-7.1291,-7.1291,-7.1291,-7.1291,-7.1291,-7.1291,-7.1291,-7.1291,-7.1291,-7.1291,-7.1291,-7.1291,-7.1291,-7.1291,-7.0982,-7.0731,-7.0692,-7.0305,-7.017,-7.015,-7.0131,-6.9763,-6.9067,-6.8796,-6.8236,-6.7094,-6.6785,-6.6572,-6.6282,-6.6205,-6.6205,-6.7556,-6.7919,-6.8676,-6.9009,-6.9031,-6.916,-6.9088,-6.8959,-6.8922,-6.8828,-6.8696,-6.8846,-6.8919,-6.89,-6.8771,-6.8659,-6.8584,-6.802,-6.7739,-6.7645,-6.6875,-6.652,-6.6468,-6.5758,-6.5403,-6.5424,-6.4917,-6.4708,-6.476,-6.4905,-6.5059,-6.5369,-6.7021,-6.8056,-6.8369,-6.9919,-7.085,-7.1099,-7.113,-7.1159,-7.1291,-7.1291,-7.1291,-7.1291,-7.1291,-7.1291,-7.1291,-7.1291,-7.1291,-7.1291,-7.1291,-7.1291,-7.1291,-7.1291,-7.1291,-7.1291,-7.1291,-7.1291,-7.1291,-7.1291,-7.1291,-7.1291,-7.1291,-7.1291,-7.1291,-7.1291,-7.1291,-7.1291,-7.1291,-7.1291,-7.1291,-7.1291,-7.1291,-7.1291,-7.1291,-7.1291,-7.1291,-7.1291,-7.1291,-7.1291,-7.1291,-7.1291,-7.1291,-7.1291,-7.1291,-7.1291,-7.1291,-7.1291,-7.1291,-7.1291,-7.1291,-7.1291,-7.1291,-7.1291,-7.1291,-7.1291,-7.1291,-7.1291,-7.1272,-7.1214,-7.1214,-7.1253,-7.1117,-7.0924,-7.0885,-7.0266,-6.9125,-6.8796,-6.8197,-6.7017,-6.6708,-6.6533,-6.6263,-6.6205,-6.6205,-6.8066,-6.8814,-6.8968,-6.9072,-6.9141,-6.9144,-6.8753,-6.8152,-6.8114,-6.7682,-6.7194,-6.7776,-6.8095,-6.8002,-6.7363,-6.71,-6.7082,-6.6971,-6.6915,-6.6821,-6.6011,-6.5677,-6.5721,-6.4951,-6.4615,-6.4803,-6.4855,-6.4924,-6.5008,-6.5177,-6.5318,-6.556,-6.6575,-6.7549,-6.8398,-6.9406,-7.0336,-7.117,-7.1201,-7.1224,-7.1291,-7.1291,-7.1291,-7.1291,-7.1291,-7.1291,-7.1291,-7.1291,-7.1291,-7.1291,-7.1291,-7.1291,-7.1291,-7.1291,-7.1291,-7.1291,-7.1291,-7.1291,-7.1291,-7.1291,-7.1291,-7.1291,-7.1291,-7.1291,-7.1291,-7.1291,-7.1291,-7.1291,-7.1291,-7.1291,-7.1291,-7.1291,-7.1291,-7.1291,-7.1291,-7.1291,-7.1291,-7.1291,-7.1291,-7.1291,-7.1291,-7.1291,-7.1291,-7.1291,-7.1291,-7.1291,-7.1291,-7.1291,-7.1291,-7.1291,-7.1291,-7.1291,-7.1291,-7.1291,-7.1291,-7.1291,-7.1291,-7.1291,-7.1291,-7.1253,-7.1195,-7.1137,-7.1079,-7.0266,-7.0131,-6.9725,-6.9087,-6.8758,-6.841,-6.7365,-6.7017,-6.7075,-6.6437,-6.6205,-6.6205,-6.8687,-6.9135,-6.9116,-6.8857,-6.8471,-6.8002,-6.7589,-6.7288,-6.7288,-6.7103,-6.6783,-6.6612,-6.68,-6.7272,-6.6934,-6.6821,-6.6783,-6.6256,-6.6071,-6.6076,-6.5268,-6.4912,-6.501,-6.4822,-6.4763,-6.4834,-6.5027,-6.5158,-6.5271,-6.5474,-6.5623,-6.577,-6.6653,-6.7308,-6.7789,-6.914,-7.0061,-7.0429,-7.0984,-7.1269,-7.1291,-7.1291,-7.1291,-7.1291,-7.1291,-7.1291,-7.1291,-7.1291,-7.1291,-7.1291,-7.1291,-7.1291,-7.1291,-7.1291,-7.1291,-7.1291,-7.1291,-7.1291,-7.1291,-7.1291,-7.1291,-7.1291,-7.1291,-7.1291,-7.1291,-7.1291,-7.1291,-7.1291,-7.1291,-7.1291,-7.1291,-7.1291,-7.1291,-7.1291,-7.1291,-7.1291,-7.1291,-7.1291,-7.1291,-7.1291,-7.1291,-7.1291,-7.1291,-7.1291,-7.1291,-7.1291,-7.1291,-7.1291,-7.1291,-7.1291,-7.1291,-7.1291,-7.1291,-7.1291,-7.1291,-7.1291,-7.1291,-7.1291,-7.1291,-7.1214,-7.0634,-7.0537,-7.0247,-6.9435,-6.9319,-6.897,-6.8139,-6.8003,-6.7771,-6.7094,-6.6746,-6.6611,-6.6243,-6.6205,-6.6205,-6.8966,-6.8844,-6.8659,-6.8208,-6.7626,-6.7065,-6.6671,-6.6443,-6.6445,-6.6351,-6.6051,-6.5429,-6.5505,-6.607,-6.6126,-6.6126,-6.6032,-6.5469,-6.5248,-6.5271,-6.4727,-6.4558,-6.469,-6.4871,-6.4993,-6.5061,-6.5239,-6.5394,-6.5518,-6.5688,-6.5814,-6.5987,-6.6768,-6.7362,-6.7752,-6.9197,-7.0158,-7.0683,-7.1327,-7.1756,-7.1988,-7.2007,-7.1794,-7.1369,-7.1291,-7.1291,-7.1291,-7.1291,-7.1291,-7.1291,-7.1291,-7.1291,-7.1291,-7.1291,-7.1291,-7.1291,-7.1291,-7.1291,-7.1291,-7.1291,-7.1291,-7.1291,-7.1291,-7.1291,-7.1291,-7.1291,-7.1291,-7.1291,-7.1291,-7.1291,-7.1291,-7.1291,-7.1291,-7.1291,-7.1291,-7.1291,-7.1291,-7.1291,-7.1291,-7.1291,-7.1291,-7.1291,-7.1291,-7.1291,-7.1291,-7.1291,-7.1291,-7.1291,-7.1291,-7.1291,-7.1291,-7.1291,-7.1291,-7.1291,-7.1291,-7.1291,-7.1253,-7.0963,-7.0866,-7.0556,-6.9879,-6.9705,-6.9377,-6.8661,-6.8545,-6.8119,-6.7365,-6.7094,-6.7094,-6.6475,-6.6224,-6.6243,-6.6205,-6.6205,-6.6205,-6.875,-6.7983,-6.7234,-6.6934,-6.684,-6.6746,-6.6274,-6.558,-6.5561,-6.5148,-6.4566,-6.4434,-6.4378,-6.4511,-6.4586,-6.4453,-6.4455,-6.4515,-6.4556,-6.4576,-6.4652,-6.4762,-6.4907,-6.504,-6.5204,-6.5333,-6.5454,-6.5623,-6.5824,-6.584,-6.5846,-6.6093,-6.6962,-6.7765,-6.8563,-6.9482,-7.0791,-7.2054,-7.2375,-7.2897,-7.3593,-7.3709,-7.2916,-7.1543,-7.1311,-7.1349,-7.1291,-7.1291,-7.1291,-7.1291,-7.1291,-7.1291,-7.1291,-7.1291,-7.1291,-7.1291,-7.1291,-7.1291,-7.1291,-7.1291,-7.1291,-7.1291,-7.1291,-7.1291,-7.1291,-7.1291,-7.1291,-7.1291,-7.1291,-7.1291,-7.1291,-7.1291,-7.1291,-7.1291,-7.1291,-7.1291,-7.1291,-7.1291,-7.1291,-7.1291,-7.1291,-7.1291,-7.1291,-7.1291,-7.1291,-7.1291,-7.1291,-7.1291,-7.1291,-7.1291,-7.1291,-7.1291,-7.1291,-7.1291,-7.1291,-7.1079,-7.0769,-7.0479,-7.0189,-6.9783,-6.9261,-6.8758,-6.8313,-6.7907,-6.7675,-6.7249,-6.6553,-6.6282,-6.6359,-6.6205,-6.6205,-6.6205,-6.6205,-6.6205,-6.6205,-6.7964,-6.7157,-6.6331,-6.5974,-6.5899,-6.5429,-6.5018,-6.4735,-6.4716,-6.4566,-6.4322,-6.4284,-6.4306,-6.4365,-6.4365,-6.4365,-6.4366,-6.4463,-6.4596,-6.4726,-6.4852,-6.4991,-6.5161,-6.5298,-6.5371,-6.5465,-6.5618,-6.6043,-6.6634,-6.6747,-6.7085,-6.761,-6.7996,-6.8389,-6.8798,-6.9585,-7.0604,-7.1698,-7.2278,-7.3013,-7.3864,-7.3883,-7.3322,-7.222,-7.2142,-7.1872,-7.1311,-7.1291,-7.1291,-7.1291,-7.1291,-7.1291,-7.1291,-7.1291,-7.1291,-7.1291,-7.1291,-7.1291,-7.1291,-7.1291,-7.1291,-7.1291,-7.1291,-7.1291,-7.1291,-7.1291,-7.1291,-7.1291,-7.1291,-7.1291,-7.1291,-7.1291,-7.1291,-7.1291,-7.1291,-7.1291,-7.1291,-7.1291,-7.1291,-7.1291,-7.1291,-7.1291,-7.1291,-7.1291,-7.1291,-7.1291,-7.1291,-7.1291,-7.1291,-7.1291,-7.1291,-7.1291,-7.1291,-7.1291,-7.1291,-7.075,-7.0286,-6.9996,-6.9647,-6.8951,-6.8371,-6.8139,-6.7752,-6.7114,-6.6843,-6.6746,-6.6224,-6.6224,-6.6205,-6.6205,-6.6205,-6.6205,-6.6205,-6.6205,-6.6205,-6.6875,-6.6274,-6.5467,-6.511,-6.5054,-6.4528,-6.4284,-6.4284,-6.4284,-6.4284,-6.4304,-6.4324,-6.4365,-6.4405,-6.452,-6.4539,-6.4577,-6.4671,-6.4799,-6.4957,-6.5092,-6.5223,-6.5383,-6.5532,-6.5752,-6.6077,-6.6506,-6.7045,-6.7593,-6.7722,-6.8054,-6.8587,-6.8933,-6.911,-6.9275,-6.9985,-7.0963,-7.2026,-7.2723,-7.3554,-7.4541,-7.4695,-7.4154,-7.3206,-7.3032,-7.2471,-7.1369,-7.1291,-7.1291,-7.1291,-7.1291,-7.1291,-7.1291,-7.1291,-7.1291,-7.1291,-7.1291,-7.1291,-7.1291,-7.1291,-7.1291,-7.1291,-7.1291,-7.1291,-7.1291,-7.1291,-7.1291,-7.1291,-7.1291,-7.1291,-7.1291,-7.1291,-7.1291,-7.1291,-7.1291,-7.1291,-7.1291,-7.1291,-7.1291,-7.1291,-7.1291,-7.1291,-7.1291,-7.1291,-7.1291,-7.1291,-7.1291,-7.1291,-7.1291,-7.1291,-7.1291,-7.1291,-7.1291,-7.1291,-7.1156,-7.0672,-7.0247,-6.9938,-6.9686,-6.8758,-6.7926,-6.7675,-6.7249,-6.6533,-6.6205,-6.6205,-6.6205,-6.6205,-6.6205,-6.6205,-6.6205,-6.6205,-6.6205,-6.6205,-6.6205,-6.5505,-6.5373,-6.4622,-6.4379,-6.4378,-6.4322,-6.4284,-6.4284,-6.4304,-6.4323,-6.4324,-6.4385,-6.4481,-6.4558,-6.4877,-6.4965,-6.5152,-6.5208,-6.5162,-6.5139,-6.5375,-6.5535,-6.5643,-6.5937,-6.6448,-6.7109,-6.8056,-6.8501,-6.861,-6.8668,-6.8759,-6.8964,-6.9654,-7.0015,-7.0015,-7.0827,-7.2065,-7.3322,-7.3728,-7.4599,-7.6146,-7.6185,-7.543,-7.4096,-7.3844,-7.3032,-7.1446,-7.1311,-7.1291,-7.1291,-7.1291,-7.1291,-7.1291,-7.1291,-7.1291,-7.1291,-7.1291,-7.1291,-7.1291,-7.1291,-7.1291,-7.1291,-7.1291,-7.1291,-7.1291,-7.1291,-7.1291,-7.1291,-7.1291,-7.1291,-7.1291,-7.1291,-7.1291,-7.1291,-7.1291,-7.1291,-7.1291,-7.1291,-7.1291,-7.1291,-7.1291,-7.1291,-7.1291,-7.1291,-7.1291,-7.1291,-7.1291,-7.1291,-7.1291,-7.1291,-7.1291,-7.1291,-7.1291,-7.1291,-7.0982,-7.0634,-7.0324,-7.0015,-6.9763,-6.9203,-6.8236,-6.7733,-6.7346,-6.6708,-6.6263,-6.6243,-6.6205,-6.6205,-6.6205,-6.6205,-6.6205,-6.6205,-6.6205,-6.6205,-6.6205,-6.466,-6.4641,-6.4436,-6.4284,-6.4284,-6.4284,-6.4284,-6.4304,-6.4345,-6.4365,-6.4385,-6.4482,-6.4898,-6.55,-6.5738,-6.6216,-6.6935,-6.6981,-6.644,-6.5616,-6.6092,-6.6461,-6.6674,-6.7308,-6.7801,-6.8126,-6.8479,-6.8996,-6.9471,-6.9574,-6.9858,-7.0457,-7.0739,-7.0885,-7.0866,-7.1214,-7.2142,-7.367,-7.3883,-7.4715,-7.6204,-7.6378,-7.5837,-7.4831,-7.4193,-7.3342,-7.2258,-7.162,-7.1311,-7.1291,-7.1291,-7.1291,-7.1291,-7.1291,-7.1291,-7.1291,-7.1291,-7.1291,-7.1291,-7.1291,-7.1291,-7.1291,-7.1291,-7.1291,-7.1291,-7.1291,-7.1291,-7.1291,-7.1291,-7.1291,-7.1291,-7.1291,-7.1291,-7.1291,-7.1291,-7.1291,-7.1291,-7.1291,-7.1291,-7.1291,-7.1291,-7.1291,-7.1291,-7.1291,-7.1291,-7.1291,-7.1291,-7.1291,-7.1291,-7.1291,-7.1291,-7.1291,-7.1291,-7.1291,-7.1098,-7.0963,-7.0808,-7.044,-7.0112,-6.9725,-6.8758,-6.81,-6.7636,-6.6978,-6.6553,-6.6263,-6.6205,-6.6205,-6.6205,-6.6205,-6.6205,-6.6205,-6.6205,-6.6205,-6.6205,-6.4284,-6.4284,-6.4284,-6.4284,-6.4284,-6.4284,-6.4512,-6.4796,-6.4855,-6.5084,-6.5407,-6.5597,-6.5991,-6.6586,-6.6781,-6.7235,-6.7925,-6.8046,-6.7554,-6.6696,-6.7107,-6.7478,-6.7686,-6.8583,-6.9061,-6.9204,-6.9493,-6.9952,-7.0455,-7.0507,-7.075,-7.1214,-7.1291,-7.1272,-7.1349,-7.1659,-7.2529,-7.3748,-7.4212,-7.5005,-7.6088,-7.6378,-7.5991,-7.516,-7.4599,-7.3941,-7.3109,-7.2239,-7.162,-7.1369,-7.1291,-7.1291,-7.1291,-7.1291,-7.1291,-7.1291,-7.1291,-7.1291,-7.1291,-7.1291,-7.1291,-7.1291,-7.1291,-7.1291,-7.1291,-7.1291,-7.1291,-7.1291,-7.1291,-7.1291,-7.1291,-7.1291,-7.1291,-7.1291,-7.1291,-7.1291,-7.1291,-7.1291,-7.1291,-7.1291,-7.1291,-7.1291,-7.1291,-7.1291,-7.1291,-7.1291,-7.1291,-7.1291,-7.1291,-7.1291,-7.1291,-7.1291,-7.1291,-7.1291,-7.1291,-7.1272,-7.1272,-7.0943,-7.0556,-7.0092,-6.9396,-6.9028,-6.8603,-6.7443,-6.6766,-6.6301,-6.6205,-6.6205,-6.6205,-6.6205,-6.6205,-6.6205,-6.6205,-6.6205,-6.6205,-6.4284,-6.4284,-6.4284,-6.4379,-6.4436,-6.4455,-6.4966,-6.5705,-6.5819,-6.6275,-6.6995,-6.7106,-6.7439,-6.7669,-6.7872,-6.8112,-6.8238,-6.8555,-6.8677,-6.8558,-6.8655,-6.8726,-6.8923,-6.9656,-7.0011,-7.0181,-7.0786,-7.1156,-7.1126,-7.1156,-7.1291,-7.1291,-7.1407,-7.1407,-7.164,-7.2239,-7.3129,-7.4038,-7.4715,-7.5469,-7.632,-7.6378,-7.6049,-7.5276,-7.5071,-7.4676,-7.396,-7.3129,-7.2239,-7.1446,-7.1291,-7.1291,-7.1291,-7.1291,-7.1291,-7.1291,-7.1291,-7.1291,-7.1291,-7.1291,-7.1369,-7.1485,-7.1504,-7.1427,-7.164,-7.1794,-7.1794,-7.1736,-7.1582,-7.1446,-7.1465,-7.133,-7.1311,-7.1291,-7.1291,-7.1291,-7.1291,-7.1291,-7.1291,-7.1291,-7.1291,-7.1291,-7.1291,-7.1291,-7.1291,-7.1291,-7.1291,-7.1291,-7.1291,-7.1291,-7.1291,-7.1291,-7.1291,-7.1291,-7.1291,-7.1291,-7.1291,-7.1175,-7.0885,-7.0576,-7.0073,-6.9763,-6.9009,-6.7868,-6.7036,-6.6553,-6.6205,-6.6205,-6.6205,-6.6205,-6.6205,-6.6205,-6.6205,-6.6205,-6.6205,-6.4284,-6.4284,-6.4284,-6.4701,-6.5269,-6.5325,-6.5855,-6.669,-6.69,-6.7146,-6.7427,-6.7585,-6.8157,-6.8747,-6.8939,-6.9385,-6.9855,-7.0135,-7.0298,-7.0337,-7.0418,-7.0467,-7.0498,-7.0707,-7.0907,-7.0999,-7.1222,-7.1291,-7.1291,-7.1427,-7.1388,-7.133,-7.1988,-7.2258,-7.2375,-7.3129,-7.396,-7.4676,-7.4935,-7.5546,-7.6243,-7.6378,-7.6301,-7.6069,-7.545,-7.5044,-7.4734,-7.3999,-7.2839,-7.1446,-7.1291,-7.1291,-7.1407,-7.1407,-7.1446,-7.1446,-7.1388,-7.133,-7.1349,-7.1369,-7.164,-7.2181,-7.2258,-7.2529,-7.3187,-7.3187,-7.3206,-7.309,-7.2703,-7.2239,-7.2142,-7.1659,-7.1369,-7.1291,-7.1291,-7.1291,-7.1291,-7.1291,-7.1291,-7.1291,-7.1291,-7.1291,-7.1291,-7.1291,-7.1291,-7.1291,-7.1291,-7.1291,-7.1291,-7.1291,-7.1291,-7.1291,-7.1291,-7.1291,-7.1291,-7.1291,-7.1291,-7.1291,-7.1195,-7.1117,-7.0672,-7.0286,-6.9164,-6.7887,-6.7423,-6.6959,-6.6456,-6.6205,-6.6205,-6.6205,-6.6205,-6.6205,-6.6205,-6.6205,-6.6205,-6.4531,-6.489,-6.489,-6.5439,-6.6254,-6.6312,-6.6842,-6.7638,-6.7957,-6.831,-6.8607,-6.8834,-6.9282,-6.9866,-6.9999,-7.0315,-7.086,-7.0992,-7.1037,-7.1086,-7.1143,-7.1178,-7.1208,-7.1247,-7.1443,-7.1833,-7.1852,-7.2084,-7.2375,-7.2394,-7.2394,-7.2529,-7.2877,-7.3129,-7.3187,-7.398,-7.4587,-7.509,-7.543,-7.5933,-7.6359,-7.6378,-7.6378,-7.632,-7.5856,-7.5527,-7.5121,-7.4637,-7.3767,-7.2703,-7.2413,-7.2394,-7.2394,-7.2394,-7.2375,-7.2394,-7.2394,-7.2413,-7.2394,-7.2394,-7.2626,-7.3032,-7.3148,-7.338,-7.3728,-7.3883,-7.3883,-7.3767,-7.338,-7.3013,-7.2529,-7.1814,-7.1369,-7.1291,-7.1291,-7.1291,-7.1291,-7.1291,-7.1291,-7.1291,-7.1291,-7.1291,-7.1291,-7.1291,-7.1291,-7.1291,-7.1291,-7.1291,-7.1291,-7.1291,-7.1291,-7.1291,-7.1291,-7.1291,-7.1291,-7.1291,-7.1291,-7.1291,-7.1291,-7.1291,-7.1059,-7.0614,-6.9531,-6.8448,-6.7907,-6.7288,-6.665,-6.6205,-6.6205,-6.6205,-6.6205,-6.6205,-6.6205,-6.6205,-6.6205,-6.4853,-6.5705,-6.5743,-6.6311,-6.7164,-6.7354,-6.7921,-6.8696,-6.8988,-6.9504,-7.0116,-7.042,-7.0443,-7.0801,-7.0684,-7.0933,-7.0998,-7.1081,-7.1135,-7.124,-7.1413,-7.1543,-7.157,-7.159,-7.2026,-7.2607,-7.2742,-7.309,-7.3458,-7.3709,-7.3806,-7.3728,-7.3864,-7.4018,-7.4173,-7.4831,-7.5187,-7.545,-7.5933,-7.6243,-7.6378,-7.6378,-7.6378,-7.6359,-7.6339,-7.5933,-7.5508,-7.5218,-7.487,-7.4173,-7.4018,-7.3728,-7.3767,-7.3825,-7.3786,-7.3709,-7.3612,-7.367,-7.3806,-7.3632,-7.3864,-7.396,-7.4018,-7.4115,-7.4309,-7.4444,-7.4444,-7.4483,-7.4135,-7.3574,-7.2645,-7.1814,-7.1369,-7.1291,-7.1291,-7.1291,-7.1291,-7.1291,-7.1291,-7.1291,-7.1291,-7.1291,-7.1291,-7.1291,-7.1291,-7.1291,-7.1291,-7.1291,-7.1291,-7.1291,-7.1291,-7.1291,-7.1291,-7.1291,-7.1291,-7.1291,-7.1291,-7.1291,-7.1291,-7.1272,-7.1195,-7.0692,-6.986,-6.9067,-6.839,-6.7443,-6.6437,-6.6205,-6.6205,-6.6205,-6.6205,-6.6205,-6.6205,-6.6205,-6.6205,-6.4933,-6.5784,-6.588,-6.6825,-6.8186,-6.8484,-6.9064,-6.9893,-7.0061,-7.0235,-7.0489,-7.065,-7.0787,-7.0865,-7.0952,-7.1018,-7.1081,-7.1154,-7.1213,-7.1366,-7.2054,-7.2278,-7.2336,-7.2355,-7.2839,-7.3438,-7.3612,-7.3748,-7.3941,-7.4096,-7.3922,-7.4057,-7.4637,-7.4839,-7.4966,-7.5585,-7.6107,-7.6146,-7.6301,-7.6359,-7.6378,-7.6378,-7.6378,-7.6378,-7.6378,-7.632,-7.6185,-7.6127,-7.603,-7.5604,-7.4715,-7.4096,-7.4077,-7.4038,-7.4057,-7.4077,-7.4018,-7.396,-7.3941,-7.4077,-7.4212,-7.4773,-7.4889,-7.5121,-7.5798,-7.5759,-7.5779,-7.5721,-7.5237,-7.4251,-7.2877,-7.1852,-7.1388,-7.1291,-7.1291,-7.1291,-7.1291,-7.1291,-7.1291,-7.1291,-7.1291,-7.1291,-7.1291,-7.1291,-7.1291,-7.1291,-7.1291,-7.1291,-7.1291,-7.1291,-7.1291,-7.1291,-7.1291,-7.1291,-7.1291,-7.1291,-7.1291,-7.1291,-7.1291,-7.1291,-7.1195,-7.0827,-6.9996,-6.9357,-6.8777,-6.7733,-6.6514,-6.6205,-6.6205,-6.6205,-6.6205,-6.6205,-6.6205,-6.6205,-6.6205,-6.5332,-6.6522,-6.6689,-6.7782,-6.9258,-6.9582,-6.993,-7.0378,-7.0593,-7.0665,-7.0709,-7.0824,-7.0925,-7.1005,-7.1068,-7.113,-7.1166,-7.1224,-7.1258,-7.1485,-7.2181,-7.28,-7.3322,-7.3593,-7.4057,-7.4444,-7.4463,-7.4637,-7.4947,-7.5024,-7.516,-7.5082,-7.5508,-7.5701,-7.5721,-7.6165,-7.632,-7.6339,-7.6378,-7.6378,-7.6378,-7.6378,-7.6378,-7.6378,-7.6378,-7.6378,-7.6359,-7.6359,-7.6378,-7.6165,-7.5546,-7.5044,-7.5063,-7.5044,-7.5063,-7.5063,-7.5063,-7.5063,-7.5082,-7.5082,-7.5276,-7.5624,-7.5701,-7.5953,-7.6281,-7.6378,-7.6378,-7.632,-7.5856,-7.5024,-7.338,-7.1949,-7.1427,-7.1291,-7.1291,-7.1291,-7.1291,-7.1291,-7.1291,-7.1291,-7.1291,-7.1291,-7.1291,-7.1291,-7.1291,-7.1291,-7.1291,-7.1291,-7.1291,-7.1291,-7.1291,-7.1291,-7.1291,-7.1291,-7.1291,-7.1291,-7.1291,-7.1291,-7.1291,-7.1291,-7.1253,-7.075,-7.015,-6.9454,-6.868,-6.781,-6.6785,-6.6514,-6.6205,-6.6205,-6.6205,-6.6205,-6.6205,-6.6205,-6.6205,-6.5818,-6.7481,-6.7599,-6.8708,-7.02,-7.0442,-7.052,-7.0586,-7.0739,-7.0857,-7.0925,-7.0992,-7.1043,-7.1118,-7.1147,-7.1182,-7.1236,-7.1258,-7.1291,-7.1407,-7.2471,-7.3187,-7.3864,-7.4637,-7.5198,-7.5295,-7.5314,-7.5682,-7.6088,-7.6359,-7.6069,-7.6301,-7.6339,-7.6243,-7.6339,-7.6378,-7.6378,-7.6378,-7.6378,-7.6378,-7.6378,-7.6378,-7.6378,-7.6378,-7.6378,-7.6378,-7.6378,-7.6378,-7.6378,-7.6378,-7.6378,-7.6378,-7.6378,-7.6378,-7.6378,-7.632,-7.6165,-7.6107,-7.6069,-7.6204,-7.6243,-7.6378,-7.6359,-7.6359,-7.6378,-7.6378,-7.6378,-7.6223,-7.5875,-7.5063,-7.3806,-7.2258,-7.1427,-7.1291,-7.1291,-7.1291,-7.1291,-7.1291,-7.1291,-7.1291,-7.1291,-7.1291,-7.1291,-7.1291,-7.1291,-7.1291,-7.1291,-7.1291,-7.1291,-7.1291,-7.1291,-7.1291,-7.1291,-7.1291,-7.1291,-7.1291,-7.1291,-7.1291,-7.1291,-7.1291,-7.1214,-7.0634,-6.9996,-6.9203,-6.841,-6.7539,-6.6862,-6.6398,-6.6205,-6.6205,-6.6205,-6.6205,-6.6205,-6.6205,-6.6205,-6.6093,-6.7738,-6.7878,-6.8931,-7.0378,-7.0665,-7.0767,-7.0843,-7.0925,-7.1005,-7.1068,-7.1081,-7.113,-7.1178,-7.1182,-7.1216,-7.1269,-7.1291,-7.1291,-7.1601,-7.2742,-7.3767,-7.4077,-7.5353,-7.603,-7.6185,-7.6107,-7.6204,-7.632,-7.6378,-7.6378,-7.6378,-7.6378,-7.6378,-7.6378,-7.6378,-7.6378,-7.6378,-7.6378,-7.6378,-7.6378,-7.6378,-7.6378,-7.6378,-7.6378,-7.6378,-7.6378,-7.6378,-7.6378,-7.6378,-7.6378,-7.6378,-7.6378,-7.6378,-7.6378,-7.6378,-7.6378,-7.6378,-7.6378,-7.6378,-7.6378,-7.6378,-7.6378,-7.6378,-7.6378,-7.6378,-7.6339,-7.5953,-7.5121,-7.398,-7.2935,-7.191,-7.1407,-7.1291,-7.1291,-7.1291,-7.1291,-7.1291,-7.1291,-7.1291,-7.1291,-7.1291,-7.1291,-7.1291,-7.1291,-7.1291,-7.1291,-7.1291,-7.1291,-7.1291,-7.1291,-7.1291,-7.1291,-7.1291,-7.1291,-7.1291,-7.1291,-7.1291,-7.1291,-7.1291,-7.1079,-7.0479,-6.9802,-6.9048,-6.8216,-6.7346,-6.6766,-6.6301,-6.6205,-6.6205,-6.6205,-6.6205,-6.6205,-6.6205,-6.6205,-6.6319,-6.789,-6.808,-6.9126,-7.0551,-7.0838,-7.0958,-7.1005,-7.1043,-7.1093,-7.1142,-7.1154,-7.119,-7.1236,-7.1247,-7.1269,-7.1291,-7.1291,-7.1291,-7.1678,-7.3013,-7.3883,-7.4096,-7.5604,-7.6223,-7.6378,-7.6378,-7.6378,-7.6378,-7.6378,-7.6378,-7.6378,-7.6378,-7.6378,-7.6378,-7.6378,-7.6378,-7.6378,-7.6378,-7.6378,-7.6378,-7.6378,-7.6378,-7.6378,-7.6378,-7.6378,-7.6378,-7.6378,-7.6378,-7.6378,-7.6378,-7.6378,-7.6378,-7.6378,-7.6378,-7.6378,-7.6378,-7.6378,-7.6378,-7.6378,-7.6378,-7.6378,-7.6378,-7.6378,-7.6378,-7.6359,-7.6185,-7.5566,-7.4792,-7.3554,-7.2703,-7.1794,-7.1369,-7.1291,-7.1291,-7.1291,-7.1291,-7.1291,-7.1291,-7.1291,-7.1291,-7.1291,-7.1291,-7.1291,-7.1291,-7.1291,-7.1291,-7.1291,-7.1291,-7.1291,-7.1291,-7.1291,-7.1291,-7.1291,-7.1291,-7.1291,-7.1291,-7.1291,-7.1291,-7.1291,-7.0866,-7.0247,-6.9628,-6.8932,-6.8061,-6.7075,-6.665,-6.6205,-6.6205,-6.6205,-6.6205,-6.6205,-6.6205,-6.6205,-6.6205,-6.6433,-6.7841,-6.8213,-6.925,-7.0592,-7.0953,-7.1056,-7.1118,-7.1118,-7.1147,-7.1224,-7.1224,-7.1247,-7.128,-7.1291,-7.1291,-7.1291,-7.1291,-7.1291,-7.1659,-7.3071,-7.3883,-7.4347,-7.5411,-7.6378,-7.6378,-7.6378,-7.6378,-7.6378,-7.6378,-7.6378,-7.6378,-7.6378,-7.6378,-7.6378,-7.6378,-7.6378,-7.6378,-7.6378,-7.6378,-7.6378,-7.6378,-7.6378,-7.6378,-7.6378,-7.6378,-7.6378,-7.6378,-7.6378,-7.6378,-7.6378,-7.6378,-7.6378,-7.6378,-7.6378,-7.6378,-7.6378,-7.6378,-7.6378,-7.6378,-7.6378,-7.6378,-7.6378,-7.6378,-7.6281,-7.6107,-7.5721,-7.4947,-7.4077,-7.3206,-7.2316,-7.1678,-7.1349,-7.1291,-7.1291,-7.1291,-7.1291,-7.1291,-7.1291,-7.1291,-7.1291,-7.1291,-7.1291,-7.1291,-7.1291,-7.1291,-7.1291,-7.1291,-7.1291,-7.1291,-7.1291,-7.1291,-7.1291,-7.1291,-7.1291,-7.1291,-7.1291,-7.1291,-7.1291,-7.1291,-7.0692,-6.9996,-6.9377,-6.8738,-6.7636,-6.6746,-6.6398,-6.6205,-6.6205,-6.6205,-6.6205,-6.6205,-6.6205,-6.6205,-6.6205,-6.6325,-6.7295,-6.8123,-6.9084,-7.0047,-7.0753,-7.113,-7.117,-7.119,-7.1224,-7.128,-7.13,-7.128,-7.1291,-7.1291,-7.1291,-7.1291,-7.1291,-7.1291,-7.1562,-7.2935,-7.3806,-7.4135,-7.5624,-7.6243,-7.6359,-7.6378,-7.6378,-7.6378,-7.6378,-7.6378,-7.6378,-7.6378,-7.6378,-7.6378,-7.6378,-7.6378,-7.6378,-7.6378,-7.6378,-7.6378,-7.6378,-7.6378,-7.6378,-7.6378,-7.6378,-7.6378,-7.6378,-7.6378,-7.6378,-7.6378,-7.6378,-7.6378,-7.6378,-7.6378,-7.6378,-7.6378,-7.6378,-7.6378,-7.6378,-7.6378,-7.6378,-7.6378,-7.6378,-7.6107,-7.5566,-7.4928,-7.4115,-7.3303,-7.251,-7.1833,-7.1407,-7.1291,-7.1291,-7.1291,-7.1291,-7.1291,-7.1291,-7.1291,-7.1291,-7.1291,-7.1291,-7.1291,-7.1291,-7.1291,-7.1291,-7.1291,-7.1291,-7.1291,-7.1291,-7.1291,-7.1291,-7.1291,-7.1291,-7.1291,-7.1291,-7.1291,-7.1291,-7.1291,-7.1272,-7.0731,-7.0073,-6.9222,-6.8468,-6.7365,-6.6592,-6.6321,-6.6205,-6.6205,-6.6205,-6.6205,-6.6205,-6.6205,-6.6205,-6.6205,-6.6427,-6.7261,-6.7644,-6.8636,-6.988,-7.0285,-7.0745,-7.1189,-7.1258,-7.1269,-7.1291,-7.1291,-7.1291,-7.1291,-7.1291,-7.1291,-7.1291,-7.1291,-7.1291,-7.1465,-7.2568,-7.3458,-7.4057,-7.5082,-7.5798,-7.6339,-7.6378,-7.6378,-7.6378,-7.6378,-7.6378,-7.6378,-7.6378,-7.6378,-7.6378,-7.6378,-7.6378,-7.6378,-7.6378,-7.6378,-7.6378,-7.6378,-7.6378,-7.6378,-7.6378,-7.6378,-7.6378,-7.6378,-7.6378,-7.6378,-7.6378,-7.6378,-7.6378,-7.6378,-7.6378,-7.6378,-7.6378,-7.6378,-7.6378,-7.6359,-7.6339,-7.6359,-7.632,-7.6185,-7.5682,-7.4908,-7.4077,-7.3245,-7.2839,-7.22,-7.1523,-7.1311,-7.1291,-7.1291,-7.1291,-7.1291,-7.1291,-7.1291,-7.1291,-7.1291,-7.1291,-7.1291,-7.1291,-7.1291,-7.1291,-7.1291,-7.1291,-7.1291,-7.1291,-7.1291,-7.1291,-7.1291,-7.1291,-7.1291,-7.1291,-7.1291,-7.1291,-7.1291,-7.1291,-7.1195,-7.0905,-7.0266,-6.928,-6.8313,-6.7288,-6.6688,-6.6301,-6.6205,-6.6205,-6.6205,-6.6205,-6.6205,-6.6205,-6.6205,-6.6205,-6.6422,-6.7031,-6.7251,-6.8116,-6.9339,-6.9736,-7.03,-7.0924,-7.1195,-7.1291,-7.1291,-7.1291,-7.1291,-7.1291,-7.1291,-7.1291,-7.1291,-7.1291,-7.1291,-7.1582,-7.22,-7.3109,-7.3922,-7.4773,-7.5604,-7.6378,-7.6378,-7.6378,-7.6378,-7.6378,-7.6378,-7.6378,-7.6378,-7.6378,-7.6378,-7.6378,-7.6378,-7.6378,-7.6378,-7.6378,-7.6378,-7.6378,-7.6378,-7.6378,-7.6378,-7.6378,-7.6378,-7.6378,-7.6378,-7.6378,-7.6069,-7.5933,-7.5953,-7.5682,-7.5546,-7.5527,-7.5508,-7.5546,-7.5643,-7.5759,-7.603,-7.6011,-7.5798,-7.5314,-7.485,-7.4057,-7.3419,-7.2742,-7.2316,-7.191,-7.1504,-7.1291,-7.1291,-7.1291,-7.1291,-7.1291,-7.1291,-7.1302,-7.1302,-7.1291,-7.1291,-7.1291,-7.1291,-7.1291,-7.1291,-7.1291,-7.1291,-7.1291,-7.1291,-7.1291,-7.1291,-7.1291,-7.1291,-7.1291,-7.1291,-7.1291,-7.1291,-7.1291,-7.1291,-7.1195,-7.0943,-7.0112,-6.9048,-6.81,-6.721,-6.665,-6.6205,-6.6205,-6.6205,-6.6205,-6.6205,-6.6205,-6.6205,-6.6205,-6.6205,-6.6142,-6.6349,-6.7078,-6.7495,-6.7858,-6.9347,-6.9996,-7.0266,-7.0943,-7.1233,-7.1291,-7.1291,-7.1291,-7.1291,-7.1291,-7.1291,-7.1291,-7.1291,-7.1291,-7.1582,-7.2181,-7.2935,-7.3728,-7.456,-7.543,-7.6165,-7.6339,-7.6378,-7.6378,-7.6378,-7.6378,-7.6378,-7.6378,-7.6378,-7.6378,-7.6378,-7.6378,-7.6378,-7.6378,-7.6378,-7.6378,-7.6378,-7.6378,-7.6378,-7.6378,-7.6378,-7.6378,-7.6185,-7.6069,-7.6049,-7.5527,-7.5218,-7.5121,-7.4753,-7.4541,-7.4502,-7.4502,-7.4502,-7.4579,-7.4947,-7.516,-7.4986,-7.4599,-7.4193,-7.3972,-7.3167,-7.2665,-7.2455,-7.1962,-7.1603,-7.1371,-7.1291,-7.1324,-7.1324,-7.1334,-7.1334,-7.1334,-7.1324,-7.1324,-7.1302,-7.1302,-7.1313,-7.1302,-7.1302,-7.1291,-7.1291,-7.1291,-7.1291,-7.1291,-7.1291,-7.1291,-7.1291,-7.1291,-7.1291,-7.1291,-7.1291,-7.1291,-7.1291,-7.1291,-7.1195,-7.104,-7.0015,-6.8816,-6.8061,-6.7268,-6.6669,-6.6205,-6.6205,-6.6205,-6.6205,-6.6205,-6.6205,-6.6205,-6.6205,-6.6205,-6.6165,-6.6224,-6.6552,-6.6996,-6.7559,-6.8177,-6.9048,-6.9968,-7.0363,-7.0847,-7.1291,-7.1291,-7.1291,-7.1291,-7.1291,-7.1291,-7.1291,-7.1291,-7.1291,-7.1349,-7.1736,-7.2316,-7.3109,-7.3999,-7.4773,-7.5585,-7.6069,-7.6378,-7.6378,-7.6378,-7.6378,-7.6378,-7.6378,-7.6378,-7.6378,-7.6378,-7.6378,-7.6378,-7.6378,-7.6378,-7.6378,-7.6378,-7.6378,-7.6378,-7.5759,-7.5643,-7.5527,-7.5082,-7.4928,-7.4811,-7.4541,-7.4425,-7.4328,-7.3941,-7.3767,-7.374,-7.372,-7.374,-7.3798,-7.4135,-7.4347,-7.4212,-7.3632,-7.3101,-7.3115,-7.239,-7.1985,-7.1744,-7.1657,-7.1415,-7.1435,-7.1416,-7.1416,-7.1416,-7.1406,-7.1406,-7.1395,-7.1395,-7.1395,-7.1385,-7.1375,-7.1364,-7.1334,-7.1313,-7.1302,-7.1291,-7.1291,-7.1291,-7.1291,-7.1291,-7.1291,-7.1291,-7.1291,-7.1291,-7.1291,-7.1291,-7.1291,-7.1291,-7.1291,-7.1059,-7.0789,-6.9763,-6.8661,-6.7965,-6.7249,-6.6572,-6.6205,-6.6205,-6.6205,-6.6205,-6.6205,-6.6205,-6.6205,-6.6205,-6.6205,-6.6437,-6.6205,-6.6205,-6.6553,-6.7114,-6.7384,-6.8158,-6.9203,-6.9813,-7.0509,-7.1272,-7.1291,-7.1291,-7.1291,-7.1291,-7.1291,-7.1291,-7.1291,-7.1291,-7.133,-7.1427,-7.1833,-7.2549,-7.3303,-7.4077,-7.4966,-7.5624,-7.6011,-7.6378,-7.6378,-7.6378,-7.6378,-7.6378,-7.6378,-7.6378,-7.6378,-7.6378,-7.6378,-7.6378,-7.6378,-7.6378,-7.6088,-7.5972,-7.5817,-7.5179,-7.4792,-7.4657,-7.4367,-7.4115,-7.396,-7.3748,-7.3546,-7.3441,-7.3325,-7.3201,-7.3192,-7.3212,-7.3212,-7.3231,-7.3452,-7.3394,-7.3048,-7.2691,-7.2353,-7.2161,-7.1784,-7.161,-7.1572,-7.1523,-7.1514,-7.1494,-7.1485,-7.1475,-7.1465,-7.1465,-7.1465,-7.1465,-7.1465,-7.1475,-7.1475,-7.1455,-7.1435,-7.1395,-7.1375,-7.1324,-7.1302,-7.1291,-7.1291,-7.1291,-7.1291,-7.1291,-7.1291,-7.1291,-7.1291,-7.1291,-7.1291,-7.1291,-7.1291,-7.1195,-7.0769,-7.0286,-6.9338,-6.8526,-6.7771,-6.7075,-6.6417,-6.6185,-6.6185,-6.6185,-6.6205,-6.6205,-6.6205,-6.6205,-6.6205,-6.6205,-6.6978,-6.6224,-6.6205,-6.6224,-6.6398,-6.7152,-6.7559,-6.8023,-6.9357,-7.0498,-7.1253,-7.1291,-7.1291,-7.1291,-7.1291,-7.1291,-7.1291,-7.1291,-7.1291,-7.1291,-7.1311,-7.1833,-7.2278,-7.2839,-7.3477,-7.4734,-7.5314,-7.5721,-7.6262,-7.6359,-7.6378,-7.6165,-7.603,-7.6165,-7.6339,-7.6378,-7.6378,-7.6359,-7.6301,-7.6223,-7.5933,-7.5411,-7.5198,-7.4966,-7.4328,-7.3922,-7.3836,-7.3566,-7.3383,-7.3336,-7.291,-7.2708,-7.2682,-7.2102,-7.187,-7.1853,-7.1785,-7.1727,-7.1698,-7.2326,-7.2365,-7.2017,-7.1862,-7.1756,-7.162,-7.1494,-7.1504,-7.1532,-7.1533,-7.1504,-7.1504,-7.1504,-7.1513,-7.1513,-7.1523,-7.1523,-7.1532,-7.1532,-7.1532,-7.1532,-7.1513,-7.1485,-7.1465,-7.1445,-7.1375,-7.1343,-7.1302,-7.1291,-7.1291,-7.1291,-7.1291,-7.1291,-7.1291,-7.1291,-7.1291,-7.1291,-7.1291,-7.1291,-7.1098,-7.0672,-7.0073,-6.9241,-6.8429,-6.7597,-6.692,-6.6282,-6.6185,-6.6185,-6.6215,-6.6235,-6.6205,-6.6205,-6.6205,-6.6215,-6.6225,-6.7326,-6.7017,-6.6456,-6.6205,-6.6243,-6.6495,-6.694,-6.7733,-6.9222,-7.0479,-7.1175,-7.1291,-7.1291,-7.1291,-7.1291,-7.1291,-7.1291,-7.1291,-7.1291,-7.1291,-7.1291,-7.1407,-7.1814,-7.2355,-7.2897,-7.3612,-7.4328,-7.5051,-7.5508,-7.5895,-7.5875,-7.5643,-7.5256,-7.543,-7.6088,-7.6339,-7.6204,-7.5643,-7.5469,-7.5314,-7.4792,-7.4483,-7.4289,-7.4251,-7.3477,-7.3074,-7.3068,-7.2719,-7.2498,-7.251,-7.2025,-7.1997,-7.1978,-7.1484,-7.1494,-7.1514,-7.1514,-7.1533,-7.1561,-7.1862,-7.1833,-7.1581,-7.1504,-7.1533,-7.1571,-7.156,-7.1559,-7.1577,-7.1557,-7.1557,-7.1575,-7.1575,-7.1575,-7.1575,-7.1584,-7.1584,-7.1584,-7.1584,-7.1584,-7.1575,-7.1577,-7.1523,-7.1514,-7.1494,-7.1435,-7.1364,-7.1324,-7.1302,-7.1291,-7.1291,-7.1291,-7.1291,-7.1291,-7.1291,-7.1291,-7.1291,-7.1291,-7.1291,-7.1001,-7.0576,-6.9899,-6.9087,-6.8061,-6.7094,-6.6611,-6.6185,-6.6205,-6.6235,-6.6254,-6.6254,-6.6254,-6.6235,-6.6235,-6.6245,-6.6264,-6.8216,-6.7849,-6.6998,-6.665,-6.6592,-6.634,-6.6688,-6.7655,-6.897,-7.0054,-7.075,-7.1117,-7.1291,-7.1291,-7.1291,-7.1291,-7.1291,-7.1291,-7.1291,-7.1291,-7.1291,-7.133,-7.1562,-7.1891,-7.2336,-7.2819,-7.3516,-7.4289,-7.4676,-7.5237,-7.516,-7.4657,-7.4173,-7.4599,-7.5218,-7.5314,-7.5198,-7.4753,-7.4657,-7.4502,-7.4057,-7.3709,-7.3469,-7.3228,-7.2747,-7.2216,-7.2103,-7.1813,-7.1455,-7.1485,-7.1494,-7.1504,-7.1513,-7.1533,-7.1523,-7.1541,-7.155,-7.1568,-7.1605,-7.1605,-7.1635,-7.1559,-7.155,-7.1559,-7.1605,-7.1594,-7.1584,-7.1589,-7.1598,-7.1598,-7.1598,-7.1598,-7.1598,-7.1598,-7.1598,-7.1598,-7.1598,-7.1589,-7.1589,-7.16,-7.1592,-7.1568,-7.1542,-7.1514,-7.1484,-7.1406,-7.1345,-7.1324,-7.1302,-7.1291,-7.1291,-7.1291,-7.1291,-7.1291,-7.1291,-7.1291,-7.1291,-7.1291,-7.1001,-7.0653,-6.9647,-6.8816,-6.7694,-6.6727,-6.6417,-6.6225,-6.6245,-6.6264,-6.6302,-6.6321,-6.6321,-6.6302,-6.6264,-6.6293,-6.6321,-6.9531,-6.8758,-6.7907,-6.7501,-6.7346,-6.6553,-6.6688,-6.7559,-6.841,-6.9241,-7.0073,-7.0905,-7.1175,-7.1272,-7.1291,-7.1291,-7.1291,-7.1291,-7.1291,-7.1291,-7.1291,-7.1291,-7.1291,-7.1427,-7.1833,-7.2297,-7.2858,-7.3438,-7.3825,-7.4018,-7.398,-7.3825,-7.3516,-7.3632,-7.3748,-7.3786,-7.3806,-7.3806,-7.3825,-7.3632,-7.3256,-7.2889,-7.2689,-7.242,-7.2035,-7.1716,-7.1649,-7.1552,-7.1504,-7.1513,-7.1513,-7.1532,-7.1569,-7.1607,-7.1594,-7.16,-7.1589,-7.1589,-7.1589,-7.1589,-7.1589,-7.1592,-7.1581,-7.1598,-7.1589,-7.1589,-7.1589,-7.1598,-7.1598,-7.1598,-7.1598,-7.1598,-7.1598,-7.1598,-7.1598,-7.1598,-7.1598,-7.1598,-7.1598,-7.1598,-7.1598,-7.1592,-7.1577,-7.1569,-7.1533,-7.1475,-7.1416,-7.1355,-7.1334,-7.1291,-7.1291,-7.1291,-7.1291,-7.1291,-7.1291,-7.1291,-7.1291,-7.1291,-7.1214,-7.0847,-6.9725,-6.8749,-6.7927,-6.7153,-6.6515,-6.6245,-6.6283,-6.6339,-6.6375,-6.6383,-6.6409,-6.6383,-6.6346,-6.6364,-6.64,-6.986,-6.957,-6.8777,-6.8081,-6.7423,-6.6572,-6.6688,-6.7501,-6.7829,-6.8622,-7.0026,-7.0247,-7.0672,-7.1272,-7.1291,-7.1272,-7.1291,-7.1291,-7.1291,-7.1291,-7.1291,-7.1291,-7.1291,-7.1311,-7.1504,-7.1814,-7.2258,-7.2645,-7.2897,-7.2974,-7.2974,-7.2935,-7.2549,-7.2297,-7.22,-7.2104,-7.251,-7.285,-7.2966,-7.2725,-7.2429,-7.2022,-7.1909,-7.1785,-7.1698,-7.1514,-7.1551,-7.156,-7.1559,-7.1566,-7.1556,-7.1592,-7.1592,-7.16,-7.1598,-7.1598,-7.1598,-7.1598,-7.1598,-7.1598,-7.1598,-7.1598,-7.1598,-7.1598,-7.1598,-7.1598,-7.1598,-7.1598,-7.1598,-7.1598,-7.1598,-7.1598,-7.1598,-7.1598,-7.1598,-7.1598,-7.1598,-7.1598,-7.1598,-7.1598,-7.1598,-7.1598,-7.1603,-7.1586,-7.155,-7.1523,-7.1494,-7.1426,-7.1385,-7.1334,-7.1302,-7.1291,-7.1291,-7.1291,-7.1291,-7.1291,-7.1291,-7.1272,-7.1244,-7.0984,-7.0047,-6.9109,-6.8326,-6.7494,-6.667,-6.6378,-6.6364,-6.6398,-6.6458,-6.6504,-6.6507,-6.6462,-6.6439,-6.6454,-6.647,-7.0518,-7.0402,-6.9609,-6.8584,-6.752,-6.6959,-6.6882,-6.7056,-6.7346,-6.8139,-6.897,-6.9357,-6.9996,-7.0653,-7.075,-7.0924,-7.1291,-7.1291,-7.1291,-7.1291,-7.1291,-7.1291,-7.1291,-7.1291,-7.133,-7.1523,-7.1717,-7.2007,-7.2123,-7.2084,-7.2065,-7.2026,-7.1446,-7.1369,-7.1399,-7.1545,-7.1702,-7.1962,-7.205,-7.179,-7.1598,-7.1435,-7.1494,-7.1533,-7.1542,-7.1569,-7.1605,-7.1594,-7.1592,-7.1598,-7.1598,-7.1598,-7.1598,-7.1598,-7.1598,-7.1598,-7.1598,-7.1598,-7.1598,-7.1598,-7.1598,-7.1598,-7.1598,-7.1598,-7.1598,-7.1598,-7.1598,-7.1598,-7.1598,-7.1598,-7.1598,-7.1598,-7.1598,-7.1598,-7.1598,-7.1598,-7.1598,-7.1598,-7.1598,-7.1598,-7.1598,-7.1598,-7.1609,-7.1603,-7.1605,-7.1579,-7.1551,-7.1504,-7.1455,-7.1385,-7.1343,-7.1322,-7.1291,-7.1291,-7.1302,-7.1313,-7.1313,-7.1324,-7.1334,-7.0958,-7.0194,-6.9314,-6.8375,-6.752,-6.6711,-6.655,-6.6454,-6.6492,-6.6548,-6.6562,-6.6594,-6.6581,-6.6555,-6.6535,-6.6549,-7.1272,-7.1195,-7.0344,-6.9125,-6.7791,-6.7559,-6.7056,-6.6417,-6.7056,-6.7462,-6.7733,-6.8371,-6.9145,-6.9841,-7.0112,-7.0518,-7.0924,-7.1156,-7.1291,-7.1291,-7.1291,-7.1291,-7.1291,-7.1291,-7.1291,-7.1291,-7.1369,-7.1562,-7.1388,-7.1446,-7.1504,-7.1291,-7.1322,-7.1313,-7.1343,-7.1385,-7.1522,-7.1599,-7.1668,-7.1542,-7.1533,-7.1504,-7.1542,-7.1579,-7.1596,-7.1594,-7.16,-7.1598,-7.1598,-7.1598,-7.1598,-7.1598,-7.1598,-7.1598,-7.1598,-7.1598,-7.1598,-7.1598,-7.1598,-7.1598,-7.1598,-7.1598,-7.1598,-7.1598,-7.1598,-7.1598,-7.1598,-7.1598,-7.1598,-7.1598,-7.1598,-7.1598,-7.1598,-7.1598,-7.1598,-7.1598,-7.1598,-7.1598,-7.1598,-7.1598,-7.1598,-7.1598,-7.1598,-7.16,-7.1592,-7.1605,-7.1587,-7.155,-7.1533,-7.1465,-7.1406,-7.1364,-7.1364,-7.1364,-7.1364,-7.1375,-7.1375,-7.1385,-7.1406,-7.1232,-7.07,-6.9604,-6.837,-6.7607,-6.6924,-6.6662,-6.6542,-6.6588,-6.6613,-6.6618,-6.6647,-6.6692,-6.6682,-6.6641,-6.6635,-7.1291,-7.1214,-7.0363,-6.9725,-6.9241,-6.8023,-6.7423,-6.7152,-6.6669,-6.692,-6.7462,-6.7752,-6.8294,-6.9028,-6.9589,-7.0015,-7.0305,-7.0885,-7.1214,-7.1253,-7.1233,-7.1291,-7.1291,-7.1291,-7.1291,-7.1291,-7.1291,-7.1291,-7.1291,-7.1291,-7.1291,-7.1322,-7.1343,-7.1375,-7.1394,-7.1445,-7.1475,-7.1475,-7.1504,-7.1523,-7.1551,-7.156,-7.1587,-7.1603,-7.16,-7.16,-7.1598,-7.1598,-7.1598,-7.1598,-7.1598,-7.1598,-7.1598,-7.1598,-7.1598,-7.1598,-7.1598,-7.1598,-7.1598,-7.1598,-7.1598,-7.1598,-7.1598,-7.1598,-7.1598,-7.1598,-7.1598,-7.1598,-7.1598,-7.1598,-7.1598,-7.1598,-7.1598,-7.1598,-7.1598,-7.1598,-7.1598,-7.1598,-7.1598,-7.1598,-7.1598,-7.1598,-7.1598,-7.1598,-7.1598,-7.1589,-7.1589,-7.1592,-7.1596,-7.156,-7.1532,-7.1494,-7.1465,-7.1465,-7.1436,-7.1436,-7.1455,-7.1455,-7.1474,-7.1318,-7.1113,-6.9892,-6.8625,-6.785,-6.7204,-6.6866,-6.6638,-6.6655,-6.6677,-6.6678,-6.6702,-6.6748,-6.6764,-6.6736,-6.6748,-7.1291,-7.1233,-7.0769,-7.0344,-6.986,-6.897,-6.8216,-6.7481,-6.6978,-6.6824,-6.692,-6.6978,-6.7404,-6.8139,-6.87,-6.9241,-6.9551,-7.0344,-7.0556,-7.0711,-7.1117,-7.1272,-7.1291,-7.1291,-7.1291,-7.1291,-7.1291,-7.1291,-7.1302,-7.1343,-7.1354,-7.1354,-7.1395,-7.1445,-7.1455,-7.1514,-7.1542,-7.1523,-7.1596,-7.1594,-7.1594,-7.1603,-7.1592,-7.1598,-7.1598,-7.1598,-7.1598,-7.1598,-7.1598,-7.1598,-7.1598,-7.1598,-7.1598,-7.1598,-7.1598,-7.1598,-7.1598,-7.1598,-7.1598,-7.1598,-7.1598,-7.1598,-7.1598,-7.1598,-7.1598,-7.1598,-7.1598,-7.1598,-7.1598,-7.1598,-7.1598,-7.1598,-7.1598,-7.1598,-7.1598,-7.1598,-7.1598,-7.1598,-7.1598,-7.1598,-7.1598,-7.1598,-7.1598,-7.1598,-7.1598,-7.1598,-7.1598,-7.1633,-7.1648,-7.1648,-7.1639,-7.1611,-7.1575,-7.1531,-7.1484,-7.1502,-7.152,-7.1547,-7.1545,-7.1276,-7.0926,-6.9921,-6.8921,-6.8148,-6.7439,-6.6887,-6.6732,-6.6741,-6.6735,-6.6732,-6.6755,-6.6795,-6.6807,-6.6815,-6.6832,-7.1291,-7.1291,-7.1272,-7.0866,-7.0189,-7.0006,-6.9087,-6.7829,-6.752,-6.6978,-6.634,-6.6282,-6.6708,-6.7114,-6.7539,-6.8061,-6.868,-6.9493,-6.9783,-7.0266,-7.075,-7.104,-7.1233,-7.1291,-7.1291,-7.1302,-7.1302,-7.1313,-7.1313,-7.1375,-7.1425,-7.1416,-7.1446,-7.1504,-7.1533,-7.156,-7.1577,-7.1586,-7.1592,-7.1589,-7.1598,-7.1598,-7.1598,-7.1598,-7.1598,-7.1598,-7.1598,-7.1598,-7.1598,-7.1598,-7.1598,-7.1598,-7.1598,-7.1598,-7.1598,-7.1598,-7.1598,-7.1598,-7.1598,-7.1598,-7.1598,-7.1598,-7.1598,-7.1598,-7.1598,-7.1598,-7.1598,-7.1598,-7.1598,-7.1598,-7.1598,-7.1598,-7.1598,-7.1598,-7.1598,-7.1598,-7.1598,-7.1598,-7.1598,-7.1598,-7.1598,-7.1598,-7.1598,-7.1598,-7.1598,-7.1598,-7.1614,-7.1649,-7.1692,-7.1714,-7.1722,-7.1709,-7.1683,-7.1626,-7.1542,-7.157,-7.1622,-7.1653,-7.1598,-7.1244,-7.0752,-6.991,-6.9143,-6.8442,-6.7759,-6.7001,-6.6764,-6.6791,-6.6785,-6.6778,-6.6809,-6.6841,-6.6832,-6.6859,-6.6883,-7.1291,-7.1291,-7.1291,-7.1175,-7.0943,-7.0324,-6.9435,-6.8526,-6.7791,-6.6998,-6.6417,-6.6205,-6.634,-6.6495,-6.7249,-6.7675,-6.7791,-6.8622,-6.9454,-7.0034,-7.0247,-7.0692,-7.1089,-7.1225,-7.1272,-7.1313,-7.1364,-7.1375,-7.1385,-7.1455,-7.1475,-7.1485,-7.1542,-7.1569,-7.1579,-7.1586,-7.16,-7.16,-7.16,-7.1598,-7.1598,-7.1598,-7.1598,-7.1598,-7.1598,-7.1598,-7.1598,-7.1598,-7.1598,-7.1598,-7.1598,-7.1598,-7.1598,-7.1598,-7.1598,-7.1598,-7.1598,-7.1598,-7.1598,-7.1598,-7.1598,-7.1598,-7.1598,-7.1598,-7.1598,-7.1598,-7.1598,-7.1598,-7.1598,-7.1598,-7.1598,-7.1598,-7.1598,-7.1598,-7.1598,-7.1598,-7.1598,-7.1598,-7.1598,-7.1598,-7.1598,-7.1598,-7.1598,-7.1606,-7.1606,-7.1633,-7.1657,-7.1699,-7.1709,-7.1744,-7.1783,-7.1782,-7.1775,-7.1738,-7.1672,-7.1665,-7.1699,-7.1745,-7.1737,-7.1544,-7.1029,-7.0073,-6.933,-6.8753,-6.7805,-6.6902,-6.6798,-6.6829,-6.682,-6.6826,-6.6854,-6.6881,-6.6875,-6.687,-6.6891]},{"header":{"parameterUnit":"m.s-1","parameterCategory":1,"la1":31.0,"la2":29.5877,"lo1":-88.7671,"lo2":-86.6584,"dy":0.0162,"dx":0.0185,"nx":115,"ny":88,"refTime":"2023-03-27T18:00:00:Z","depth":0,"parameterNumber":3,"parameterNumberName":"V-component_of_WINDS"},"data":[0.0,0.0,0.0,0.0,0.0,0.0,0.0,0.0,0.0,0.0,0.0,0.0,0.0,0.0,0.0,0.0,0.0,0.0,0.0,0.0,0.0,0.0,0.0,0.0,0.0,0.0,0.0,0.0,0.0,0.0,0.0,0.0,0.0,0.0,0.0,0.0,0.0,0.0,0.0,0.0,0.0,0.0,0.0,0.0,0.0,0.0,0.0,0.0,0.0,0.0,0.0,0.0,0.0,0.0,0.0,0.0,0.0,0.0,0.0,0.0,0.0,0.0,0.0,0.0,0.0,0.0,0.0,0.0,0.0,0.0,0.0,0.0,0.0,0.0,0.0,0.0,0.0,0.0,0.0,0.0,0.0,0.0,0.0,0.0,0.0,0.0,0.0,0.0,0.0,0.0,0.0,0.0,0.0,0.0,0.0,0.0,0.0,0.0,0.0,0.0,0.0,0.0,0.0,0.0,0.0,0.0,0.0,0.0,0.0,0.0,0.0,0.0,0.0,0.0,0.0,0.0,0.0,0.0,0.0,0.0,0.0,0.0,0.0,0.0,0.0,0.0,0.0,0.0,0.0,0.0,0.0,0.0,0.0,0.0,0.0,0.0,0.0,0.0,0.0,0.0,0.0,0.0,0.0,0.0,0.0,0.0,0.0,0.0,0.0,0.0,0.0,0.0,0.0,0.0,0.0,0.0,0.0,0.0,0.0,0.0,0.0,0.0,0.0,0.0,0.0,0.0,0.0,0.0,0.0,0.0,0.0,0.0,0.0,0.0,0.0,0.0,0.0,0.0,0.0,0.0,0.0,0.0,0.0,0.0,0.0,0.0,0.0,0.0,0.0,0.0,0.0,0.0,0.0,0.0,0.0,0.0,0.0,0.0,0.0,0.0,0.0,0.0,0.0,0.0,0.0,0.0,0.0,0.0,0.0,0.0,0.0,0.0,0.0,0.0,0.0,0.0,0.0,0.0,0.0,0.0,0.0,0.0,0.0,0.0,0.0,0.0,0.0,0.0,0.0,0.0,0.0,0.0,0.0,0.0,0.0,0.0,0.0,0.0,0.0,0.0,0.0,0.0,0.0,0.0,0.0,0.0,0.0,0.0,0.0,0.0,0.0,0.0,0.0,0.0,0.0,0.0,0.0,0.0,0.0,0.0,0.0,0.0,0.0,0.0,0.0,0.0,0.0,0.0,0.0,0.0,0.0,0.0,0.0,0.0,0.0,0.0,0.0,0.0,0.0,0.0,0.0,0.0,0.0,0.0,0.0,0.0,0.0,0.0,0.0,0.0,0.0,0.0,0.0,0.0,0.0,0.0,0.0,0.0,0.0,0.0,0.0,0.0,0.0,0.0,0.0,0.0,0.0,0.0,0.0,0.0,0.0,0.0,0.0,0.0,0.0,0.0,0.0,0.0,0.0,0.0,0.0,0.0,0.0,0.0,0.0,0.0,0.0,0.0,0.0,0.0,0.0,0.0,0.0,0.0,0.0,0.0,0.0,0.0,0.0,0.0,0.0,0.0,0.0,0.0,0.0,0.0,0.0,0.0,0.0,0.0,0.0,0.0,0.0,0.0,0.0,0.0,0.0,0.0,0.0,0.0,0.0,0.0,0.0,0.0,0.0,0.0,0.0,0.0,0.0,0.0,0.0,0.0,0.0,0.0,0.0,0.0,0.0,0.0,0.0,0.0,0.0,0.0,0.0,0.0,0.0,0.0,0.0,0.0,0.0,0.0,0.0,0.0,0.0,0.0,0.0,0.0,0.0,0.0,0.0,0.0,0.0,0.0,0.0,0.0,0.0,0.0,0.0,0.0,0.0,0.0,0.0,0.0,0.0,0.0,0.0,0.0,0.0,0.0,0.0,0.0,0.0,0.0,0.0,0.0,0.0,0.0,0.0,0.0,0.0,0.0,0.0,0.0,0.0,0.0,0.0,0.0,0.0,0.0,0.0,0.0,0.0,0.0,0.0,0.0,0.0,0.0,0.0,0.0,0.0,0.0,0.0,0.0,0.0,0.0,0.0,0.0,0.0,0.0,0.0,0.0,0.0,0.0,0.0,0.0,0.0,0.0,0.0,0.0,0.0,0.0,0.0,0.0,0.0,0.0,0.0,0.0,0.0,0.0,0.0,0.0,0.0,0.0,0.0,0.0,0.0,0.0,0.0,0.0,0.0,0.0,0.0,0.0,0.0,0.0,0.0,0.0,0.0,0.0,0.0,0.0,0.0,0.0,0.0,0.0,0.0,0.0,0.0,0.0,0.0,0.0,0.0,0.0,0.0,0.0,0.0,0.0,0.0,0.0,0.0,0.0,0.0,0.0,0.0,0.0,0.0,0.0,0.0,0.0,0.0,0.0,0.0,0.0,0.0,0.0,0.0,0.0,0.0,0.0,0.0,0.0,0.0,0.0,0.0,0.0,0.0,0.0,0.0,0.0,0.0,0.0,0.0,0.0,0.0,0.0,0.0,0.0,0.0,0.0,0.0,0.0,0.0,0.0,0.0,0.0,0.0,0.0,0.0,0.0,0.0,0.0,0.0,0.0,0.0,0.0,0.0,0.0,0.0,0.0,0.0,0.0,0.0,0.0,0.0,0.0,0.0,0.0,0.0,0.0,0.0,0.0,0.0,0.0,0.0,0.0,0.0,0.0,0.0,0.0,0.0,0.0,0.0,0.0,0.0,0.0,0.0,0.0,0.0,0.0,0.0,0.0,0.0,0.0,0.0,0.0,0.0,0.0,0.0,0.0,0.0,0.0,0.0,0.0,0.0,0.0,0.0,0.0,0.0,0.0,0.0,0.0,0.0,0.0,0.0,0.0,0.0,0.0,0.0,0.0,0.0,0.0,0.0,0.0,0.0,0.0,0.0,0.0,0.0,0.0,0.0,0.0,0.0,0.0,0.0,0.0,0.0,0.0,0.0,0.0,0.0,0.0,0.0,0.0,0.0,0.0,0.0,0.0,0.0,0.0,0.0,0.0,0.0,0.0,0.0,0.0,0.0,0.0,0.0,0.0,0.0,0.0,0.0,0.0,0.0,0.0,0.0,0.0,0.0,0.0,0.0,0.0,0.0,0.0,0.0,0.0,0.0,0.0,0.0,0.0,0.0,0.0,0.0,0.0,0.0,0.0,0.0,0.0,0.0,0.0,0.0,0.0,0.0,0.0,0.0,0.0,0.0,0.0,0.0,0.0,0.0,0.0,0.0,0.0,0.0,0.0,0.0,0.0,0.0,0.0,0.0,0.0,0.0,0.0,0.0,0.0,0.0,0.0,0.0,0.0,0.0,0.0,0.0,0.0,0.0,0.0,0.0,0.0,0.0,0.0,0.0,0.0,0.0,0.0,0.0,0.0,0.0,0.0,0.0,0.0,0.0,0.0,0.0,0.0,0.0,0.0,0.0,0.0,0.0,0.0,0.0,0.0,0.0,0.0,0.0,0.0,0.0,0.0,0.0,0.0,0.0,0.0,0.0,0.0,0.0,0.0,0.0,0.0,0.0,0.0,0.0,0.0,0.0,0.0,0.0,0.0,0.0,0.0,0.0,0.0,0.0,0.0,0.0,0.0,0.0,0.0,0.0,0.0,0.0,0.0,0.0,0.0,0.0,0.0,0.0,0.0,0.0,0.0,0.0,0.0,0.0,0.0,0.0,0.0,0.0,0.0,0.0,0.0,0.0,0.0,0.0,0.0,0.0,0.0,0.0,0.0,0.0,0.0,0.0,0.0,0.0,0.0,0.0,0.0,0.0,0.0,0.0,0.0,0.0,0.0,0.0,0.0,0.0,0.0,0.0,0.0,0.0,0.0,0.0,0.0,0.0,0.0,0.0,0.0,0.0,0.0,0.0,0.0,0.0,0.0,0.0,0.0,0.0,0.0,0.0,0.0,0.0,0.0,0.0,0.0,0.0,0.0,0.0,0.0,0.0,0.0,0.0,0.0,0.0,0.0,0.0,0.0,0.0,0.0,0.0,0.0,0.0,0.0,0.0,0.0,0.0,0.0,0.0,0.0,0.0,0.0,0.0,0.0,0.0,0.0,0.0,0.0,0.0,0.0,0.0,0.0,0.0,0.0,0.0,0.0,0.0,0.0,0.0,0.0,0.0,0.0,0.0,0.0,0.0,0.0,0.0,0.0,0.0,0.0,0.0,0.0,0.0,0.0,0.0,0.0,0.0,0.0,0.0,0.0,0.0,0.0,0.0,0.0,0.0,0.0,0.0,0.0,0.0,0.0,0.0,0.0,0.0,0.0,0.0,0.0,0.0,0.0,0.0,0.0,0.0,0.0,0.0,0.0,-2.6189,0.0,0.0,0.0,0.0,0.0,0.0,0.0,0.0,0.0,0.0,0.0,0.0,0.0,0.0,0.0,0.0,0.0,0.0,0.0,0.0,0.0,0.0,0.0,0.0,0.0,0.0,0.0,0.0,0.0,0.0,0.0,0.0,0.0,0.0,0.0,0.0,0.0,0.0,0.0,0.0,0.0,0.0,0.0,0.0,0.0,0.0,0.0,0.0,0.0,0.0,0.0,0.0,0.0,0.0,0.0,0.0,0.0,0.0,0.0,0.0,0.0,0.0,0.0,0.0,0.0,0.0,0.0,0.0,0.0,0.0,0.0,0.0,0.0,0.0,0.0,0.0,0.0,0.0,0.0,0.0,0.0,0.0,0.0,0.0,0.0,0.0,0.0,0.0,0.0,0.0,0.0,0.0,0.0,0.0,0.0,0.0,0.0,0.0,0.0,0.0,0.0,0.0,0.0,0.0,0.0,0.0,0.0,0.0,0.0,0.0,-2.6457,-2.6031,-2.59,-2.5656,-2.5288,0.0,0.0,0.0,0.0,0.0,0.0,0.0,0.0,0.0,0.0,0.0,0.0,0.0,0.0,0.0,0.0,0.0,0.0,0.0,0.0,0.0,0.0,0.0,0.0,0.0,0.0,0.0,0.0,0.0,0.0,0.0,0.0,0.0,0.0,0.0,0.0,0.0,0.0,0.0,0.0,0.0,0.0,0.0,0.0,0.0,0.0,0.0,0.0,0.0,0.0,0.0,0.0,0.0,0.0,0.0,0.0,0.0,0.0,0.0,0.0,0.0,0.0,0.0,0.0,0.0,0.0,0.0,0.0,0.0,0.0,0.0,0.0,0.0,0.0,0.0,0.0,0.0,0.0,0.0,0.0,0.0,0.0,0.0,0.0,0.0,0.0,0.0,0.0,0.0,0.0,0.0,0.0,0.0,0.0,0.0,0.0,0.0,0.0,0.0,0.0,0.0,0.0,0.0,0.0,0.0,0.0,0.0,0.0,0.0,0.0,0.0,0.0,-2.5234,-2.4857,-2.4301,0.0,0.0,0.0,0.0,0.0,0.0,0.0,0.0,0.0,0.0,0.0,0.0,0.0,0.0,0.0,0.0,0.0,0.0,0.0,0.0,0.0,0.0,0.0,0.0,0.0,0.0,0.0,0.0,0.0,0.0,0.0,0.0,0.0,0.0,0.0,0.0,0.0,0.0,0.0,0.0,0.0,0.0,0.0,0.0,0.0,0.0,0.0,0.0,0.0,0.0,0.0,0.0,0.0,0.0,0.0,0.0,0.0,0.0,0.0,0.0,0.0,0.0,0.0,0.0,0.0,0.0,0.0,0.0,0.0,0.0,0.0,0.0,0.0,0.0,0.0,0.0,0.0,0.0,0.0,0.0,0.0,0.0,0.0,0.0,0.0,0.0,0.0,0.0,0.0,0.0,0.0,0.0,0.0,0.0,0.0,0.0,0.0,0.0,0.0,0.0,0.0,0.0,0.0,0.0,0.0,0.0,0.0,0.0,0.0,0.0,-2.5226,-2.5173,-2.4224,0.0,-2.3238,0.0,0.0,0.0,0.0,0.0,0.0,0.0,0.0,0.0,0.0,0.0,0.0,0.0,0.0,0.0,0.0,0.0,0.0,0.0,0.0,0.0,0.0,0.0,0.0,0.0,0.0,0.0,0.0,0.0,0.0,0.0,0.0,0.0,0.0,0.0,0.0,0.0,0.0,0.0,0.0,0.0,0.0,0.0,0.0,0.0,0.0,0.0,0.0,0.0,0.0,0.0,0.0,0.0,0.0,0.0,0.0,0.0,0.0,0.0,0.0,0.0,0.0,0.0,0.0,0.0,0.0,0.0,0.0,0.0,0.0,0.0,0.0,0.0,0.0,0.0,0.0,0.0,0.0,0.0,0.0,0.0,0.0,0.0,0.0,0.0,0.0,0.0,0.0,0.0,0.0,0.0,0.0,0.0,0.0,0.0,0.0,0.0,0.0,0.0,0.0,0.0,0.0,0.0,0.0,0.0,0.0,0.0,0.0,0.0,0.0,-2.4307,-2.3688,-2.2704,-2.2024,0.0,0.0,0.0,0.0,0.0,0.0,0.0,0.0,0.0,0.0,0.0,0.0,0.0,0.0,0.0,0.0,0.0,0.0,0.0,0.0,0.0,0.0,0.0,0.0,0.0,0.0,0.0,0.0,0.0,0.0,0.0,0.0,0.0,0.0,0.0,0.0,0.0,0.0,0.0,0.0,0.0,0.0,0.0,0.0,0.0,0.0,0.0,0.0,0.0,0.0,0.0,0.0,0.0,0.0,0.0,0.0,0.0,0.0,0.0,0.0,0.0,0.0,0.0,0.0,0.0,0.0,0.0,0.0,0.0,0.0,0.0,0.0,0.0,0.0,0.0,0.0,0.0,0.0,0.0,0.0,0.0,0.0,0.0,0.0,0.0,0.0,0.0,0.0,0.0,0.0,0.0,0.0,0.0,0.0,0.0,0.0,0.0,0.0,0.0,0.0,0.0,0.0,0.0,0.0,0.0,0.0,0.0,0.0,0.0,0.0,-2.4168,-2.321,-2.2094,-2.1245,-2.0606,-2.0303,0.0,0.0,0.0,0.0,0.0,0.0,0.0,0.0,0.0,0.0,0.0,0.0,0.0,0.0,0.0,0.0,0.0,0.0,0.0,0.0,0.0,0.0,0.0,0.0,0.0,0.0,0.0,0.0,0.0,0.0,0.0,0.0,0.0,0.0,0.0,0.0,0.0,0.0,0.0,0.0,0.0,0.0,0.0,0.0,0.0,0.0,0.0,0.0,0.0,0.0,0.0,0.0,0.0,0.0,0.0,0.0,0.0,0.0,0.0,0.0,0.0,0.0,0.0,0.0,0.0,0.0,0.0,0.0,0.0,0.0,0.0,0.0,0.0,0.0,0.0,0.0,0.0,0.0,0.0,0.0,0.0,0.0,0.0,0.0,0.0,0.0,0.0,0.0,0.0,0.0,0.0,0.0,0.0,0.0,0.0,0.0,0.0,0.0,0.0,0.0,0.0,0.0,0.0,0.0,0.0,0.0,0.0,0.0,-2.4627,-2.3369,-2.1997,-2.0463,-1.9967,-1.9605,0.0,0.0,0.0,0.0,0.0,0.0,0.0,0.0,0.0,0.0,0.0,0.0,0.0,0.0,0.0,0.0,0.0,0.0,0.0,0.0,0.0,0.0,0.0,0.0,0.0,0.0,0.0,0.0,0.0,0.0,0.0,0.0,0.0,0.0,0.0,0.0,0.0,0.0,0.0,0.0,0.0,0.0,0.0,0.0,0.0,0.0,0.0,0.0,0.0,0.0,0.0,0.0,0.0,0.0,0.0,0.0,0.0,0.0,0.0,0.0,0.0,0.0,0.0,0.0,0.0,0.0,0.0,0.0,0.0,0.0,0.0,0.0,0.0,0.0,0.0,0.0,0.0,0.0,0.0,0.0,0.0,0.0,0.0,0.0,0.0,0.0,0.0,0.0,0.0,0.0,0.0,0.0,0.0,0.0,0.0,0.0,0.0,0.0,0.0,0.0,0.0,0.0,0.0,0.0,0.0,0.0,0.0,0.0,0.0,-2.368,-2.2008,-2.0355,-1.8765,-1.8871,-1.873,0.0,0.0,0.0,0.0,0.0,0.0,0.0,0.0,0.0,0.0,0.0,0.0,0.0,0.0,0.0,0.0,0.0,0.0,0.0,0.0,0.0,0.0,0.0,0.0,0.0,0.0,0.0,0.0,0.0,0.0,0.0,0.0,0.0,0.0,0.0,0.0,0.0,0.0,0.0,0.0,0.0,0.0,0.0,0.0,0.0,0.0,0.0,0.0,0.0,0.0,0.0,0.0,0.0,0.0,0.0,0.0,0.0,0.0,0.0,0.0,0.0,0.0,0.0,0.0,0.0,0.0,0.0,0.0,0.0,0.0,0.0,0.0,0.0,0.0,0.0,0.0,0.0,0.0,0.0,0.0,0.0,0.0,0.0,0.0,0.0,0.0,0.0,0.0,0.0,0.0,0.0,0.0,0.0,0.0,0.0,0.0,0.0,0.0,0.0,0.0,0.0,0.0,0.0,0.0,0.0,0.0,0.0,0.0,0.0,-2.2309,0.0,-1.8974,-1.7768,-1.7812,-1.7706,0.0,0.0,0.0,0.0,0.0,0.0,0.0,0.0,0.0,0.0,0.0,0.0,0.0,0.0,0.0,0.0,0.0,0.0,0.0,0.0,0.0,0.0,0.0,0.0,0.0,0.0,0.0,0.0,0.0,0.0,0.0,0.0,0.0,0.0,0.0,0.0,0.0,0.0,0.0,0.0,0.0,0.0,0.0,0.0,0.0,0.0,0.0,0.0,0.0,0.0,0.0,0.0,0.0,0.0,0.0,0.0,0.0,0.0,0.0,0.0,0.0,0.0,0.0,0.0,0.0,0.0,0.0,0.0,0.0,0.0,0.0,0.0,0.0,0.0,0.0,0.0,0.0,0.0,0.0,0.0,0.0,0.0,0.0,0.0,0.0,0.0,0.0,0.0,0.0,0.0,0.0,0.0,0.0,0.0,0.0,0.0,0.0,0.0,0.0,0.0,0.0,0.0,0.0,0.0,0.0,0.0,0.0,0.0,-2.2867,-2.0395,-1.9047,-1.8079,-1.7515,-1.6834,-1.6575,0.0,0.0,0.0,0.0,0.0,0.0,0.0,0.0,0.0,0.0,0.0,0.0,0.0,0.0,0.0,0.0,0.0,0.0,0.0,0.0,0.0,0.0,0.0,0.0,0.0,0.0,0.0,0.0,0.0,0.0,0.0,0.0,0.0,0.0,0.0,0.0,0.0,0.0,0.0,0.0,0.0,0.0,0.0,0.0,0.0,0.0,0.0,0.0,0.0,0.0,0.0,0.0,0.0,0.0,0.0,0.0,0.0,0.0,0.0,0.0,0.0,0.0,0.0,0.0,0.0,0.0,0.0,0.0,0.0,0.0,0.0,0.0,0.0,0.0,0.0,0.0,0.0,0.0,0.0,0.0,0.0,0.0,0.0,0.0,0.0,0.0,0.0,0.0,0.0,0.0,0.0,0.0,0.0,0.0,0.0,0.0,0.0,0.0,0.0,0.0,0.0,0.0,0.0,0.0,0.0,0.0,0.0,0.0,0.0,-1.9918,-1.8778,-1.7869,-1.7068,-1.6993,-1.6829,0.0,0.0,0.0,0.0,0.0,0.0,0.0,0.0,0.0,0.0,0.0,0.0,0.0,0.0,0.0,0.0,0.0,0.0,0.0,0.0,0.0,0.0,0.0,0.0,0.0,0.0,0.0,0.0,0.0,0.0,0.0,0.0,0.0,0.0,0.0,0.0,0.0,0.0,0.0,0.0,0.0,0.0,0.0,0.0,0.0,0.0,0.0,0.0,0.0,0.0,0.0,0.0,0.0,0.0,0.0,0.0,0.0,0.0,0.0,0.0,0.0,0.0,0.0,0.0,0.0,0.0,0.0,0.0,0.0,0.0,0.0,0.0,0.0,0.0,0.0,0.0,0.0,0.0,0.0,0.0,0.0,0.0,0.0,0.0,0.0,0.0,0.0,0.0,0.0,0.0,0.0,0.0,0.0,0.0,0.0,0.0,0.0,0.0,0.0,0.0,0.0,0.0,0.0,0.0,0.0,0.0,0.0,0.0,0.0,-1.9396,-1.8488,-1.7636,-1.6864,-1.679,-1.6615,-1.6317,0.0,0.0,0.0,0.0,0.0,0.0,0.0,0.0,0.0,0.0,0.0,0.0,0.0,0.0,0.0,0.0,0.0,0.0,0.0,0.0,0.0,0.0,0.0,0.0,0.0,0.0,0.0,0.0,0.0,0.0,0.0,0.0,0.0,0.0,0.0,0.0,0.0,0.0,0.0,0.0,0.0,0.0,0.0,0.0,0.0,0.0,0.0,0.0,0.0,0.0,0.0,0.0,0.0,0.0,0.0,0.0,0.0,0.0,0.0,0.0,0.0,0.0,0.0,0.0,0.0,0.0,0.0,0.0,0.0,0.0,0.0,0.0,0.0,0.0,0.0,0.0,0.0,0.0,0.0,0.0,0.0,0.0,0.0,0.0,0.0,0.0,0.0,0.0,0.0,0.0,0.0,0.0,0.0,0.0,0.0,0.0,0.0,0.0,0.0,0.0,0.0,0.0,0.0,0.0,0.0,0.0,0.0,0.0,-1.8829,-1.807,-1.7411,-1.6847,-1.6308,-1.6142,0.0,0.0,0.0,0.0,0.0,0.0,0.0,0.0,0.0,0.0,0.0,0.0,0.0,0.0,0.0,0.0,0.0,0.0,0.0,0.0,0.0,0.0,0.0,0.0,0.0,0.0,0.0,0.0,0.0,0.0,0.0,0.0,0.0,0.0,0.0,0.0,0.0,0.0,0.0,0.0,0.0,0.0,0.0,0.0,0.0,0.0,0.0,0.0,0.0,0.0,0.0,0.0,0.0,0.0,0.0,0.0,0.0,0.0,0.0,0.0,0.0,0.0,0.0,0.0,0.0,0.0,0.0,0.0,0.0,0.0,0.0,0.0,0.0,0.0,0.0,0.0,0.0,0.0,0.0,0.0,0.0,0.0,0.0,0.0,0.0,0.0,0.0,0.0,0.0,0.0,0.0,0.0,0.0,0.0,0.0,0.0,0.0,0.0,0.0,0.0,0.0,0.0,0.0,0.0,0.0,0.0,0.0,0.0,0.0,-1.8001,-1.7902,-1.7585,-1.6951,-1.6661,-1.6401,0.0,0.0,0.0,0.0,0.0,0.0,0.0,0.0,0.0,0.0,0.0,0.0,0.0,0.0,0.0,0.0,0.0,0.0,0.0,0.0,0.0,0.0,0.0,0.0,0.0,0.0,0.0,0.0,0.0,0.0,0.0,0.0,0.0,0.0,0.0,0.0,0.0,0.0,0.0,0.0,0.0,0.0,0.0,0.0,0.0,0.0,0.0,0.0,0.0,0.0,0.0,0.0,0.0,0.0,0.0,0.0,0.0,0.0,0.0,0.0,0.0,0.0,0.0,0.0,0.0,0.0,0.0,0.0,0.0,0.0,0.0,0.0,0.0,0.0,0.0,0.0,0.0,0.0,0.0,0.0,0.0,0.0,0.0,0.0,0.0,0.0,0.0,0.0,0.0,0.0,0.0,0.0,0.0,0.0,0.0,0.0,0.0,0.0,0.0,0.0,0.0,0.0,0.0,0.0,0.0,0.0,0.0,0.0,-1.8547,-1.7883,-1.7866,-1.7675,-1.7303,-1.6888,-1.6547,0.0,0.0,0.0,0.0,0.0,0.0,0.0,0.0,0.0,0.0,0.0,0.0,0.0,0.0,0.0,0.0,0.0,0.0,0.0,0.0,0.0,0.0,0.0,0.0,0.0,0.0,0.0,0.0,0.0,0.0,0.0,0.0,0.0,0.0,0.0,0.0,0.0,0.0,0.0,0.0,0.0,0.0,0.0,0.0,0.0,0.0,0.0,0.0,0.0,0.0,0.0,0.0,0.0,0.0,0.0,0.0,0.0,0.0,0.0,0.0,0.0,0.0,0.0,0.0,0.0,0.0,0.0,0.0,0.0,0.0,0.0,0.0,0.0,0.0,0.0,0.0,0.0,0.0,0.0,0.0,0.0,0.0,0.0,0.0,0.0,0.0,0.0,0.0,0.0,0.0,0.0,0.0,0.0,0.0,0.0,0.0,0.0,0.0,0.0,0.0,0.0,0.0,0.0,0.0,0.0,0.0,0.0,0.0,-1.8536,-1.8139,-1.7995,-1.7851,-1.7658,-1.7071,-1.6603,0.0,0.0,0.0,0.0,0.0,0.0,0.0,0.0,0.0,0.0,0.0,0.0,0.0,0.0,0.0,0.0,0.0,0.0,0.0,0.0,0.0,0.0,0.0,0.0,0.0,0.0,0.0,0.0,0.0,0.0,0.0,0.0,0.0,0.0,0.0,0.0,0.0,0.0,0.0,0.0,0.0,0.0,0.0,0.0,0.0,0.0,0.0,0.0,0.0,0.0,0.0,0.0,0.0,0.0,0.0,0.0,0.0,0.0,0.0,0.0,0.0,0.0,0.0,0.0,0.0,0.0,0.0,0.0,0.0,0.0,0.0,0.0,0.0,0.0,0.0,0.0,0.0,0.0,0.0,0.0,0.0,0.0,0.0,0.0,0.0,0.0,0.0,0.0,0.0,0.0,0.0,0.0,0.0,0.0,0.0,0.0,0.0,0.0,0.0,0.0,0.0,0.0,0.0,0.0,0.0,0.0,0.0,0.0,-1.8276,-1.7973,-1.8036,-1.7849,-1.7464,-1.7308,-1.6937,0.0,0.0,0.0,0.0,0.0,0.0,0.0,0.0,0.0,0.0,0.0,0.0,0.0,0.0,0.0,0.0,0.0,0.0,0.0,0.0,0.0,0.0,0.0,0.0,0.0,0.0,0.0,0.0,0.0,0.0,0.0,0.0,0.0,0.0,0.0,0.0,0.0,0.0,0.0,0.0,0.0,0.0,0.0,0.0,0.0,0.0,0.0,0.0,-0.779,0.0,0.0,0.0,0.0,0.0,0.0,0.0,0.0,0.0,0.0,0.0,0.0,0.0,0.0,0.0,0.0,0.0,0.0,0.0,0.0,0.0,0.0,0.0,0.0,0.0,0.0,0.0,0.0,0.0,0.0,0.0,0.0,0.0,0.0,0.0,0.0,0.0,0.0,0.0,0.0,0.0,0.0,0.0,0.0,0.0,0.0,0.0,0.0,0.0,0.0,0.0,0.0,0.0,0.0,0.0,0.0,0.0,0.0,0.0,-1.79,-1.7801,-1.7963,-1.7916,-1.7561,-1.754,-1.7152,0.0,0.0,0.0,0.0,0.0,0.0,0.0,0.0,0.0,0.0,0.0,0.0,0.0,0.0,0.0,0.0,0.0,0.0,0.0,0.0,0.0,0.0,0.0,0.0,0.0,0.0,0.0,0.0,0.0,0.0,0.0,0.0,0.0,0.0,0.0,0.0,0.0,0.0,0.0,0.0,0.0,0.0,0.0,0.0,0.0,0.0,0.0,0.0,0.0,0.0,0.0,0.0,0.0,0.0,0.0,0.0,0.0,0.0,0.0,0.0,0.0,0.0,0.0,0.0,0.0,0.0,0.0,0.0,0.0,0.0,0.0,0.0,0.0,0.0,0.0,0.0,0.0,0.0,0.0,0.0,0.0,0.0,0.0,0.0,0.0,0.0,0.0,0.0,0.0,0.0,0.0,0.0,0.0,0.0,0.0,0.0,0.0,0.0,0.0,0.0,0.0,0.0,0.0,0.0,0.0,0.0,0.0,-1.7736,-1.7648,-1.7706,-1.7997,-1.8008,-1.7728,-1.7717,-1.7276,-1.6355,0.0,0.0,0.0,0.0,0.0,0.0,0.0,0.0,0.0,0.0,0.0,0.0,0.0,0.0,0.0,0.0,0.0,0.0,0.0,0.0,0.0,0.0,0.0,0.0,0.0,0.0,0.0,0.0,0.0,0.0,0.0,0.0,0.0,0.0,0.0,0.0,0.0,0.0,-0.7958,-0.7913,0.0,0.0,0.0,0.0,0.0,0.0,0.0,0.0,-0.8209,0.0,0.0,0.0,0.0,0.0,0.0,0.0,0.0,0.0,0.0,0.0,0.0,0.0,0.0,0.0,0.0,0.0,0.0,0.0,0.0,0.0,0.0,0.0,0.0,0.0,0.0,0.0,0.0,0.0,0.0,0.0,0.0,0.0,0.0,0.0,0.0,0.0,0.0,0.0,0.0,0.0,0.0,0.0,0.0,0.0,0.0,0.0,0.0,0.0,0.0,0.0,0.0,0.0,0.0,0.0,0.0,-1.741,-1.7812,-1.7983,-1.7723,-1.8148,-1.8169,-1.7744,-1.7717,-1.7276,-1.6361,0.0,0.0,0.0,0.0,0.0,0.0,0.0,0.0,0.0,0.0,0.0,0.0,0.0,0.0,0.0,0.0,0.0,0.0,0.0,0.0,0.0,0.0,0.0,0.0,0.0,0.0,0.0,0.0,0.0,0.0,0.0,0.0,0.0,0.0,0.0,0.0,0.0,0.0,0.0,-0.8111,-0.8168,0.0,0.0,0.0,0.0,0.0,0.0,0.0,0.0,-0.8454,0.0,0.0,0.0,0.0,0.0,0.0,0.0,0.0,0.0,0.0,0.0,0.0,0.0,0.0,0.0,0.0,0.0,0.0,0.0,0.0,0.0,0.0,0.0,0.0,0.0,0.0,0.0,0.0,0.0,0.0,0.0,0.0,0.0,0.0,0.0,0.0,0.0,0.0,0.0,0.0,0.0,0.0,0.0,0.0,0.0,0.0,0.0,0.0,0.0,0.0,0.0,0.0,0.0,0.0,0.0,-1.7421,-1.7752,-1.7922,-1.7916,-1.8256,-1.8138,-1.7744,-1.7717,-1.7144,0.0,0.0,0.0,0.0,0.0,0.0,0.0,0.0,0.0,0.0,0.0,0.0,0.0,0.0,0.0,0.0,0.0,0.0,0.0,0.0,0.0,0.0,0.0,0.0,0.0,0.0,0.0,0.0,0.0,0.0,0.0,0.0,0.0,0.0,0.0,0.0,0.0,0.0,0.0,0.0,-0.8157,-0.8233,-0.8233,0.0,0.0,0.0,0.0,0.0,0.0,-0.8552,-0.8527,0.0,0.0,0.0,0.0,0.0,0.0,0.0,0.0,0.0,0.0,0.0,0.0,0.0,0.0,0.0,0.0,0.0,0.0,0.0,0.0,0.0,0.0,0.0,0.0,0.0,0.0,0.0,0.0,0.0,0.0,0.0,0.0,0.0,0.0,0.0,0.0,0.0,0.0,0.0,0.0,0.0,0.0,0.0,0.0,0.0,0.0,0.0,0.0,0.0,0.0,0.0,0.0,0.0,0.0,0.0,-1.74,-1.7662,-1.7889,-1.8094,-1.832,-1.8207,-1.7739,-1.7717,-1.7078,0.0,0.0,0.0,0.0,0.0,0.0,0.0,0.0,0.0,0.0,0.0,0.0,0.0,0.0,0.0,0.0,0.0,0.0,0.0,0.0,0.0,0.0,0.0,0.0,0.0,0.0,0.0,0.0,0.0,0.0,0.0,0.0,0.0,0.0,0.0,0.0,0.0,0.0,0.0,0.0,0.0,-0.828,-0.8304,-0.8413,0.0,0.0,0.0,0.0,-0.8614,-0.8625,0.0,0.0,0.0,0.0,0.0,0.0,0.0,0.0,0.0,0.0,0.0,0.0,0.0,0.0,0.0,0.0,0.0,0.0,0.0,0.0,0.0,0.0,0.0,0.0,0.0,0.0,0.0,0.0,0.0,0.0,0.0,0.0,0.0,0.0,0.0,0.0,0.0,0.0,0.0,0.0,0.0,0.0,0.0,0.0,0.0,0.0,0.0,0.0,0.0,0.0,0.0,0.0,0.0,0.0,0.0,0.0,-1.7087,-1.7763,-1.8062,-1.8105,-1.8315,-1.8207,-1.7733,-1.7717,-1.7073,0.0,0.0,0.0,0.0,0.0,0.0,0.0,0.0,0.0,0.0,0.0,0.0,0.0,0.0,0.0,0.0,0.0,0.0,0.0,0.0,0.0,0.0,0.0,0.0,0.0,0.0,0.0,0.0,0.0,0.0,0.0,0.0,0.0,0.0,0.0,0.0,0.0,0.0,0.0,0.0,0.0,-0.8432,-0.8532,-0.8652,-0.8723,0.0,0.0,-0.8853,-0.8766,-0.8747,0.0,0.0,0.0,0.0,0.0,0.0,0.0,0.0,0.0,0.0,0.0,0.0,0.0,0.0,0.0,0.0,0.0,0.0,0.0,0.0,0.0,0.0,0.0,0.0,0.0,0.0,0.0,0.0,0.0,0.0,0.0,0.0,0.0,0.0,0.0,0.0,0.0,0.0,0.0,0.0,0.0,0.0,0.0,0.0,0.0,0.0,0.0,0.0,0.0,0.0,0.0,0.0,0.0,0.0,0.0,-1.7167,-1.7405,-1.7863,-1.8159,-1.8282,-1.8315,-1.8207,-1.7733,-1.7717,-1.7013,0.0,0.0,0.0,0.0,0.0,0.0,0.0,0.0,0.0,0.0,0.0,0.0,0.0,0.0,0.0,0.0,0.0,0.0,0.0,0.0,0.0,0.0,0.0,0.0,0.0,0.0,0.0,0.0,0.0,0.0,0.0,0.0,0.0,0.0,0.0,0.0,0.0,0.0,0.0,0.0,0.0,0.0,-0.8658,-0.8736,0.0,0.0,0.0,-0.8863,-0.888,0.0,0.0,0.0,0.0,0.0,0.0,0.0,0.0,0.0,0.0,0.0,0.0,0.0,0.0,0.0,0.0,0.0,0.0,0.0,0.0,0.0,0.0,0.0,0.0,0.0,0.0,0.0,0.0,0.0,0.0,0.0,0.0,0.0,0.0,0.0,0.0,0.0,0.0,0.0,0.0,0.0,0.0,0.0,0.0,0.0,0.0,0.0,0.0,0.0,0.0,0.0,0.0,0.0,0.0,0.0,0.0,0.0,-1.7706,-1.8024,-1.8266,-1.8428,-1.8433,-1.817,-1.7689,-1.7614,0.0,0.0,0.0,0.0,0.0,0.0,0.0,0.0,0.0,0.0,0.0,0.0,0.0,0.0,0.0,0.0,0.0,0.0,0.0,0.0,0.0,0.0,0.0,0.0,0.0,0.0,0.0,-1.0886,0.0,0.0,0.0,0.0,0.0,0.0,0.0,0.0,0.0,0.0,0.0,0.0,0.0,0.0,-0.8399,-0.8725,-0.8796,-0.8859,0.0,0.0,-0.8949,-0.889,-0.8875,-0.8761,0.0,0.0,0.0,0.0,0.0,0.0,0.0,0.0,0.0,0.0,0.0,0.0,0.0,0.0,0.0,0.0,0.0,0.0,0.0,0.0,0.0,0.0,0.0,0.0,0.0,0.0,0.0,0.0,0.0,0.0,0.0,0.0,0.0,0.0,0.0,0.0,0.0,0.0,0.0,0.0,0.0,0.0,0.0,0.0,0.0,0.0,0.0,0.0,0.0,0.0,0.0,0.0,0.0,0.0,0.0,-1.7712,-1.8175,-1.8422,-1.8439,-1.8433,-1.81,-1.7506,-1.7365,-1.6594,0.0,0.0,0.0,0.0,0.0,0.0,0.0,0.0,0.0,0.0,0.0,0.0,0.0,0.0,0.0,0.0,0.0,0.0,0.0,0.0,0.0,0.0,0.0,0.0,0.0,0.0,0.0,0.0,0.0,0.0,0.0,0.0,0.0,0.0,0.0,0.0,0.0,0.0,0.0,0.0,0.0,-0.8494,-0.8736,-0.8867,-0.8914,0.0,0.0,-0.9204,-0.8914,-0.8876,-0.879,-0.8628,0.0,0.0,0.0,0.0,0.0,0.0,0.0,0.0,0.0,0.0,0.0,0.0,0.0,0.0,0.0,0.0,0.0,0.0,0.0,0.0,0.0,0.0,0.0,0.0,0.0,0.0,0.0,0.0,0.0,0.0,0.0,0.0,0.0,0.0,0.0,0.0,0.0,0.0,0.0,0.0,0.0,0.0,0.0,0.0,0.0,0.0,0.0,0.0,0.0,0.0,0.0,0.0,0.0,-1.7313,-1.7943,-1.8412,-1.8649,-1.8654,-1.8794,-1.8478,-1.7741,-1.7517,-1.6742,0.0,0.0,0.0,0.0,0.0,0.0,0.0,0.0,0.0,0.0,0.0,0.0,0.0,0.0,0.0,0.0,0.0,0.0,0.0,0.0,0.0,0.0,0.0,0.0,0.0,0.0,0.0,0.0,-0.9595,-0.947,-0.9163,0.0,0.0,0.0,0.0,0.0,0.0,0.0,0.0,0.0,0.0,-0.8611,-0.8848,-0.8986,0.0,0.0,-0.9277,-0.9247,-0.9019,-0.8995,-0.8984,-0.8739,-0.8562,0.0,0.0,0.0,0.0,0.0,0.0,0.0,0.0,0.0,0.0,0.0,0.0,0.0,0.0,0.0,0.0,0.0,0.0,0.0,0.0,0.0,0.0,0.0,0.0,0.0,0.0,0.0,0.0,0.0,0.0,0.0,0.0,0.0,0.0,0.0,0.0,0.0,0.0,0.0,0.0,0.0,0.0,0.0,0.0,0.0,0.0,0.0,0.0,0.0,0.0,0.0,0.0,-1.7324,-1.8186,-1.8514,-1.8745,-1.8891,-1.8913,-1.8626,-1.7943,-1.7499,-1.6653,0.0,0.0,0.0,0.0,0.0,0.0,0.0,0.0,0.0,0.0,0.0,0.0,0.0,0.0,0.0,0.0,0.0,0.0,0.0,0.0,0.0,0.0,0.0,0.0,0.0,0.0,0.0,0.0,-0.9338,-0.9142,-0.8655,0.0,0.0,0.0,0.0,0.0,0.0,0.0,0.0,0.0,0.0,-0.8717,-0.8855,-0.8984,-0.9177,-0.9285,-0.9275,-0.9212,-0.9025,-0.9052,-0.8957,-0.8747,0.0,0.0,0.0,0.0,0.0,0.0,0.0,0.0,0.0,0.0,0.0,0.0,0.0,0.0,0.0,0.0,0.0,0.0,0.0,0.0,0.0,0.0,0.0,0.0,0.0,0.0,0.0,0.0,0.0,0.0,-2.3562,0.0,0.0,0.0,0.0,0.0,0.0,0.0,0.0,0.0,0.0,0.0,0.0,0.0,0.0,0.0,0.0,0.0,0.0,0.0,0.0,0.0,0.0,-1.726,-1.8406,-1.8385,-1.861,-1.905,-1.8706,-1.8336,-1.7956,-1.7015,-1.5961,-1.5001,0.0,0.0,0.0,0.0,0.0,0.0,0.0,0.0,0.0,0.0,0.0,0.0,0.0,0.0,0.0,0.0,0.0,0.0,0.0,0.0,0.0,0.0,0.0,0.0,0.0,0.0,-0.9091,-0.8853,-0.8508,0.0,0.0,0.0,0.0,0.0,0.0,0.0,0.0,0.0,0.0,-0.8619,-0.8812,-0.8865,-0.8987,-0.9174,-0.9285,-0.9207,-0.9025,-0.8911,-0.8864,-0.8736,0.0,0.0,0.0,0.0,0.0,0.0,0.0,0.0,0.0,0.0,0.0,0.0,0.0,0.0,0.0,0.0,0.0,0.0,0.0,0.0,0.0,0.0,0.0,0.0,0.0,0.0,0.0,-2.4995,-2.5086,0.0,0.0,0.0,0.0,0.0,0.0,0.0,0.0,0.0,0.0,0.0,-1.8219,-1.7924,0.0,0.0,0.0,0.0,0.0,0.0,0.0,0.0,0.0,0.0,0.0,0.0,-1.7642,-1.8622,-1.8755,-1.8918,-1.8938,-1.8931,-1.8489,-1.7451,-1.6949,-1.5834,-1.401,0.0,0.0,0.0,0.0,0.0,0.0,0.0,0.0,0.0,0.0,0.0,0.0,0.0,0.0,0.0,0.0,0.0,0.0,0.0,0.0,0.0,0.0,0.0,0.0,0.0,-0.8519,0.0,0.0,0.0,0.0,0.0,0.0,0.0,0.0,0.0,0.0,0.0,-0.853,-0.853,-0.881,-0.8997,-0.889,-0.8987,-0.915,0.0,0.0,0.0,0.0,0.0,0.0,0.0,0.0,0.0,0.0,0.0,0.0,0.0,0.0,-0.9278,-0.9787,-0.9885,-1.0015,-1.0404,0.0,0.0,0.0,0.0,0.0,0.0,0.0,0.0,0.0,0.0,0.0,0.0,0.0,0.0,0.0,0.0,-2.4559,0.0,0.0,0.0,0.0,0.0,0.0,0.0,0.0,-1.8579,-1.8541,-1.8197,-1.8125,-1.7957,0.0,-1.7443,-1.745,0.0,0.0,0.0,0.0,0.0,0.0,0.0,0.0,-1.7965,-1.8869,-1.8918,-1.8938,-1.9015,-1.8713,-1.8113,-1.7218,-1.6429,-1.5121,-1.3274,-1.2348,-1.1435,0.0,0.0,0.0,0.0,0.0,0.0,0.0,0.0,0.0,0.0,0.0,0.0,0.0,0.0,0.0,0.0,0.0,0.0,0.0,0.0,0.0,0.0,0.0,-0.8446,0.0,0.0,0.0,0.0,0.0,0.0,0.0,0.0,0.0,-0.819,-0.8454,-0.8652,-0.8652,-0.8929,-0.9033,-0.8954,0.0,0.0,0.0,0.0,0.0,0.0,0.0,-0.8882,-0.8882,-0.8882,-0.8855,-0.8848,-0.8706,-0.8695,-0.8968,0.0,0.0,-0.9689,-0.9792,-0.9858,-1.0126,-1.0389,-1.052,-1.052,-1.0647,-1.0713,0.0,0.0,0.0,0.0,0.0,0.0,0.0,0.0,-2.5897,-2.6018,0.0,-2.5564,0.0,0.0,0.0,0.0,0.0,-1.9031,0.0,0.0,-1.8852,-1.908,-1.8783,-1.8988,-1.905,-1.9066,-1.9007,-1.9007,-1.9025,-1.7728,0.0,0.0,0.0,0.0,0.0,0.0,-1.8132,-1.9033,-1.8706,-1.8711,-1.9067,-1.7954,-1.735,-1.7259,-1.5385,-1.3925,-1.291,-1.1797,-1.1054,-1.0602,-0.9664,0.0,0.0,0.0,0.0,0.0,0.0,0.0,0.0,0.0,0.0,0.0,0.0,0.0,0.0,0.0,0.0,0.0,0.0,0.0,0.0,-0.8522,0.0,0.0,0.0,0.0,0.0,0.0,0.0,0.0,0.0,0.0,-0.8429,-0.863,-0.8777,-0.8783,0.0,0.0,0.0,0.0,-0.9296,-0.9294,-0.9201,-0.9128,-0.9065,-0.9033,-0.8884,-0.889,0.0,0.0,-0.8887,-0.8887,-0.8879,-0.8884,-0.8951,-0.9165,-0.9853,-0.9965,-0.9962,-1.0034,-1.0022,-1.0049,-1.0049,-1.0069,-1.0081,-2.5933,0.0,0.0,0.0,0.0,-2.5611,-2.5692,-2.5596,-2.5431,-2.5242,-2.4967,-2.3958,0.0,0.0,0.0,0.0,0.0,0.0,-1.9386,-1.8541,-1.8986,-1.9028,-1.8789,-1.8853,-1.8885,-1.8885,-1.8713,-1.8729,-1.8864,-1.8476,-1.8256,-1.8223,0.0,0.0,0.0,0.0,-1.8096,-1.8597,-1.8491,-1.8195,-1.7954,-1.7269,-1.6424,-1.5271,-1.4103,-1.313,-1.2353,-1.1797,-1.0989,-0.9874,-0.9572,0.0,0.0,0.0,0.0,0.0,0.0,0.0,0.0,0.0,0.0,0.0,0.0,0.0,0.0,0.0,0.0,0.0,0.0,0.0,-0.8522,-0.8568,-0.8527,0.0,0.0,0.0,0.0,0.0,0.0,0.0,0.0,0.0,-0.8658,-0.8804,-0.8932,0.0,0.0,-0.9226,-0.9073,-0.916,-0.9182,-0.9185,-0.9008,0.0,0.0,-0.8963,-0.8911,-0.8998,-0.915,-0.9177,-0.9025,-0.9011,-0.9014,-0.9082,-0.9011,-0.9106,-0.9388,-0.9549,-0.9724,-0.9917,-0.9989,-0.9989,-0.9989,-0.9989,-0.9992,-2.6288,-2.581,-2.6088,-2.5969,-2.5628,-2.6007,-2.5892,-2.5404,-2.5459,-2.5203,-2.4702,-2.3703,-2.2911,-2.2196,-2.0611,0.0,0.0,0.0,-1.941,-1.8939,-1.9182,-1.9257,-1.9208,-1.9203,-1.9203,-1.9198,-1.9063,-1.9063,-1.9208,-1.9208,-1.9085,-1.8859,0.0,0.0,-1.8232,-1.823,-1.8192,-1.8171,-1.8026,-1.7596,-1.6959,-1.619,-1.519,-1.3964,-1.3197,-1.257,-1.2016,-1.1457,-1.0702,-0.982,-0.9493,-0.9065,0.0,0.0,0.0,0.0,0.0,0.0,0.0,0.0,0.0,0.0,0.0,-0.7633,-0.7826,0.0,0.0,0.0,-0.8486,-0.8593,-0.8725,-0.869,0.0,0.0,0.0,0.0,0.0,0.0,0.0,-0.8478,-0.863,-0.8777,-0.8899,-0.8978,-0.8981,-0.9125,-0.9231,-0.928,-0.9212,0.0,-0.9201,-0.9201,-0.9139,-0.9046,-0.919,-0.9141,-0.9117,-0.9188,-0.9256,-0.928,-0.9217,-0.9201,-0.9201,-0.9201,-0.9201,-0.9223,-0.9291,-0.9396,-0.9442,-0.9651,-0.9724,-0.9721,-0.9721,-0.9724,-0.9721,-2.6446,-2.6144,-2.6165,-2.5982,-2.569,-2.592,-2.5693,-2.5191,-2.5652,-2.5508,-2.4908,-2.4282,-2.343,-2.2269,-2.029,0.0,-1.9321,-1.9068,-1.8998,-1.9141,-1.9429,-1.9639,-1.9919,-1.9914,-1.9919,-1.9914,-1.9919,-1.9914,-1.9887,-1.9881,-1.9698,-1.9472,-1.9273,-1.8947,-1.856,-1.8716,-1.8389,-1.7643,-1.7393,-1.6811,-1.6029,-1.4883,-1.3887,-1.3042,-1.2656,-1.2269,-1.1795,-1.0875,-1.0234,-1.0093,-0.9499,-0.8995,-0.8644,0.0,0.0,0.0,0.0,0.0,0.0,0.0,0.0,0.0,0.0,0.0,0.0,0.0,0.0,0.0,-0.8821,0.0,-0.8882,-0.8851,0.0,0.0,0.0,-0.8416,-0.8304,-0.8484,-0.8617,-0.8614,0.0,0.0,-0.9049,-0.907,-0.9147,-0.9076,-0.9239,-0.9304,-0.9304,-0.9299,-0.9304,-0.9296,-0.9299,-0.9299,-0.9291,-0.9285,-0.9283,-0.9291,-0.9304,-0.9302,-0.9296,-0.9296,-0.9302,-0.9296,-0.9302,-0.9302,-0.9302,-0.9294,-0.9302,-0.9291,-0.9294,-0.9296,-0.9357,-0.9355,-0.9352,-2.6675,-2.6526,-2.5991,-2.5835,-2.5968,-2.5777,-2.5569,-2.5387,-2.4678,-2.425,-2.4004,-2.279,-2.1634,-2.0559,-2.0252,-1.9926,-1.9581,-1.9946,-1.9921,-1.9757,-1.9816,-1.9871,-1.9919,-1.9919,-1.9919,-1.9919,-1.9919,-1.9833,-1.9585,-1.958,-1.9461,-1.9173,-1.9354,-1.9101,-1.8493,-1.8124,-1.7712,-1.7254,-1.6478,-1.5433,-1.4349,-1.3733,-1.3042,-1.2192,-1.2114,-1.165,-1.0949,-1.0664,-1.0295,-0.9786,-0.9557,-0.9242,-0.8814,-0.8687,0.0,0.0,0.0,0.0,0.0,0.0,0.0,0.0,0.0,-0.81,-0.8429,0.0,-0.8636,0.0,-0.8849,-0.8882,-0.8882,-0.8857,0.0,0.0,-0.8774,-0.8744,-0.8717,-0.8763,-0.8795,-0.8864,-0.893,-0.9103,-0.913,-0.9209,-0.9264,-0.9264,-0.9285,-0.9304,-0.9304,-0.9304,-0.9304,-0.9304,-0.9304,-0.9304,-0.9304,-0.9304,-0.9304,-0.9304,-0.9304,-0.9304,-0.9304,-0.9304,-0.9304,-0.9304,-0.9304,-0.9304,-0.9304,-0.9304,-0.9304,-0.9304,-0.9304,-0.9304,-0.9304,-0.9304,-0.9304,-2.6391,-2.5936,-2.5681,-2.54,-2.5113,-2.5052,-2.4948,-2.4705,-2.4037,-2.3537,-2.3168,-2.1883,-2.0923,-2.0232,-2.014,-2.0042,-1.9774,-2.01,-2.0145,-1.9919,-1.9919,-1.9919,-1.9919,-1.9919,-1.9919,-1.9919,-1.9741,-1.9628,-1.9499,-1.9391,-1.9278,-1.9082,-1.9165,-1.8842,-1.8206,-1.7966,-1.7397,-1.6415,-1.5149,-1.4045,-1.32,-1.2733,-1.2269,-1.165,-1.1432,-1.1016,-1.0554,-1.0352,-1.0008,-0.9673,-0.9522,-0.9372,-0.9122,-0.8932,-0.8753,0.0,0.0,0.0,0.0,0.0,0.0,0.0,0.0,0.0,0.0,0.0,-0.8954,-0.9245,-0.9272,-0.9272,-0.9269,-0.9223,-0.9188,-0.9188,-0.9141,-0.9109,-0.9109,-0.9155,-0.919,-0.919,-0.9296,-0.9372,-0.9375,-0.9427,-0.9468,-0.9468,-0.9468,-0.9427,-0.9326,-0.9304,-0.9304,-0.9304,-0.9304,-0.9304,-0.9304,-0.9304,-0.9304,-0.9304,-0.9304,-0.9304,-0.9304,-0.9304,-0.9304,-0.9304,-0.9304,-0.9304,-0.9304,-0.9304,-0.9304,-0.9304,-0.9304,-0.9304,-0.9304,-0.9304,-0.9304,-2.5876,-2.4996,-2.5128,-2.4664,-2.3681,-2.3891,-2.3834,-2.3678,-2.3314,-2.2832,-2.2168,-2.1289,-2.0737,-2.0447,-2.007,-1.9919,-1.9919,-1.9919,-1.9919,-1.9919,-1.9919,-1.9919,-1.9919,-1.9919,-1.9908,-1.9871,-1.9596,-1.9467,-1.9402,-1.9203,-1.9017,-1.8923,-1.8859,-1.8392,-1.7608,-1.7657,-1.6931,-1.5275,-1.3814,-1.2811,-1.2424,-1.2037,-1.165,-1.1256,-1.0744,-1.0448,-1.0369,-0.9955,-0.962,-0.9516,-0.9511,-0.9454,-0.9332,-0.9234,-0.9071,0.0,-0.8717,0.0,0.0,0.0,0.0,0.0,0.0,0.0,0.0,-0.8992,-0.9332,-0.9644,-0.9669,-0.9669,-0.9669,-0.9574,-0.9508,-0.9508,-0.9416,-0.9351,-0.9356,-0.9446,-0.9511,-0.9511,-0.9606,-0.9669,-0.9655,-0.9669,-0.9666,-0.9652,-0.9647,-0.9579,-0.9405,-0.9367,-0.937,-0.9351,-0.9351,-0.9381,-0.9375,-0.9362,-0.9364,-0.9359,-0.9345,-0.9329,-0.9334,-0.9315,-0.9304,-0.9304,-0.9304,-0.9304,-0.9304,-0.9304,-0.9304,-0.9304,-0.9304,-0.9304,-0.9304,-0.9304,-0.9304,-2.5191,-2.4875,-2.4032,-2.3497,-2.3004,-2.2503,-2.257,-2.3017,-2.2032,-2.1355,-2.0906,-2.0697,-2.0366,-1.9995,-1.9919,-1.9919,-1.9919,-1.9919,-1.9919,-1.9919,-1.9919,-1.9919,-1.9919,-1.9919,-1.9827,-1.9569,-1.9521,-1.9295,-1.8918,-1.8875,-1.8608,-1.8149,-1.8303,-1.7859,-1.7011,0.0,0.0,0.0,-1.2962,-1.2424,-1.2037,-1.165,-1.1184,-1.0713,-1.0594,0.0,-0.9984,-0.9804,-0.9661,-0.9636,-0.9633,0.0,0.0,0.0,0.0,0.0,0.0,0.0,0.0,0.0,0.0,0.0,-0.9082,-0.9106,-0.9046,-0.9362,-0.9598,-0.9663,-0.9669,-0.9669,-0.9669,-0.965,-0.9636,-0.9633,-0.9614,-0.9601,-0.9601,-0.9622,-0.9633,-0.9636,-0.9658,-0.9671,-0.968,-0.9669,-0.9674,-0.9682,-0.9669,-0.965,-0.9612,-0.9593,-0.9598,-0.9601,-0.9579,-0.9593,-0.9601,-0.9593,-0.9576,-0.959,-0.9511,-0.9459,-0.9446,-0.9372,-0.931,-0.9313,-0.9304,-0.931,-0.9307,-0.9304,-0.931,-0.9304,-0.9304,-0.9304,-0.9304,-0.9304,-0.9304,-2.4405,0.0,-2.3402,-2.2836,0.0,-2.1692,-2.1523,-2.1671,-2.1312,-2.094,-2.0517,-2.0296,-2.007,-1.9919,-1.9919,-1.9919,-1.9919,-1.9919,-1.9919,-1.9919,-1.9919,-1.9919,-1.9919,-1.9806,-1.9612,-1.9494,-1.9262,-1.9025,-1.8783,-1.8523,-1.8193,-1.7866,-1.7526,-1.6952,-1.6131,-1.5073,-1.3957,-1.2811,-1.2424,-1.1879,-1.1262,-1.1029,-1.0719,-1.0328,0.0,0.0,0.0,0.0,0.0,0.0,0.0,0.0,0.0,0.0,0.0,-0.9408,-0.934,-0.9256,-0.9139,-0.9185,-0.9217,-0.922,-0.9383,-0.9459,-0.9402,-0.9617,-0.9777,-0.9837,-0.9843,-0.9843,-0.9843,-0.9843,-0.9843,-0.9845,-0.9843,-0.9843,-0.9843,-0.9843,-0.9843,-0.9843,-0.9843,-0.9843,-0.984,-0.984,-0.9843,-0.9843,-0.9843,-0.9837,-0.9829,-0.9742,-0.9669,-0.9669,-0.9669,-0.9669,-0.9669,-0.9669,-0.9671,-0.9658,-0.962,-0.9582,-0.9579,-0.9527,-0.9484,-0.9484,-0.9487,-0.947,-0.9405,-0.9394,-0.9375,-0.9321,-0.9304,-0.9304,-0.9304,-0.9304,-0.9304,-2.3626,-2.3141,-2.2828,-2.2252,-2.1497,-2.1101,-2.0737,-2.0441,0.0,0.0,0.0,-1.9995,-1.9919,-1.9919,-1.9919,-1.9919,-1.9919,-1.9919,-1.9919,-1.9919,-1.9876,-1.986,-1.9849,-1.9548,-1.9413,-1.9354,-1.8899,-1.869,-1.8642,-1.8091,-1.7721,-1.753,-1.6844,-1.604,-1.5167,-1.3794,-1.2811,-1.2269,-1.196,-1.1414,-1.0641,-1.0561,-1.033,-1.0019,-0.99,-0.9761,-0.9761,-0.9729,-0.9669,-0.9671,-0.9777,-0.9761,-0.9761,-0.9856,-0.9821,-0.9707,-0.9603,-0.9497,-0.9381,-0.9389,-0.9408,-0.943,-0.9617,-0.9731,-0.9731,-0.9815,-0.9911,-1.0011,-1.0019,-1.0019,-1.0019,-1.0019,-1.0019,-1.0019,-1.0019,-1.0017,-1.0017,-1.0019,-1.0008,-1.0019,-1.0008,-1.0017,-1.0008,-1.0008,-1.0019,-1.0017,-1.0,-1.0019,-0.9998,-0.9859,-0.9753,-0.9756,-0.9764,-0.9745,-0.9737,-0.9745,-0.9731,-0.975,-0.9723,-0.9699,-0.9699,-0.9682,-0.9669,-0.9647,-0.9666,-0.9622,-0.9544,-0.9519,-0.9476,-0.9362,-0.9334,-0.9329,-0.931,-0.9304,-0.9304,-2.2743,-2.2481,-2.2123,-2.147,-2.0697,-2.0581,-2.0372,-1.9995,-2.0075,-2.0075,-1.9995,-1.9919,-1.9919,-1.9919,-1.9919,-1.9919,-1.9919,-1.9919,-1.9919,0.0,-1.9645,-1.9548,-1.9531,-1.9237,-1.909,-1.8891,-1.8457,-1.8183,-1.7999,-1.7606,-1.7097,-1.6466,-1.6282,-1.548,-1.4132,-1.3417,-1.2579,-1.1495,-1.1417,-1.1107,-1.0641,-1.0253,-1.0097,-1.0014,-0.9902,-0.9761,-0.9761,-0.9731,-0.9669,-0.9671,-0.9777,-0.9761,-0.9764,-0.9858,-0.9941,-0.9826,-0.9799,-0.9737,-0.9631,-0.9707,-0.9807,-0.9911,-0.9951,-0.997,-0.997,-0.9984,-1.0,-1.0019,-1.0019,-1.0019,-1.0019,-1.0019,-1.0019,-1.0019,-1.0019,-1.0019,-1.0019,-1.0019,-1.0019,-1.0019,-1.0019,-1.0019,-1.0019,-1.0019,-1.0019,-1.0019,-1.0019,-1.0019,-1.0014,-0.9995,-0.997,-0.997,-0.997,-0.997,-0.9943,-0.9965,-0.9951,-0.997,-0.9873,-0.9815,-0.9815,-0.975,-0.9701,-0.9677,-0.9693,-0.9749,-0.9642,-0.9644,-0.9576,-0.9468,-0.943,-0.941,-0.9323,-0.9304,-0.9304,-2.2066,-2.172,-2.1271,-2.0865,-2.0522,-2.0296,-2.007,-1.9919,-1.9919,-1.9919,-1.9919,-1.9919,-1.9919,-1.9919,-1.9919,-1.9919,-1.9914,-1.972,-1.9655,-1.9645,-1.9418,-1.9311,-1.9216,-1.8851,-1.8542,-1.842,-1.7943,-1.7546,-1.7238,-1.688,-1.6315,-1.555,-1.4885,-1.4054,-1.3182,-1.2658,-1.2037,-1.134,-1.1262,-1.0952,-1.033,-1.01,-1.0019,-1.0019,-0.9962,-0.9935,-0.9935,-0.9889,-0.9862,-0.9862,-0.9908,-0.9935,-0.9938,-0.9989,-0.9995,-0.9941,-0.9935,-0.9916,-0.9862,-0.9908,-0.9962,-1.0017,-1.0019,-1.0019,-1.0019,-1.0019,-1.0019,-1.0019,-1.0019,-1.0019,-1.0019,-1.0019,-1.0019,-1.0019,-1.0019,-1.0019,-1.0019,-1.0019,-1.0019,-1.0019,-1.0019,-1.0019,-1.0019,-1.0019,-1.0019,-1.0019,-1.0019,-1.0019,-1.0019,-1.0019,-1.0019,-1.0019,-1.0019,-1.0019,-1.0019,-1.0019,-1.0019,-1.0019,-0.9976,-0.9941,-0.9935,-0.9881,-0.9862,-0.9859,-0.9856,-0.9805,-0.9707,-0.9669,-0.959,-0.943,-0.9386,-0.9356,-0.9315,-0.9304,-0.9304,-2.1381,-2.1008,-2.0669,-2.0441,-2.0366,-1.9995,-1.9892,-1.9774,-1.9763,-1.9736,-1.9698,-1.9741,-1.9844,-1.9838,-1.972,-1.9688,-1.9666,-1.9505,-1.9424,-1.9397,-1.9176,-1.8996,-1.8824,-1.8391,-1.8061,-1.7837,-1.7319,-1.681,-1.6447,-1.6032,-1.5394,-1.4567,-1.3559,-1.2844,-1.244,-1.2093,-1.1618,-1.1181,-1.1107,-1.0793,-1.0019,-1.0019,-1.0019,-1.0019,-1.0019,-1.0019,-1.0019,-1.0019,-1.0019,-1.0019,-1.0019,-1.0019,-1.0019,-1.0019,-1.0019,-1.0019,-1.0019,-1.0019,-1.0019,-1.0019,-1.0019,-1.0019,-1.0019,-1.0019,-1.0019,-1.0019,-1.0019,-1.0019,-1.0019,-1.0019,-1.0019,-1.0019,-1.0019,-1.0019,-1.0019,-1.0019,-1.0019,-1.0019,-1.0019,-1.0019,-1.0019,-1.0019,-1.0019,-1.0019,-1.0019,-1.0019,-1.0019,-1.0019,-1.0019,-1.0019,-1.0019,-1.0019,-1.0019,-1.0019,-1.0019,-1.0019,-1.0019,-1.0019,-1.0017,-1.0008,-1.0008,-1.0014,-0.9995,-0.9968,-0.9962,-0.9875,-0.9715,-0.9669,-0.9584,-0.9419,-0.9375,-0.9351,-0.9313,-0.9304,-0.9304,-2.0729,-2.0547,-2.0511,-2.0296,-1.9989,-1.9908,-1.9714,-1.9542,-1.9531,-1.9408,-1.9268,-1.9435,-1.9526,-1.9499,-1.9316,-1.9241,-1.9235,-1.9125,-1.9109,-1.9082,-1.8928,-1.8678,-1.8303,-1.8012,-1.754,-1.691,-1.6471,-1.6037,-1.5607,-1.4972,-1.4256,-1.3487,-1.279,-1.2367,-1.206,-1.1848,-1.1376,-1.0716,-1.0641,-1.0486,-1.0019,-1.0019,-1.0019,-1.0019,-1.0019,-1.0019,-1.0019,-1.0019,-1.0019,-1.0019,-1.0019,-1.0019,-1.0019,-1.0019,-1.0019,-1.0019,-1.0019,-1.0019,-1.0019,-1.0019,-1.0019,-1.0019,-1.0019,-1.0019,-1.0019,-1.0019,-1.0019,-1.0019,-1.0019,-1.0019,-1.0019,-1.0019,-1.0019,-1.0019,-1.0019,-1.0019,-1.0019,-1.0019,-1.0019,-1.0019,-1.0019,-1.0019,-1.0019,-1.0019,-1.0019,-1.0019,-1.0019,-1.0019,-1.0019,-1.0019,-1.0019,-1.0019,-1.0019,-1.0019,-1.0019,-1.0019,-1.0019,-1.0019,-1.0019,-1.0014,-1.0006,-0.9998,-0.9989,-0.9875,-0.9856,-0.9799,-0.9709,-0.9663,-0.9614,-0.9468,-0.9419,-0.9427,-0.9337,-0.9304,-0.9304,-2.0427,-2.0151,-2.0145,-1.9988,-1.9634,-1.9499,-1.9381,-1.9295,-1.9295,-1.9162,-1.9071,-1.9101,-1.9155,-1.921,-1.9114,-1.9082,-1.9071,-1.8998,-1.879,-1.8558,-1.8331,-1.8078,-1.7648,-1.7142,-1.6673,-1.6315,-1.5612,-1.4968,-1.447,-1.3619,-1.2979,-1.2635,-1.2053,-1.1717,-1.1572,-1.1183,-1.0862,-1.0526,-1.0371,-1.0175,-1.0019,-1.0019,-1.0019,-1.0019,-1.0019,-1.0019,-1.0019,-1.0019,-1.0019,-1.0019,-1.0019,-1.0019,-1.0019,-1.0019,-1.0019,-1.0019,-1.0019,-1.0019,-1.0019,-1.0019,-1.0019,-1.0019,-1.0019,-1.0019,-1.0019,-1.0019,-1.0019,-1.0019,-1.0019,-1.0019,-1.0019,-1.0019,-1.0019,-1.0019,-1.0019,-1.0019,-1.0019,-1.0019,-1.0019,-1.0019,-1.0019,-1.0019,-1.0019,-1.0019,-1.0019,-1.0019,-1.0019,-1.0019,-1.0019,-1.0019,-1.0019,-1.0019,-1.0019,-1.0019,-1.0019,-1.0019,-1.0019,-1.0019,-1.0019,-1.0008,-0.9927,-0.9913,-0.9873,-0.9758,-0.9742,-0.9693,-0.9576,-0.9557,-0.9525,-0.943,-0.9381,-0.9362,-0.931,-0.9304,-0.9304,-2.0102,-1.9822,-1.9688,-1.9558,-1.9391,-1.9151,-1.9039,-1.9052,-1.8974,-1.8948,-1.8862,-1.8762,-1.8783,-1.8867,-1.8883,-1.8883,-1.8856,-1.8696,-1.8402,-1.8101,-1.7722,-1.7374,-1.6956,-1.6249,-1.5753,-1.547,-1.4613,-1.39,-1.3404,-1.2545,-1.1975,-1.1784,-1.1398,-1.1046,-1.0958,-1.0573,-1.0485,-1.0406,-1.0183,-1.0085,-1.0117,-1.012,-1.009,-1.003,-1.0019,-1.0019,-1.0019,-1.0019,-1.0019,-1.0019,-1.0019,-1.0019,-1.0019,-1.0019,-1.0019,-1.0019,-1.0019,-1.0019,-1.0019,-1.0019,-1.0019,-1.0019,-1.0019,-1.0019,-1.0019,-1.0019,-1.0019,-1.0019,-1.0019,-1.0019,-1.0019,-1.0019,-1.0019,-1.0019,-1.0019,-1.0019,-1.0019,-1.0019,-1.0019,-1.0019,-1.0019,-1.0019,-1.0019,-1.0019,-1.0019,-1.0019,-1.0019,-1.0019,-1.0019,-1.0019,-1.0019,-1.0019,-1.0019,-1.0019,-1.0019,-1.0019,-1.0014,-0.9973,-0.996,-0.9916,-0.9821,-0.9796,-0.975,-0.965,-0.9633,-0.9574,-0.9468,-0.943,-0.943,-0.9343,-0.9307,-0.931,-0.9304,-0.9304,-0.9304,-1.9795,-1.9494,-1.92,-1.9114,-1.9087,-1.906,-1.9004,-1.8805,-1.8799,-1.8681,-1.8514,-1.8476,-1.846,-1.8422,-1.8444,-1.8482,-1.8406,-1.8119,-1.7903,-1.7757,-1.7097,-1.6598,-1.6183,-1.539,-1.4679,-1.4185,-1.3615,-1.2979,-1.2348,-1.1832,-1.1462,-1.106,-1.083,-1.0506,-1.0323,-1.0384,-1.0343,-1.0207,-1.0172,-1.0245,-1.0343,-1.0359,-1.0248,-1.0055,-1.0022,-1.0028,-1.0019,-1.0019,-1.0019,-1.0019,-1.0019,-1.0019,-1.0019,-1.0019,-1.0019,-1.0019,-1.0019,-1.0019,-1.0019,-1.0019,-1.0019,-1.0019,-1.0019,-1.0019,-1.0019,-1.0019,-1.0019,-1.0019,-1.0019,-1.0019,-1.0019,-1.0019,-1.0019,-1.0019,-1.0019,-1.0019,-1.0019,-1.0019,-1.0019,-1.0019,-1.0019,-1.0019,-1.0019,-1.0019,-1.0019,-1.0019,-1.0019,-1.0019,-1.0019,-1.0019,-1.0019,-1.0019,-1.0019,-1.0019,-1.0019,-0.9989,-0.9946,-0.9905,-0.9864,-0.9807,-0.9734,-0.9663,-0.9601,-0.9544,-0.9511,-0.9451,-0.9353,-0.9315,-0.9326,-0.9304,-0.9304,-0.9304,-0.9304,-0.9304,-0.9304,-1.9488,-1.9257,-1.902,-1.8918,-1.8896,-1.8762,-1.8567,-1.8562,-1.8557,-1.8514,-1.8444,-1.8433,-1.8288,-1.8077,-1.8077,-1.8077,-1.8002,-1.7726,-1.7233,-1.6815,-1.6245,-1.5678,-1.5044,-1.4252,-1.3821,-1.3468,-1.2904,-1.224,-1.16,-1.117,-1.0925,-1.086,-1.0542,-1.0297,-1.0205,-1.0089,-1.0001,-1.0076,-1.0158,-1.0261,-1.0381,-1.0384,-1.0305,-1.015,-1.0139,-1.0101,-1.0022,-1.0019,-1.0019,-1.0019,-1.0019,-1.0019,-1.0019,-1.0019,-1.0019,-1.0019,-1.0019,-1.0019,-1.0019,-1.0019,-1.0019,-1.0019,-1.0019,-1.0019,-1.0019,-1.0019,-1.0019,-1.0019,-1.0019,-1.0019,-1.0019,-1.0019,-1.0019,-1.0019,-1.0019,-1.0019,-1.0019,-1.0019,-1.0019,-1.0019,-1.0019,-1.0019,-1.0019,-1.0019,-1.0019,-1.0019,-1.0019,-1.0019,-1.0019,-1.0019,-1.0019,-1.0019,-1.0019,-1.0019,-1.0019,-0.9943,-0.9878,-0.9837,-0.9788,-0.969,-0.9609,-0.9576,-0.9522,-0.9432,-0.9394,-0.9381,-0.9307,-0.9307,-0.9304,-0.9304,-0.9304,-0.9304,-0.9304,-0.9304,-0.9304,-1.9176,-1.9004,-1.8772,-1.867,-1.8654,-1.8503,-1.8433,-1.8433,-1.8433,-1.8433,-1.8363,-1.8293,-1.8077,-1.7861,-1.7515,-1.7369,-1.7303,-1.7026,-1.6532,-1.582,-1.5252,-1.4684,-1.4047,-1.3333,-1.293,-1.2694,-1.2101,-1.152,-1.1084,-1.065,-1.0551,-1.0557,-1.0225,-1.0097,-1.0044,-0.9914,-0.9973,-1.0123,-1.0221,-1.0337,-1.0476,-1.0498,-1.0422,-1.0288,-1.0264,-1.0185,-1.003,-1.0019,-1.0019,-1.0019,-1.0019,-1.0019,-1.0019,-1.0019,-1.0019,-1.0019,-1.0019,-1.0019,-1.0019,-1.0019,-1.0019,-1.0019,-1.0019,-1.0019,-1.0019,-1.0019,-1.0019,-1.0019,-1.0019,-1.0019,-1.0019,-1.0019,-1.0019,-1.0019,-1.0019,-1.0019,-1.0019,-1.0019,-1.0019,-1.0019,-1.0019,-1.0019,-1.0019,-1.0019,-1.0019,-1.0019,-1.0019,-1.0019,-1.0019,-1.0019,-1.0019,-1.0019,-1.0019,-1.0019,-1.0,-0.9932,-0.9873,-0.9829,-0.9794,-0.9663,-0.9546,-0.9511,-0.9451,-0.9351,-0.9304,-0.9304,-0.9304,-0.9304,-0.9304,-0.9304,-0.9304,-0.9304,-0.9304,-0.9304,-0.9304,-1.8783,-1.8745,-1.853,-1.8385,-1.846,-1.8444,-1.8433,-1.8433,-1.8363,-1.8368,-1.8293,-1.8007,-1.7806,-1.76,-1.6778,-1.6273,-1.6169,-1.6107,-1.5719,-1.4964,-1.4269,-1.3706,-1.3281,-1.2593,-1.2091,-1.1833,-1.116,-1.085,-1.079,-1.0416,-1.0199,-1.0153,-1.0022,-0.984,-0.984,-0.9954,-1.0128,-1.0305,-1.0362,-1.0484,-1.0702,-1.0707,-1.0601,-1.0413,-1.0378,-1.0264,-1.0041,-1.0022,-1.0019,-1.0019,-1.0019,-1.0019,-1.0019,-1.0019,-1.0019,-1.0019,-1.0019,-1.0019,-1.0019,-1.0019,-1.0019,-1.0019,-1.0019,-1.0019,-1.0019,-1.0019,-1.0019,-1.0019,-1.0019,-1.0019,-1.0019,-1.0019,-1.0019,-1.0019,-1.0019,-1.0019,-1.0019,-1.0019,-1.0019,-1.0019,-1.0019,-1.0019,-1.0019,-1.0019,-1.0019,-1.0019,-1.0019,-1.0019,-1.0019,-1.0019,-1.0019,-1.0019,-1.0019,-1.0019,-0.9976,-0.9927,-0.9883,-0.984,-0.9805,-0.9726,-0.959,-0.9519,-0.9465,-0.9375,-0.9313,-0.931,-0.9304,-0.9304,-0.9304,-0.9304,-0.9304,-0.9304,-0.9304,-0.9304,-0.9304,-1.8541,-1.8535,-1.8401,-1.8433,-1.8433,-1.8433,-1.8433,-1.8363,-1.8147,-1.8077,-1.8007,-1.7655,-1.7238,-1.6787,-1.6162,-1.5592,-1.4992,-1.4696,-1.4426,-1.4172,-1.3522,-1.3069,-1.2583,-1.1944,-1.1498,-1.1095,-1.0616,-1.0465,-1.046,-1.0165,-0.9973,-1.0059,-1.002,-0.9962,-0.996,-1.0008,-1.0139,-1.0354,-1.0384,-1.05,-1.071,-1.0734,-1.0658,-1.0517,-1.0427,-1.0307,-1.0155,-1.0066,-1.0022,-1.0019,-1.0019,-1.0019,-1.0019,-1.0019,-1.0019,-1.0019,-1.0019,-1.0019,-1.0019,-1.0019,-1.0019,-1.0019,-1.0019,-1.0019,-1.0019,-1.0019,-1.0019,-1.0019,-1.0019,-1.0019,-1.0019,-1.0019,-1.0019,-1.0019,-1.0019,-1.0019,-1.0019,-1.0019,-1.0019,-1.0019,-1.0019,-1.0019,-1.0019,-1.0019,-1.0019,-1.0019,-1.0019,-1.0019,-1.0019,-1.0019,-1.0019,-1.0019,-1.0019,-1.0019,-0.9992,-0.9973,-0.9951,-0.99,-0.9854,-0.9799,-0.9663,-0.9571,-0.9506,-0.9413,-0.9353,-0.9313,-0.9304,-0.9304,-0.9304,-0.9304,-0.9304,-0.9304,-0.9304,-0.9304,-0.9304,-1.8433,-1.8433,-1.8433,-1.8433,-1.8433,-1.8433,-1.8346,-1.8274,-1.8138,-1.7897,-1.7679,-1.727,-1.676,-1.6063,-1.5494,-1.4906,-1.4206,-1.3612,-1.3284,-1.3191,-1.2817,-1.243,-1.1935,-1.1323,-1.0938,-1.0652,-1.0308,-1.0143,-1.0215,-0.9988,-0.9943,-1.0008,-1.0019,-1.0017,-1.0028,-1.0071,-1.0193,-1.0365,-1.043,-1.0541,-1.0693,-1.0734,-1.068,-1.0563,-1.0484,-1.0392,-1.0275,-1.0153,-1.0066,-1.003,-1.0019,-1.0019,-1.0019,-1.0019,-1.0019,-1.0019,-1.0019,-1.0019,-1.0019,-1.0019,-1.0019,-1.0019,-1.0019,-1.0019,-1.0019,-1.0019,-1.0019,-1.0019,-1.0019,-1.0019,-1.0019,-1.0019,-1.0019,-1.0019,-1.0019,-1.0019,-1.0019,-1.0019,-1.0019,-1.0019,-1.0019,-1.0019,-1.0019,-1.0019,-1.0019,-1.0019,-1.0019,-1.0019,-1.0019,-1.0019,-1.0019,-1.0019,-1.0019,-1.0019,-1.0019,-1.0017,-1.0017,-0.997,-0.9916,-0.9851,-0.9753,-0.9701,-0.9642,-0.9478,-0.9383,-0.9318,-0.9304,-0.9304,-0.9304,-0.9304,-0.9304,-0.9304,-0.9304,-0.9304,-0.9304,-1.8433,-1.8433,-1.8433,-1.8385,-1.8401,-1.8406,-1.8322,-1.8144,-1.8022,-1.7758,-1.7248,-1.6809,-1.6191,-1.5467,-1.4736,-1.4167,-1.3651,-1.2938,-1.2496,-1.2166,-1.1951,-1.1655,-1.1302,-1.0799,-1.0541,-1.0332,-1.0106,-1.0,-1.0075,-1.0,-1.0019,-1.0019,-1.0036,-1.0036,-1.0068,-1.0153,-1.0278,-1.0405,-1.05,-1.0606,-1.0726,-1.0734,-1.0688,-1.0579,-1.0634,-1.0495,-1.0394,-1.0278,-1.0153,-1.0041,-1.0019,-1.0019,-1.0019,-1.0019,-1.0019,-1.0019,-1.0019,-1.0019,-1.0019,-1.0019,-1.003,-1.0047,-1.0049,-1.0038,-1.0068,-1.009,-1.009,-1.0082,-1.006,-1.0041,-1.0044,-1.0025,-1.0022,-1.0019,-1.0019,-1.0019,-1.0019,-1.0019,-1.0019,-1.0019,-1.0019,-1.0019,-1.0019,-1.0019,-1.0019,-1.0019,-1.0019,-1.0019,-1.0019,-1.0019,-1.0019,-1.0019,-1.0019,-1.0019,-1.0019,-1.0019,-1.0019,-1.0003,-0.9962,-0.9919,-0.9848,-0.9805,-0.9699,-0.9538,-0.9421,-0.9353,-0.9304,-0.9304,-0.9304,-0.9304,-0.9304,-0.9304,-0.9304,-0.9304,-0.9304,-1.8433,-1.8433,-1.8433,-1.8324,-1.8254,-1.827,-1.8186,-1.7947,-1.7379,-1.7053,-1.6733,-1.5914,-1.5344,-1.4848,-1.4026,-1.3487,-1.3105,-1.2446,-1.2079,-1.1849,-1.1232,-1.0925,-1.0851,-1.0646,-1.036,-1.0136,-1.0089,-1.0019,-1.0019,-1.0038,-1.0033,-1.0025,-1.0117,-1.0155,-1.0172,-1.0278,-1.0394,-1.0495,-1.0615,-1.0617,-1.0715,-1.0734,-1.0723,-1.0691,-1.0604,-1.0547,-1.0503,-1.04,-1.0237,-1.0041,-1.0019,-1.0019,-1.0036,-1.0036,-1.0041,-1.0041,-1.0033,-1.0025,-1.0028,-1.003,-1.0068,-1.0144,-1.0155,-1.0193,-1.0286,-1.0286,-1.0288,-1.0272,-1.0218,-1.0153,-1.0139,-1.0071,-1.003,-1.0019,-1.0019,-1.0019,-1.0019,-1.0019,-1.0019,-1.0019,-1.0019,-1.0019,-1.0019,-1.0019,-1.0019,-1.0019,-1.0019,-1.0019,-1.0019,-1.0019,-1.0019,-1.0019,-1.0019,-1.0019,-1.0019,-1.0019,-1.0019,-1.0019,-1.0006,-0.9995,-0.9932,-0.9878,-0.972,-0.9541,-0.9476,-0.941,-0.934,-0.9304,-0.9304,-0.9304,-0.9304,-0.9304,-0.9304,-0.9304,-0.9304,-1.8352,-1.8301,-1.8301,-1.8225,-1.8063,-1.7923,-1.7754,-1.7414,-1.6707,-1.6242,-1.5918,-1.5181,-1.449,-1.3976,-1.329,-1.2874,-1.2494,-1.196,-1.1569,-1.1259,-1.0632,-1.04,-1.0325,-1.033,-1.02,-1.0095,-1.0098,-1.0131,-1.0172,-1.0174,-1.0174,-1.0193,-1.0242,-1.0278,-1.0286,-1.0397,-1.0566,-1.0637,-1.0601,-1.0672,-1.0732,-1.0734,-1.0734,-1.0726,-1.0661,-1.0615,-1.0558,-1.049,-1.0367,-1.0218,-1.0177,-1.0174,-1.0174,-1.0174,-1.0172,-1.0174,-1.0174,-1.0177,-1.0174,-1.0174,-1.0207,-1.0264,-1.028,-1.0313,-1.0362,-1.0384,-1.0384,-1.0367,-1.0313,-1.0261,-1.0193,-1.0093,-1.003,-1.0019,-1.0019,-1.0019,-1.0019,-1.0019,-1.0019,-1.0019,-1.0019,-1.0019,-1.0019,-1.0019,-1.0019,-1.0019,-1.0019,-1.0019,-1.0019,-1.0019,-1.0019,-1.0019,-1.0019,-1.0019,-1.0019,-1.0019,-1.0019,-1.0019,-1.0019,-1.0019,-0.9987,-0.9924,-0.9772,-0.962,-0.9544,-0.9457,-0.9367,-0.9304,-0.9304,-0.9304,-0.9304,-0.9304,-0.9304,-0.9304,-0.9304,-1.829,-1.8144,-1.8078,-1.8001,-1.7761,-1.7341,-1.7013,-1.681,-1.6006,-1.5409,-1.4984,-1.4487,-1.3773,-1.3042,-1.2702,-1.2189,-1.1801,-1.1417,-1.0949,-1.0647,-1.0275,-1.0055,-1.0138,-1.0141,-1.0123,-1.0204,-1.0223,-1.0272,-1.0324,-1.0359,-1.0373,-1.0362,-1.0381,-1.0403,-1.0424,-1.0517,-1.065,-1.0604,-1.0672,-1.0715,-1.0734,-1.0734,-1.0734,-1.0732,-1.0729,-1.0672,-1.0612,-1.0571,-1.0522,-1.0424,-1.0403,-1.0362,-1.0367,-1.0375,-1.037,-1.0359,-1.0346,-1.0354,-1.0373,-1.0348,-1.0381,-1.0394,-1.0403,-1.0416,-1.0443,-1.0462,-1.0462,-1.0468,-1.0419,-1.034,-1.021,-1.0093,-1.003,-1.0019,-1.0019,-1.0019,-1.0019,-1.0019,-1.0019,-1.0019,-1.0019,-1.0019,-1.0019,-1.0019,-1.0019,-1.0019,-1.0019,-1.0019,-1.0019,-1.0019,-1.0019,-1.0019,-1.0019,-1.0019,-1.0019,-1.0019,-1.0019,-1.0019,-1.0019,-1.0017,-1.0006,-0.9935,-0.9818,-0.9707,-0.9612,-0.9478,-0.9337,-0.9304,-0.9304,-0.9304,-0.9304,-0.9304,-0.9304,-0.9304,-0.9304,-1.7855,-1.7704,-1.7422,-1.7282,-1.7159,-1.6441,-1.6024,-1.5815,-1.5052,-1.4609,-1.4341,-1.3733,-1.312,-1.2575,-1.2192,-1.1805,-1.1417,-1.0952,-1.0563,-1.0189,-1.0207,-1.0158,-1.0166,-1.0169,-1.0237,-1.0321,-1.0346,-1.0365,-1.0392,-1.0413,-1.0389,-1.0408,-1.049,-1.0601,-1.0536,-1.0623,-1.0696,-1.0702,-1.0723,-1.0732,-1.0734,-1.0734,-1.0734,-1.0734,-1.0734,-1.0726,-1.0707,-1.0699,-1.0685,-1.0626,-1.05,-1.0413,-1.0411,-1.0405,-1.0408,-1.0411,-1.0403,-1.0394,-1.0392,-1.0411,-1.043,-1.0509,-1.0525,-1.0558,-1.0653,-1.0647,-1.065,-1.0642,-1.0574,-1.0435,-1.0242,-1.0098,-1.0033,-1.0019,-1.0019,-1.0019,-1.0019,-1.0019,-1.0019,-1.0019,-1.0019,-1.0019,-1.0019,-1.0019,-1.0019,-1.0019,-1.0019,-1.0019,-1.0019,-1.0019,-1.0019,-1.0019,-1.0019,-1.0019,-1.0019,-1.0019,-1.0019,-1.0019,-1.0019,-1.0019,-1.0006,-0.9954,-0.9837,-0.9748,-0.9666,-0.9519,-0.9348,-0.9304,-0.9304,-0.9304,-0.9304,-0.9304,-0.9304,-0.9304,-0.9304,-1.7277,-1.7204,-1.6627,-1.6351,-1.6308,-1.5506,-1.5104,-1.4879,-1.4122,-1.3656,-1.3425,-1.2807,-1.2347,-1.1882,-1.1495,-1.1107,-1.0874,-1.0486,-1.0253,-1.0047,-1.0144,-1.0231,-1.0305,-1.0343,-1.0408,-1.0462,-1.0465,-1.049,-1.0533,-1.0544,-1.0563,-1.0552,-1.0612,-1.0639,-1.0642,-1.0704,-1.0726,-1.0729,-1.0734,-1.0734,-1.0734,-1.0734,-1.0734,-1.0734,-1.0734,-1.0734,-1.0732,-1.0732,-1.0734,-1.0704,-1.0617,-1.0547,-1.0549,-1.0547,-1.0549,-1.0549,-1.0549,-1.0549,-1.0552,-1.0552,-1.0579,-1.0628,-1.0639,-1.0674,-1.0721,-1.0734,-1.0734,-1.0726,-1.0661,-1.0544,-1.0313,-1.0112,-1.0038,-1.0019,-1.0019,-1.0019,-1.0019,-1.0019,-1.0019,-1.0019,-1.0019,-1.0019,-1.0019,-1.0019,-1.0019,-1.0019,-1.0019,-1.0019,-1.0019,-1.0019,-1.0019,-1.0019,-1.0019,-1.0019,-1.0019,-1.0019,-1.0019,-1.0019,-1.0019,-1.0019,-1.0014,-0.9943,-0.9859,-0.9761,-0.9652,-0.953,-0.9386,-0.9348,-0.9304,-0.9304,-0.9304,-0.9304,-0.9304,-0.9304,-0.9304,-1.6487,-1.6434,-1.5684,-1.5389,-1.5242,-1.4572,-1.4187,-1.396,-1.327,-1.2733,-1.2347,-1.196,-1.165,-1.1184,-1.0871,-1.0638,-1.0408,-1.0253,-1.0019,-1.0036,-1.0185,-1.0286,-1.0381,-1.049,-1.0568,-1.0582,-1.0585,-1.0636,-1.0693,-1.0732,-1.0691,-1.0723,-1.0729,-1.0715,-1.0729,-1.0734,-1.0734,-1.0734,-1.0734,-1.0734,-1.0734,-1.0734,-1.0734,-1.0734,-1.0734,-1.0734,-1.0734,-1.0734,-1.0734,-1.0734,-1.0734,-1.0734,-1.0734,-1.0734,-1.0734,-1.0726,-1.0704,-1.0696,-1.0691,-1.071,-1.0715,-1.0734,-1.0732,-1.0732,-1.0734,-1.0734,-1.0734,-1.0712,-1.0664,-1.0549,-1.0373,-1.0155,-1.0038,-1.0019,-1.0019,-1.0019,-1.0019,-1.0019,-1.0019,-1.0019,-1.0019,-1.0019,-1.0019,-1.0019,-1.0019,-1.0019,-1.0019,-1.0019,-1.0019,-1.0019,-1.0019,-1.0019,-1.0019,-1.0019,-1.0019,-1.0019,-1.0019,-1.0019,-1.0019,-1.0019,-1.0008,-0.9927,-0.9837,-0.9726,-0.9614,-0.9492,-0.9397,-0.9332,-0.9304,-0.9304,-0.9304,-0.9304,-0.9304,-0.9304,-0.9304,-1.5259,-1.525,-1.4428,-1.4259,-1.4399,-1.3656,-1.3116,-1.2811,-1.2347,-1.1882,-1.1495,-1.1417,-1.1107,-1.0796,-1.0638,-1.0405,-1.0175,-1.0019,-1.0019,-1.0063,-1.0223,-1.0367,-1.0411,-1.059,-1.0685,-1.0707,-1.0696,-1.071,-1.0726,-1.0734,-1.0734,-1.0734,-1.0734,-1.0734,-1.0734,-1.0734,-1.0734,-1.0734,-1.0734,-1.0734,-1.0734,-1.0734,-1.0734,-1.0734,-1.0734,-1.0734,-1.0734,-1.0734,-1.0734,-1.0734,-1.0734,-1.0734,-1.0734,-1.0734,-1.0734,-1.0734,-1.0734,-1.0734,-1.0734,-1.0734,-1.0734,-1.0734,-1.0734,-1.0734,-1.0734,-1.0734,-1.0729,-1.0674,-1.0558,-1.0397,-1.025,-1.0106,-1.0036,-1.0019,-1.0019,-1.0019,-1.0019,-1.0019,-1.0019,-1.0019,-1.0019,-1.0019,-1.0019,-1.0019,-1.0019,-1.0019,-1.0019,-1.0019,-1.0019,-1.0019,-1.0019,-1.0019,-1.0019,-1.0019,-1.0019,-1.0019,-1.0019,-1.0019,-1.0019,-1.0019,-0.9989,-0.9905,-0.981,-0.9704,-0.9587,-0.9465,-0.9383,-0.9318,-0.9304,-0.9304,-0.9304,-0.9304,-0.9304,-0.9304,-0.9304,-1.4248,-1.4276,-1.3542,-1.328,-1.3315,-1.273,-1.2273,-1.1882,-1.165,-1.134,-1.1029,-1.0952,-1.0719,-1.0408,-1.033,-1.0175,-1.0019,-1.0019,-1.0019,-1.0074,-1.0261,-1.0384,-1.0413,-1.0626,-1.0712,-1.0734,-1.0734,-1.0734,-1.0734,-1.0734,-1.0734,-1.0734,-1.0734,-1.0734,-1.0734,-1.0734,-1.0734,-1.0734,-1.0734,-1.0734,-1.0734,-1.0734,-1.0734,-1.0734,-1.0734,-1.0734,-1.0734,-1.0734,-1.0734,-1.0734,-1.0734,-1.0734,-1.0734,-1.0734,-1.0734,-1.0734,-1.0734,-1.0734,-1.0734,-1.0734,-1.0734,-1.0734,-1.0734,-1.0734,-1.0734,-1.0732,-1.0707,-1.062,-1.0511,-1.0337,-1.0218,-1.009,-1.003,-1.0019,-1.0019,-1.0019,-1.0019,-1.0019,-1.0019,-1.0019,-1.0019,-1.0019,-1.0019,-1.0019,-1.0019,-1.0019,-1.0019,-1.0019,-1.0019,-1.0019,-1.0019,-1.0019,-1.0019,-1.0019,-1.0019,-1.0019,-1.0019,-1.0019,-1.0019,-1.0019,-0.996,-0.9873,-0.9786,-0.9688,-0.9565,-0.9427,-0.9367,-0.9304,-0.9304,-0.9304,-0.9304,-0.9304,-0.9304,-0.9304,-0.9304,-1.3214,-1.3341,-1.2643,-1.2289,-1.2209,-1.1953,-1.1572,-1.1184,-1.1184,-1.0871,-1.0486,-1.0486,-1.033,-1.0097,-1.0019,-1.0019,-1.0019,-1.0019,-1.0019,-1.0071,-1.0269,-1.0384,-1.0449,-1.0598,-1.0734,-1.0734,-1.0734,-1.0734,-1.0734,-1.0734,-1.0734,-1.0734,-1.0734,-1.0734,-1.0734,-1.0734,-1.0734,-1.0734,-1.0734,-1.0734,-1.0734,-1.0734,-1.0734,-1.0734,-1.0734,-1.0734,-1.0734,-1.0734,-1.0734,-1.0734,-1.0734,-1.0734,-1.0734,-1.0734,-1.0734,-1.0734,-1.0734,-1.0734,-1.0734,-1.0734,-1.0734,-1.0734,-1.0734,-1.0734,-1.0721,-1.0696,-1.0642,-1.0533,-1.0411,-1.0288,-1.0163,-1.0074,-1.0028,-1.0019,-1.0019,-1.0019,-1.0019,-1.0019,-1.0019,-1.0019,-1.0019,-1.0019,-1.0019,-1.0019,-1.0019,-1.0019,-1.0019,-1.0019,-1.0019,-1.0019,-1.0019,-1.0019,-1.0019,-1.0019,-1.0019,-1.0019,-1.0019,-1.0019,-1.0019,-1.0019,-0.9935,-0.9837,-0.975,-0.9661,-0.9506,-0.9381,-0.9332,-0.9304,-0.9304,-0.9304,-0.9304,-0.9304,-0.9304,-0.9304,-0.9304,-1.2218,-1.2017,-1.1706,-1.1406,-1.1329,-1.1364,-1.1107,-1.0716,-1.0719,-1.0486,-1.0097,-1.01,-1.0097,-1.0019,-1.0019,-1.0019,-1.0019,-1.0019,-1.0019,-1.0057,-1.025,-1.0373,-1.0419,-1.0628,-1.0715,-1.0732,-1.0734,-1.0734,-1.0734,-1.0734,-1.0734,-1.0734,-1.0734,-1.0734,-1.0734,-1.0734,-1.0734,-1.0734,-1.0734,-1.0734,-1.0734,-1.0734,-1.0734,-1.0734,-1.0734,-1.0734,-1.0734,-1.0734,-1.0734,-1.0734,-1.0734,-1.0734,-1.0734,-1.0734,-1.0734,-1.0734,-1.0734,-1.0734,-1.0734,-1.0734,-1.0734,-1.0734,-1.0734,-1.0734,-1.0696,-1.062,-1.053,-1.0416,-1.0302,-1.0191,-1.0095,-1.0036,-1.0019,-1.0019,-1.0019,-1.0019,-1.0019,-1.0019,-1.0019,-1.0019,-1.0019,-1.0019,-1.0019,-1.0019,-1.0019,-1.0019,-1.0019,-1.0019,-1.0019,-1.0019,-1.0019,-1.0019,-1.0019,-1.0019,-1.0019,-1.0019,-1.0019,-1.0019,-1.0019,-1.0017,-0.9941,-0.9848,-0.9729,-0.9622,-0.9468,-0.9359,-0.9321,-0.9304,-0.9304,-0.9304,-0.9304,-0.9304,-0.9304,-0.9304,-0.9304,-1.1191,-1.118,-1.1016,-1.0871,-1.0756,-1.0818,-1.0652,-1.0322,-1.0253,-1.0175,-1.0019,-1.0019,-1.0019,-1.0019,-1.0019,-1.0019,-1.0019,-1.0019,-1.0019,-1.0044,-1.0199,-1.0324,-1.0408,-1.0552,-1.0653,-1.0729,-1.0734,-1.0734,-1.0734,-1.0734,-1.0734,-1.0734,-1.0734,-1.0734,-1.0734,-1.0734,-1.0734,-1.0734,-1.0734,-1.0734,-1.0734,-1.0734,-1.0734,-1.0734,-1.0734,-1.0734,-1.0734,-1.0734,-1.0734,-1.0734,-1.0734,-1.0734,-1.0734,-1.0734,-1.0734,-1.0734,-1.0734,-1.0734,-1.0734,-1.0732,-1.0729,-1.0732,-1.0726,-1.0707,-1.0636,-1.0528,-1.0411,-1.0294,-1.0237,-1.0147,-1.0052,-1.0022,-1.0019,-1.0019,-1.0019,-1.0019,-1.0019,-1.0019,-1.0019,-1.0019,-1.0019,-1.0019,-1.0019,-1.0019,-1.0019,-1.0019,-1.0019,-1.0019,-1.0019,-1.0019,-1.0019,-1.0019,-1.0019,-1.0019,-1.0019,-1.0019,-1.0019,-1.0019,-1.0019,-1.0006,-0.9965,-0.9875,-0.9737,-0.9601,-0.9457,-0.9372,-0.9318,-0.9304,-0.9304,-0.9304,-0.9304,-0.9304,-0.9304,-0.9304,-0.9304,-1.0372,-1.0392,-1.0501,-1.0408,-1.0285,-1.0267,-1.0193,-0.9968,-1.0006,-1.0019,-1.0019,-1.0019,-1.0019,-1.0019,-1.0019,-1.0019,-1.0019,-1.0019,-1.0019,-1.006,-1.0147,-1.0275,-1.0389,-1.0509,-1.0626,-1.0734,-1.0734,-1.0734,-1.0734,-1.0734,-1.0734,-1.0734,-1.0734,-1.0734,-1.0734,-1.0734,-1.0734,-1.0734,-1.0734,-1.0734,-1.0734,-1.0734,-1.0734,-1.0734,-1.0734,-1.0734,-1.0734,-1.0734,-1.0734,-1.0734,-1.0691,-1.0672,-1.0674,-1.0636,-1.0617,-1.0615,-1.0612,-1.0617,-1.0631,-1.0647,-1.0685,-1.0683,-1.0653,-1.0585,-1.052,-1.0408,-1.0318,-1.0223,-1.0163,-1.0106,-1.0049,-1.0019,-1.0019,-1.0019,-1.0019,-1.0019,-1.0019,-0.9942,-0.9942,-1.0019,-1.0019,-1.0019,-1.0019,-1.0019,-1.0019,-1.0019,-1.0019,-1.0019,-1.0019,-1.0019,-1.0019,-1.0019,-1.0019,-1.0019,-1.0019,-1.0019,-1.0019,-1.0019,-1.0019,-1.0006,-0.997,-0.9854,-0.9704,-0.9571,-0.9446,-0.9367,-0.9304,-0.9304,-0.9304,-0.9304,-0.9304,-0.9304,-0.9304,-0.9304,-0.9304,-0.9738,-0.9399,-0.995,-0.9937,-0.9612,-0.9823,-0.9837,-0.9875,-0.997,-1.0011,-1.0019,-1.0019,-1.0019,-1.0019,-1.0019,-1.0019,-1.0019,-1.0019,-1.0019,-1.006,-1.0144,-1.025,-1.0362,-1.0479,-1.0601,-1.0704,-1.0729,-1.0734,-1.0734,-1.0734,-1.0734,-1.0734,-1.0734,-1.0734,-1.0734,-1.0734,-1.0734,-1.0734,-1.0734,-1.0734,-1.0734,-1.0734,-1.0734,-1.0734,-1.0734,-1.0734,-1.0734,-1.0707,-1.0691,-1.0688,-1.0615,-1.0571,-1.0558,-1.0506,-1.0476,-1.0471,-1.0471,-1.0471,-1.0481,-1.0533,-1.0563,-1.0539,-1.0484,-1.0427,-1.0314,-1.0283,-1.0212,-1.0022,-0.9874,-0.9904,-0.9872,-1.0019,-0.9786,-0.9786,-0.9708,-0.9708,-0.9708,-0.9786,-0.9786,-0.9942,-0.9942,-0.9864,-0.9942,-0.9942,-1.0019,-1.0019,-1.0019,-1.0019,-1.0019,-1.0019,-1.0019,-1.0019,-1.0019,-1.0019,-1.0019,-1.0019,-1.0019,-1.0019,-1.0019,-1.0006,-0.9984,-0.984,-0.9671,-0.9565,-0.9454,-0.937,-0.9304,-0.9304,-0.9304,-0.9304,-0.9304,-0.9304,-0.9304,-0.9304,-0.9304,-0.9446,-0.9307,-0.9501,-0.9565,-0.9495,-0.9582,-0.9704,-0.9755,-0.9889,-0.9957,-1.0019,-1.0019,-1.0019,-1.0019,-1.0019,-1.0019,-1.0019,-1.0019,-1.0019,-1.0028,-1.0082,-1.0163,-1.0275,-1.04,-1.0509,-1.0623,-1.0691,-1.0734,-1.0734,-1.0734,-1.0734,-1.0734,-1.0734,-1.0734,-1.0734,-1.0734,-1.0734,-1.0734,-1.0734,-1.0734,-1.0734,-1.0734,-1.0734,-1.0734,-1.0647,-1.0631,-1.0615,-1.0552,-1.053,-1.0514,-1.0476,-1.046,-1.0446,-1.0392,-1.0367,-1.0281,-1.0279,-1.0281,-1.029,-1.0419,-1.0449,-1.043,-1.0348,-1.0192,-0.9951,-0.9771,-0.9557,-0.9445,-0.9354,-0.9402,-0.9246,-0.9244,-0.9244,-0.9244,-0.9322,-0.9322,-0.9399,-0.9399,-0.9399,-0.9477,-0.9555,-0.9633,-0.9708,-0.9864,-0.9942,-1.0019,-1.0019,-1.0019,-1.0019,-1.0019,-1.0019,-1.0019,-1.0019,-1.0019,-1.0019,-1.0019,-1.0019,-1.0019,-1.0019,-0.9987,-0.9949,-0.9805,-0.965,-0.9552,-0.9451,-0.9356,-0.9304,-0.9304,-0.9304,-0.9304,-0.9304,-0.9304,-0.9304,-0.9304,-0.9304,-0.9337,-0.9304,-0.9304,-0.9353,-0.9432,-0.947,-0.9579,-0.9726,-0.9734,-0.9831,-1.0017,-1.0019,-1.0019,-1.0019,-1.0019,-1.0019,-1.0019,-1.0019,-1.0019,-1.0025,-1.0038,-1.0095,-1.0196,-1.0302,-1.0411,-1.0536,-1.0628,-1.0683,-1.0734,-1.0734,-1.0734,-1.0734,-1.0734,-1.0734,-1.0734,-1.0734,-1.0734,-1.0734,-1.0734,-1.0734,-1.0734,-1.0693,-1.0677,-1.0655,-1.0566,-1.0511,-1.0492,-1.0452,-1.0416,-1.0394,-1.0365,-1.0254,-1.0158,-1.0142,-1.0044,-0.9961,-0.9964,-0.9964,-0.9966,-1.0078,-1.007,-0.986,-0.9731,-0.9606,-0.942,-0.9291,-0.911,-0.8946,-0.8861,-0.8781,-0.8778,-0.8856,-0.8934,-0.9012,-0.9012,-0.9012,-0.9012,-0.9012,-0.8934,-0.8934,-0.909,-0.9246,-0.9399,-0.9555,-0.9786,-0.9942,-1.0019,-1.0019,-1.0019,-1.0019,-1.0019,-1.0019,-1.0019,-1.0019,-1.0019,-1.0019,-1.0019,-1.0019,-1.0006,-0.9946,-0.9878,-0.9745,-0.9631,-0.9525,-0.9427,-0.9334,-0.9302,-0.9302,-0.9302,-0.9304,-0.9304,-0.9304,-0.9304,-0.9304,-0.9304,-0.9413,-0.9307,-0.9304,-0.9307,-0.9332,-0.9438,-0.9495,-0.956,-0.9748,-0.9908,-1.0014,-1.0019,-1.0019,-1.0019,-1.0019,-1.0019,-1.0019,-1.0019,-1.0019,-1.0019,-1.0022,-1.0095,-1.0158,-1.0237,-1.0327,-1.0503,-1.0585,-1.0642,-1.0718,-1.0732,-1.0734,-1.0704,-1.0685,-1.0704,-1.0729,-1.0734,-1.0734,-1.0732,-1.0723,-1.0712,-1.0672,-1.0598,-1.0568,-1.0536,-1.0446,-1.0389,-1.0295,-1.0257,-1.015,-1.0062,-1.0004,-0.9895,-0.9649,-0.9572,-0.9382,-0.9061,-0.8973,-0.8966,-0.8883,-0.9361,-0.9366,-0.9162,-0.9142,-0.9049,-0.8873,-0.8778,-0.87,-0.8466,-0.8625,-0.87,-0.87,-0.87,-0.8622,-0.8622,-0.8544,-0.8544,-0.8466,-0.8466,-0.8466,-0.8466,-0.8622,-0.8856,-0.9012,-0.9168,-0.9555,-0.9789,-0.9942,-1.0019,-1.0019,-1.0019,-1.0019,-1.0019,-1.0019,-1.0019,-1.0019,-1.0019,-1.0019,-1.0019,-0.9992,-0.9932,-0.9848,-0.9731,-0.9617,-0.95,-0.9405,-0.9315,-0.9302,-0.9302,-0.9232,-0.9088,-0.9304,-0.9304,-0.9304,-0.9232,-0.916,-0.9462,-0.9419,-0.934,-0.9304,-0.931,-0.9345,-0.9408,-0.9519,-0.9729,-0.9905,-1.0003,-1.0019,-1.0019,-1.0019,-1.0019,-1.0019,-1.0019,-1.0019,-1.0019,-1.0019,-1.0019,-1.0036,-1.0093,-1.0169,-1.0245,-1.0346,-1.0446,-1.0631,-1.0612,-1.0666,-1.0664,-1.0631,-1.0577,-1.0601,-1.0693,-1.0729,-1.071,-1.0631,-1.0606,-1.0585,-1.0511,-1.0468,-1.0441,-1.0435,-1.0327,-1.0107,-0.9863,-0.9816,-0.9705,-0.9466,-0.9402,-0.9319,-0.9157,-0.9015,-0.8937,-0.8781,-0.8781,-0.8625,-0.8549,-0.8664,-0.874,-0.871,-0.87,-0.8625,-0.8471,-0.8391,-0.8232,-0.8076,-0.8074,-0.8074,-0.7918,-0.7918,-0.7918,-0.7918,-0.784,-0.784,-0.784,-0.784,-0.784,-0.7918,-0.8076,-0.8544,-0.8781,-0.8937,-0.9246,-0.9633,-0.9786,-0.9942,-1.0019,-1.0019,-1.0019,-1.0019,-1.0019,-1.0019,-1.0019,-1.0019,-1.0019,-1.0019,-0.9979,-0.9919,-0.9824,-0.9709,-0.9565,-0.943,-0.9362,-0.9302,-0.9157,-0.9088,-0.8943,-0.8943,-0.8943,-0.9088,-0.9088,-0.9016,-0.8871,-0.9587,-0.9536,-0.9416,-0.9367,-0.9359,-0.9323,-0.9372,-0.9508,-0.9693,-0.9845,-0.9943,-0.9995,-1.0019,-1.0019,-1.0019,-1.0019,-1.0019,-1.0019,-1.0019,-1.0019,-1.0019,-1.0025,-1.0057,-1.0104,-1.0166,-1.0234,-1.0332,-1.0441,-1.0495,-1.0574,-1.0563,-1.0492,-1.0424,-1.0484,-1.0571,-1.0585,-1.0568,-1.0506,-1.0492,-1.0471,-1.0408,-1.0359,-1.0244,-1.0129,-0.99,-0.9748,-0.9413,-0.9215,-0.909,-0.8856,-0.8778,-0.87,-0.8622,-0.8625,-0.8544,-0.8388,-0.831,-0.8154,-0.8,-0.8,-0.8083,-0.8232,-0.831,-0.8232,-0.8,-0.792,-0.784,-0.7603,-0.7525,-0.7525,-0.7525,-0.7525,-0.7525,-0.7525,-0.7525,-0.7525,-0.7525,-0.7603,-0.7603,-0.7683,-0.7762,-0.8154,-0.8547,-0.8781,-0.9015,-0.9322,-0.963,-0.9786,-0.9942,-1.0019,-1.0019,-1.0019,-1.0019,-1.0019,-1.0019,-1.0019,-1.0019,-1.0019,-0.9979,-0.993,-0.9788,-0.9671,-0.9514,-0.9378,-0.9334,-0.916,-0.9016,-0.8871,-0.8582,-0.8437,-0.8437,-0.8582,-0.8871,-0.8654,-0.8437,-0.9772,-0.9663,-0.9544,-0.9487,-0.9465,-0.9353,-0.9372,-0.9495,-0.9614,-0.9731,-0.9848,-0.9965,-1.0003,-1.0017,-1.0019,-1.0019,-1.0019,-1.0019,-1.0019,-1.0019,-1.0019,-1.0019,-1.0019,-1.0038,-1.0095,-1.0161,-1.024,-1.0321,-1.0375,-1.0403,-1.0397,-1.0375,-1.0332,-1.0348,-1.0365,-1.037,-1.0373,-1.0373,-1.0375,-1.0348,-1.0214,-1.0163,-0.9893,-0.9695,-0.9484,-0.9203,-0.8956,-0.8786,-0.87,-0.8622,-0.8622,-0.8466,-0.8313,-0.8159,-0.792,-0.7683,-0.7603,-0.7603,-0.7603,-0.7603,-0.7603,-0.7762,-0.7681,-0.7525,-0.7603,-0.7603,-0.7603,-0.7525,-0.7525,-0.7525,-0.7525,-0.7525,-0.7525,-0.7525,-0.7525,-0.7525,-0.7525,-0.7525,-0.7525,-0.7525,-0.7525,-0.7762,-0.8076,-0.8313,-0.8625,-0.8934,-0.9244,-0.9553,-0.9708,-1.0019,-1.0019,-1.0019,-1.0019,-1.0019,-1.0019,-1.0019,-1.0019,-1.0019,-1.0008,-0.9957,-0.9799,-0.9586,-0.9395,-0.9288,-0.92,-0.9016,-0.8579,-0.8292,-0.8003,-0.793,-0.7713,-0.793,-0.8073,-0.7928,-0.7786,-0.9818,-0.9777,-0.9666,-0.9568,-0.9476,-0.9356,-0.9372,-0.9487,-0.9533,-0.9644,-0.9764,-0.9873,-0.9932,-1.0017,-1.0019,-1.0017,-1.0019,-1.0019,-1.0019,-1.0019,-1.0019,-1.0019,-1.0019,-1.0022,-1.0049,-1.0093,-1.0155,-1.021,-1.0245,-1.0256,-1.0256,-1.025,-1.0196,-1.0161,-1.0147,-1.0134,-1.0191,-1.0157,-1.0174,-1.0059,-0.9777,-0.9722,-0.9387,-0.9132,-0.9042,-0.8781,-0.8469,-0.8391,-0.8232,-0.7996,-0.7916,-0.7762,-0.7762,-0.7683,-0.7525,-0.7525,-0.7525,-0.7525,-0.7525,-0.7525,-0.7525,-0.7525,-0.7525,-0.7525,-0.7525,-0.7525,-0.7525,-0.7525,-0.7525,-0.7525,-0.7525,-0.7525,-0.7525,-0.7525,-0.7525,-0.7525,-0.7525,-0.7525,-0.7525,-0.7525,-0.7525,-0.7525,-0.7842,-0.7998,-0.831,-0.8544,-0.8778,-0.9166,-0.9477,-0.9708,-0.9942,-1.0019,-1.0019,-1.0019,-1.0019,-1.0019,-1.0019,-1.0017,-0.9933,-0.9818,-0.9611,-0.9405,-0.9223,-0.8961,-0.8629,-0.8297,-0.7928,-0.7638,-0.7278,-0.6843,-0.6624,-0.7059,-0.7276,-0.7131,-0.6986,-0.9911,-0.9894,-0.9783,-0.9639,-0.9489,-0.941,-0.94,-0.9424,-0.9465,-0.9576,-0.9693,-0.9748,-0.9837,-0.993,-0.9943,-0.9968,-1.0019,-1.0019,-1.0019,-1.0019,-1.0019,-1.0019,-1.0019,-1.0019,-1.0025,-1.0052,-1.0079,-1.012,-1.0136,-1.0131,-1.0128,-1.0123,-1.0041,-1.003,-0.9955,-0.9896,-0.9758,-0.9874,-0.9806,-0.969,-0.9506,-0.9246,-0.8937,-0.8625,-0.8547,-0.8313,-0.8,-0.792,-0.7762,-0.7525,-0.7525,-0.7525,-0.7525,-0.7525,-0.7525,-0.7525,-0.7525,-0.7525,-0.7525,-0.7525,-0.7525,-0.7525,-0.7525,-0.7525,-0.7525,-0.7525,-0.7525,-0.7525,-0.7525,-0.7525,-0.7525,-0.7525,-0.7525,-0.7525,-0.7525,-0.7525,-0.7525,-0.7525,-0.7525,-0.7525,-0.7525,-0.7525,-0.7605,-0.7842,-0.8,-0.8234,-0.8469,-0.87,-0.909,-0.9477,-0.9789,-0.9944,-1.0019,-1.0019,-0.9942,-0.9864,-0.9864,-0.9786,-0.9708,-0.9578,-0.9397,-0.9048,-0.8698,-0.829,-0.7822,-0.7509,-0.7131,-0.6769,-0.6408,-0.6043,-0.568,-0.5825,-0.6116,-0.6333,-0.6188,-1.0017,-1.0006,-0.9886,-0.9715,-0.9527,-0.9495,-0.9424,-0.9334,-0.9424,-0.9481,-0.9519,-0.9609,-0.9718,-0.9815,-0.9854,-0.9911,-0.9968,-1.0,-1.0019,-1.0019,-1.0019,-1.0019,-1.0019,-1.0019,-1.0019,-1.0019,-1.003,-1.0057,-1.0033,-1.0041,-1.0049,-1.0019,-0.9944,-0.9864,-0.9789,-0.9477,-0.9337,-0.9347,-0.9276,-0.9181,-0.91,-0.8859,-0.8547,-0.8234,-0.8078,-0.792,-0.7683,-0.7525,-0.7525,-0.7525,-0.7525,-0.7525,-0.7525,-0.7525,-0.7525,-0.7525,-0.7525,-0.7525,-0.7525,-0.7525,-0.7525,-0.7525,-0.7525,-0.7525,-0.7525,-0.7525,-0.7525,-0.7525,-0.7525,-0.7525,-0.7525,-0.7525,-0.7525,-0.7525,-0.7525,-0.7525,-0.7525,-0.7525,-0.7525,-0.7525,-0.7525,-0.7525,-0.7525,-0.7683,-0.7762,-0.8,-0.8156,-0.831,-0.8625,-0.9012,-0.9322,-0.9633,-0.9633,-0.9633,-0.9633,-0.9555,-0.9555,-0.9477,-0.9322,-0.9141,-0.8837,-0.8469,-0.8092,-0.7553,-0.696,-0.6639,-0.6261,-0.5972,-0.5682,-0.5389,-0.5026,-0.4664,-0.4809,-0.5098,-0.5171,-1.0019,-1.0008,-0.9889,-0.9799,-0.9731,-0.956,-0.9476,-0.9438,-0.937,-0.9405,-0.9481,-0.9522,-0.9598,-0.9701,-0.978,-0.984,-0.9881,-0.9962,-1.0008,-1.0014,-1.0011,-1.0019,-1.0019,-1.0019,-1.0019,-1.0019,-1.0019,-1.0019,-1.0019,-1.0019,-1.0019,-0.9944,-0.9789,-0.9555,-0.9558,-0.9168,-0.8934,-0.8934,-0.87,-0.8544,-0.8469,-0.8391,-0.8156,-0.7842,-0.7683,-0.7683,-0.7525,-0.7525,-0.7525,-0.7525,-0.7525,-0.7525,-0.7525,-0.7525,-0.7525,-0.7525,-0.7525,-0.7525,-0.7525,-0.7525,-0.7525,-0.7525,-0.7525,-0.7525,-0.7525,-0.7525,-0.7525,-0.7525,-0.7525,-0.7525,-0.7525,-0.7525,-0.7525,-0.7525,-0.7525,-0.7525,-0.7525,-0.7525,-0.7525,-0.7525,-0.7525,-0.7525,-0.7525,-0.7525,-0.7525,-0.7603,-0.7603,-0.7762,-0.8078,-0.8391,-0.8466,-0.8778,-0.9012,-0.9012,-0.9088,-0.9088,-0.8932,-0.8774,-0.8618,-0.8441,-0.8181,-0.75,-0.6835,-0.6533,-0.6101,-0.5703,-0.5391,-0.5173,-0.4882,-0.4589,-0.4226,-0.379,-0.3499,-0.3644,-0.379,-1.0019,-1.0011,-0.9946,-0.9886,-0.9818,-0.9693,-0.9587,-0.9484,-0.9413,-0.9391,-0.9405,-0.9413,-0.9473,-0.9576,-0.9655,-0.9731,-0.9775,-0.9886,-0.9916,-0.9938,-0.9995,-1.0017,-1.0019,-1.0019,-1.0019,-1.0019,-1.0019,-1.0019,-0.9942,-0.9789,-0.9711,-0.9711,-0.9399,-0.9168,-0.909,-0.8781,-0.8547,-0.8544,-0.8078,-0.792,-0.792,-0.7842,-0.7762,-0.7525,-0.7525,-0.7525,-0.7525,-0.7525,-0.7525,-0.7525,-0.7525,-0.7525,-0.7525,-0.7525,-0.7525,-0.7525,-0.7525,-0.7525,-0.7525,-0.7525,-0.7525,-0.7525,-0.7525,-0.7525,-0.7525,-0.7525,-0.7525,-0.7525,-0.7525,-0.7525,-0.7525,-0.7525,-0.7525,-0.7525,-0.7525,-0.7525,-0.7525,-0.7525,-0.7525,-0.7525,-0.7525,-0.7525,-0.7525,-0.7525,-0.7525,-0.7525,-0.7525,-0.7371,-0.7609,-0.7609,-0.7688,-0.7764,-0.7918,-0.8308,-0.854,-0.8384,-0.8228,-0.7994,-0.7835,-0.7413,-0.6986,-0.6194,-0.55,-0.5363,-0.516,-0.4677,-0.4374,-0.4228,-0.4009,-0.3716,-0.3279,-0.2843,-0.2552,-0.2333,-0.2407,-1.0019,-1.0019,-1.0017,-0.996,-0.9864,-0.9761,-0.9709,-0.9533,-0.9489,-0.9413,-0.9323,-0.9315,-0.9375,-0.9432,-0.9492,-0.9565,-0.9652,-0.9767,-0.9807,-0.9875,-0.9943,-0.9984,-1.0011,-1.0019,-1.0019,-0.9942,-0.9942,-0.9864,-0.9864,-0.9555,-0.9324,-0.9244,-0.901,-0.87,-0.8625,-0.8391,-0.8076,-0.7998,-0.7762,-0.7603,-0.7525,-0.7525,-0.7525,-0.7525,-0.7525,-0.7525,-0.7525,-0.7525,-0.7525,-0.7525,-0.7525,-0.7525,-0.7525,-0.7525,-0.7525,-0.7525,-0.7525,-0.7525,-0.7525,-0.7525,-0.7525,-0.7525,-0.7525,-0.7525,-0.7525,-0.7525,-0.7525,-0.7525,-0.7525,-0.7525,-0.7525,-0.7525,-0.7525,-0.7525,-0.7525,-0.7525,-0.7525,-0.7525,-0.7525,-0.7525,-0.7525,-0.7525,-0.7525,-0.7525,-0.7525,-0.7525,-0.7369,-0.7215,-0.6982,-0.6747,-0.6669,-0.6589,-0.6666,-0.7055,-0.7677,-0.7601,-0.7291,-0.6978,-0.6736,-0.6311,-0.5879,-0.5119,-0.4608,-0.4561,-0.4219,-0.3805,-0.3499,-0.3354,-0.3062,-0.277,-0.2479,-0.2115,-0.175,-0.1459,-0.124,-1.0019,-1.0019,-1.0019,-1.0003,-0.997,-0.9883,-0.9758,-0.9631,-0.9527,-0.9416,-0.9334,-0.9304,-0.9323,-0.9345,-0.9451,-0.9511,-0.9527,-0.9644,-0.9761,-0.9843,-0.9873,-0.9935,-0.9912,-0.9931,-1.0017,-0.9864,-0.9633,-0.9555,-0.9477,-0.909,-0.8934,-0.8856,-0.8547,-0.8313,-0.8234,-0.7998,-0.7683,-0.7683,-0.7683,-0.7525,-0.7525,-0.7525,-0.7525,-0.7525,-0.7525,-0.7525,-0.7525,-0.7525,-0.7525,-0.7525,-0.7525,-0.7525,-0.7525,-0.7525,-0.7525,-0.7525,-0.7525,-0.7525,-0.7525,-0.7525,-0.7525,-0.7525,-0.7525,-0.7525,-0.7525,-0.7525,-0.7525,-0.7525,-0.7525,-0.7525,-0.7525,-0.7525,-0.7525,-0.7525,-0.7525,-0.7525,-0.7525,-0.7525,-0.7525,-0.7525,-0.7525,-0.7525,-0.7525,-0.7447,-0.7447,-0.7371,-0.7137,-0.6904,-0.6589,-0.6198,-0.5728,-0.5492,-0.5334,-0.5803,-0.6349,-0.6427,-0.6273,-0.5962,-0.5567,-0.5003,-0.45,-0.4132,-0.3785,-0.3603,-0.3405,-0.3067,-0.277,-0.248,-0.2187,-0.1969,-0.1678,-0.1313,0.0,-0.0802,-0.0657]}]]